<?xml version='1.0' encoding='UTF-8'?>
<gpx version="1.1" creator="https://www.komoot.de" xmlns="http://www.topografix.com/GPX/1/1" xmlns:xsi="http://www.w3.org/2001/XMLSchema-instance" xsi:schemaLocation="http://www.topografix.com/GPX/1/1 http://www.topografix.com/GPX/1/1/gpx.xsd">
  <metadata>
    <name>Lemgo radelt-5-28 06 2025-Lemgo-Retzen-BS-Holzhausen-Lage-Detmold-Lemgo-61,9km</name>
    <author>
      <link href="https://www.komoot.de">
        <text>komoot</text>
        <type>text/html</type>
      </link>
    </author>
  </metadata>
  <trk>
    <name>Lemgo radelt-5-28 06 2025-Lemgo-Retzen-BS-Holzhausen-Lage-Detmold-Lemgo-61,9km</name>
    <trkseg>
      <trkpt lat="52.024446" lon="8.907343">
        <ele>97.455136</ele>
        <time>2024-11-19T15:19:58.098Z</time>
      </trkpt>
      <trkpt lat="52.024501" lon="8.907135">
        <ele>97.455136</ele>
        <time>2024-11-19T15:20:01.663Z</time>
      </trkpt>
      <trkpt lat="52.024630" lon="8.907230">
        <ele>97.455136</ele>
        <time>2024-11-19T15:20:05.347Z</time>
      </trkpt>
      <trkpt lat="52.024761" lon="8.907326">
        <ele>97.455136</ele>
        <time>2024-11-19T15:20:09.152Z</time>
      </trkpt>
      <trkpt lat="52.024891" lon="8.907415">
        <ele>97.455136</ele>
        <time>2024-11-19T15:20:12.965Z</time>
      </trkpt>
      <trkpt lat="52.025044" lon="8.907447">
        <ele>97.455136</ele>
        <time>2024-11-19T15:20:17.219Z</time>
      </trkpt>
      <trkpt lat="52.025134" lon="8.907465">
        <ele>97.455136</ele>
        <time>2024-11-19T15:20:19.749Z</time>
      </trkpt>
      <trkpt lat="52.025148" lon="8.907466">
        <ele>97.455136</ele>
        <time>2024-11-19T15:20:20.262Z</time>
      </trkpt>
      <trkpt lat="52.025203" lon="8.907453">
        <ele>97.455136</ele>
        <time>2024-11-19T15:20:22.300Z</time>
      </trkpt>
      <trkpt lat="52.025188" lon="8.907045">
        <ele>97.551301</ele>
        <time>2024-11-19T15:20:29.700Z</time>
      </trkpt>
      <trkpt lat="52.025135" lon="8.907017">
        <ele>97.574361</ele>
        <time>2024-11-19T15:20:31.700Z</time>
      </trkpt>
      <trkpt lat="52.024396" lon="8.906385">
        <ele>97.919900</ele>
        <time>2024-11-19T15:20:55.996Z</time>
      </trkpt>
      <trkpt lat="52.024340" lon="8.906308">
        <ele>97.950253</ele>
        <time>2024-11-19T15:20:58.098Z</time>
      </trkpt>
      <trkpt lat="52.024136" lon="8.906030">
        <ele>98.060414</ele>
        <time>2024-11-19T15:21:05.982Z</time>
      </trkpt>
      <trkpt lat="52.023984" lon="8.905573">
        <ele>98.192683</ele>
        <time>2024-11-19T15:21:15.254Z</time>
      </trkpt>
      <trkpt lat="52.023846" lon="8.904631">
        <ele>98.395499</ele>
        <time>2024-11-19T15:21:31.700Z</time>
      </trkpt>
      <trkpt lat="52.023851" lon="8.904259">
        <ele>98.472964</ele>
        <time>2024-11-19T15:21:37.982Z</time>
      </trkpt>
      <trkpt lat="52.023872" lon="8.904100">
        <ele>98.506820</ele>
        <time>2024-11-19T15:21:40.744Z</time>
      </trkpt>
      <trkpt lat="52.023892" lon="8.904000">
        <ele>98.528711</ele>
        <time>2024-11-19T15:21:42.537Z</time>
      </trkpt>
      <trkpt lat="52.023946" lon="8.903493">
        <ele>98.635832</ele>
        <time>2024-11-19T15:21:51.582Z</time>
      </trkpt>
      <trkpt lat="52.023918" lon="8.901989">
        <ele>98.930614</ele>
        <time>2024-11-19T15:22:18.543Z</time>
      </trkpt>
      <trkpt lat="52.023986" lon="8.901106">
        <ele>99.091629</ele>
        <time>2024-11-19T15:22:33.786Z</time>
      </trkpt>
      <trkpt lat="52.024077" lon="8.899614">
        <ele>99.602698</ele>
        <time>2024-11-19T15:22:58.338Z</time>
      </trkpt>
      <trkpt lat="52.024100" lon="8.899368">
        <ele>100.061446</ele>
        <time>2024-11-19T15:23:02.562Z</time>
      </trkpt>
      <trkpt lat="52.024068" lon="8.899374">
        <ele>100.157961</ele>
        <time>2024-11-19T15:23:03.585Z</time>
      </trkpt>
      <trkpt lat="52.023849" lon="8.899407">
        <ele>100.816950</ele>
        <time>2024-11-19T15:23:10.716Z</time>
      </trkpt>
      <trkpt lat="52.023683" lon="8.899522">
        <ele>101.357630</ele>
        <time>2024-11-19T15:23:17.129Z</time>
      </trkpt>
      <trkpt lat="52.023616" lon="8.899563">
        <ele>101.572138</ele>
        <time>2024-11-19T15:23:19.767Z</time>
      </trkpt>
      <trkpt lat="52.023555" lon="8.899599">
        <ele>101.766586</ele>
        <time>2024-11-19T15:23:22.419Z</time>
      </trkpt>
      <trkpt lat="52.023550" lon="8.899572">
        <ele>101.818572</ele>
        <time>2024-11-19T15:23:23.137Z</time>
      </trkpt>
      <trkpt lat="52.023131" lon="8.899826">
        <ele>103.158491</ele>
        <time>2024-11-19T15:23:42.830Z</time>
      </trkpt>
      <trkpt lat="52.023110" lon="8.899839">
        <ele>103.225822</ele>
        <time>2024-11-19T15:23:43.844Z</time>
      </trkpt>
      <trkpt lat="52.022901" lon="8.899961">
        <ele>103.891207</ele>
        <time>2024-11-19T15:23:55.455Z</time>
      </trkpt>
      <trkpt lat="52.022828" lon="8.899981">
        <ele>104.113018</ele>
        <time>2024-11-19T15:23:59.606Z</time>
      </trkpt>
      <trkpt lat="52.022797" lon="8.899796">
        <ele>104.466527</ele>
        <time>2024-11-19T15:24:06.840Z</time>
      </trkpt>
      <trkpt lat="52.022792" lon="8.899707">
        <ele>104.631301</ele>
        <time>2024-11-19T15:24:09.783Z</time>
      </trkpt>
      <trkpt lat="52.022756" lon="8.899700">
        <ele>104.749505</ele>
        <time>2024-11-19T15:24:11.795Z</time>
      </trkpt>
      <trkpt lat="52.022670" lon="8.899678">
        <ele>105.189053</ele>
        <time>2024-11-19T15:24:16.788Z</time>
      </trkpt>
      <trkpt lat="52.022332" lon="8.899593">
        <ele>106.915879</ele>
        <time>2024-11-19T15:24:36.528Z</time>
      </trkpt>
      <trkpt lat="52.021981" lon="8.899493">
        <ele>108.715057</ele>
        <time>2024-11-19T15:24:57.402Z</time>
      </trkpt>
      <trkpt lat="52.021437" lon="8.899341">
        <ele>111.501939</ele>
        <time>2024-11-19T15:25:26.535Z</time>
      </trkpt>
      <trkpt lat="52.021367" lon="8.899321">
        <ele>111.860780</ele>
        <time>2024-11-19T15:25:30.038Z</time>
      </trkpt>
      <trkpt lat="52.021224" lon="8.899213">
        <ele>112.656930</ele>
        <time>2024-11-19T15:25:37.456Z</time>
      </trkpt>
      <trkpt lat="52.020953" lon="8.898970">
        <ele>113.874093</ele>
        <time>2024-11-19T15:25:50.680Z</time>
      </trkpt>
      <trkpt lat="52.020901" lon="8.898928">
        <ele>113.921726</ele>
        <time>2024-11-19T15:25:52.933Z</time>
      </trkpt>
      <trkpt lat="52.020279" lon="8.898426">
        <ele>114.491407</ele>
        <time>2024-11-19T15:26:16.123Z</time>
      </trkpt>
      <trkpt lat="52.019783" lon="8.898084">
        <ele>114.933382</ele>
        <time>2024-11-19T15:26:30.319Z</time>
      </trkpt>
      <trkpt lat="52.019676" lon="8.898034">
        <ele>115.024710</ele>
        <time>2024-11-19T15:26:33.047Z</time>
      </trkpt>
      <trkpt lat="52.019296" lon="8.897967">
        <ele>115.225715</ele>
        <time>2024-11-19T15:26:42.134Z</time>
      </trkpt>
      <trkpt lat="52.019129" lon="8.897880">
        <ele>115.079365</ele>
        <time>2024-11-19T15:26:46.226Z</time>
      </trkpt>
      <trkpt lat="52.018499" lon="8.897354">
        <ele>114.488288</ele>
        <time>2024-11-19T15:27:02.515Z</time>
      </trkpt>
      <trkpt lat="52.018432" lon="8.897310">
        <ele>114.427982</ele>
        <time>2024-11-19T15:27:04.141Z</time>
      </trkpt>
      <trkpt lat="52.018370" lon="8.897258">
        <ele>114.369758</ele>
        <time>2024-11-19T15:27:05.743Z</time>
      </trkpt>
      <trkpt lat="52.018011" lon="8.896748">
        <ele>113.971821</ele>
        <time>2024-11-19T15:27:16.841Z</time>
      </trkpt>
      <trkpt lat="52.017698" lon="8.896259">
        <ele>113.790730</ele>
        <time>2024-11-19T15:27:27.535Z</time>
      </trkpt>
      <trkpt lat="52.017625" lon="8.896164">
        <ele>113.794924</ele>
        <time>2024-11-19T15:27:29.969Z</time>
      </trkpt>
      <trkpt lat="52.017411" lon="8.895903">
        <ele>113.806923</ele>
        <time>2024-11-19T15:27:37.092Z</time>
      </trkpt>
      <trkpt lat="52.017073" lon="8.895568">
        <ele>113.824678</ele>
        <time>2024-11-19T15:27:47.727Z</time>
      </trkpt>
      <trkpt lat="52.017008" lon="8.895504">
        <ele>113.828087</ele>
        <time>2024-11-19T15:27:49.823Z</time>
      </trkpt>
      <trkpt lat="52.016916" lon="8.895413">
        <ele>113.832917</ele>
        <time>2024-11-19T15:27:52.835Z</time>
      </trkpt>
      <trkpt lat="52.016800" lon="8.895210">
        <ele>113.840562</ele>
        <time>2024-11-19T15:27:57.658Z</time>
      </trkpt>
      <trkpt lat="52.016712" lon="8.894966">
        <ele>113.848368</ele>
        <time>2024-11-19T15:28:02.728Z</time>
      </trkpt>
      <trkpt lat="52.016678" lon="8.894870">
        <ele>113.851425</ele>
        <time>2024-11-19T15:28:04.692Z</time>
      </trkpt>
      <trkpt lat="52.016404" lon="8.894007">
        <ele>114.053746</ele>
        <time>2024-11-19T15:28:21.664Z</time>
      </trkpt>
      <trkpt lat="52.016199" lon="8.893466">
        <ele>114.262694</ele>
        <time>2024-11-19T15:28:32.430Z</time>
      </trkpt>
      <trkpt lat="52.015762" lon="8.892411">
        <ele>114.680941</ele>
        <time>2024-11-19T15:28:55.546Z</time>
      </trkpt>
      <trkpt lat="52.015481" lon="8.891736">
        <ele>114.924815</ele>
        <time>2024-11-19T15:29:11.421Z</time>
      </trkpt>
      <trkpt lat="52.015220" lon="8.891113">
        <ele>115.125045</ele>
        <time>2024-11-19T15:29:25.958Z</time>
      </trkpt>
      <trkpt lat="52.014898" lon="8.890313">
        <ele>115.379011</ele>
        <time>2024-11-19T15:29:43.326Z</time>
      </trkpt>
      <trkpt lat="52.014882" lon="8.890169">
        <ele>115.417888</ele>
        <time>2024-11-19T15:29:45.824Z</time>
      </trkpt>
      <trkpt lat="52.014929" lon="8.889950">
        <ele>115.479509</ele>
        <time>2024-11-19T15:29:49.656Z</time>
      </trkpt>
      <trkpt lat="52.015118" lon="8.890079">
        <ele>115.568005</ele>
        <time>2024-11-19T15:29:55.004Z</time>
      </trkpt>
      <trkpt lat="52.015147" lon="8.890003">
        <ele>115.591763</ele>
        <time>2024-11-19T15:29:58.825Z</time>
      </trkpt>
      <trkpt lat="52.015230" lon="8.889700">
        <ele>115.405859</ele>
        <time>2024-11-19T15:30:05.532Z</time>
      </trkpt>
      <trkpt lat="52.015262" lon="8.889442">
        <ele>115.236549</ele>
        <time>2024-11-19T15:30:10.778Z</time>
      </trkpt>
      <trkpt lat="52.015320" lon="8.889437">
        <ele>115.175839</ele>
        <time>2024-11-19T15:30:12.587Z</time>
      </trkpt>
      <trkpt lat="52.015371" lon="8.888920">
        <ele>114.839006</ele>
        <time>2024-11-19T15:30:19.836Z</time>
      </trkpt>
      <trkpt lat="52.015371" lon="8.888456">
        <ele>114.540513</ele>
        <time>2024-11-19T15:30:26.130Z</time>
      </trkpt>
      <trkpt lat="52.015254" lon="8.887819">
        <ele>114.112869</ele>
        <time>2024-11-19T15:30:35.273Z</time>
      </trkpt>
      <trkpt lat="52.015148" lon="8.887246">
        <ele>113.727963</ele>
        <time>2024-11-19T15:30:46.601Z</time>
      </trkpt>
      <trkpt lat="52.014992" lon="8.887219">
        <ele>113.621426</ele>
        <time>2024-11-19T15:30:50.133Z</time>
      </trkpt>
      <trkpt lat="52.015015" lon="8.887008">
        <ele>113.534415</ele>
        <time>2024-11-19T15:30:53.109Z</time>
      </trkpt>
      <trkpt lat="52.014944" lon="8.886391">
        <ele>113.279538</ele>
        <time>2024-11-19T15:31:01.863Z</time>
      </trkpt>
      <trkpt lat="52.014801" lon="8.885151">
        <ele>112.767265</ele>
        <time>2024-11-19T15:31:20.977Z</time>
      </trkpt>
      <trkpt lat="52.014690" lon="8.883834">
        <ele>112.309911</ele>
        <time>2024-11-19T15:31:42.990Z</time>
      </trkpt>
      <trkpt lat="52.014693" lon="8.883612">
        <ele>112.244063</ele>
        <time>2024-11-19T15:31:46.530Z</time>
      </trkpt>
      <trkpt lat="52.014699" lon="8.883179">
        <ele>112.115629</ele>
        <time>2024-11-19T15:31:53.350Z</time>
      </trkpt>
      <trkpt lat="52.014700" lon="8.882426">
        <ele>111.892334</ele>
        <time>2024-11-19T15:32:04.881Z</time>
      </trkpt>
      <trkpt lat="52.014700" lon="8.882325">
        <ele>111.862384</ele>
        <time>2024-11-19T15:32:06.394Z</time>
      </trkpt>
      <trkpt lat="52.014725" lon="8.881601">
        <ele>111.603575</ele>
        <time>2024-11-19T15:32:16.984Z</time>
      </trkpt>
      <trkpt lat="52.014589" lon="8.880241">
        <ele>110.258174</ele>
        <time>2024-11-19T15:32:35.548Z</time>
      </trkpt>
      <trkpt lat="52.014334" lon="8.878302">
        <ele>108.419866</ele>
        <time>2024-11-19T15:33:01.513Z</time>
      </trkpt>
      <trkpt lat="52.014288" lon="8.877949">
        <ele>108.137748</ele>
        <time>2024-11-19T15:33:06.334Z</time>
      </trkpt>
      <trkpt lat="52.014295" lon="8.877680">
        <ele>107.927238</ele>
        <time>2024-11-19T15:33:09.994Z</time>
      </trkpt>
      <trkpt lat="52.014379" lon="8.877456">
        <ele>107.722151</ele>
        <time>2024-11-19T15:33:13.600Z</time>
      </trkpt>
      <trkpt lat="52.014289" lon="8.877348">
        <ele>107.580015</ele>
        <time>2024-11-19T15:33:16.116Z</time>
      </trkpt>
      <trkpt lat="52.014217" lon="8.877282">
        <ele>107.474996</ele>
        <time>2024-11-19T15:33:17.983Z</time>
      </trkpt>
      <trkpt lat="52.014173" lon="8.877215">
        <ele>107.398389</ele>
        <time>2024-11-19T15:33:19.337Z</time>
      </trkpt>
      <trkpt lat="52.014085" lon="8.877021">
        <ele>107.209961</ele>
        <time>2024-11-19T15:33:22.691Z</time>
      </trkpt>
      <trkpt lat="52.013873" lon="8.876216">
        <ele>106.527071</ele>
        <time>2024-11-19T15:33:35.390Z</time>
      </trkpt>
      <trkpt lat="52.013806" lon="8.876044">
        <ele>106.477062</ele>
        <time>2024-11-19T15:33:38.517Z</time>
      </trkpt>
      <trkpt lat="52.013659" lon="8.875770">
        <ele>106.387763</ele>
        <time>2024-11-19T15:33:44.128Z</time>
      </trkpt>
      <trkpt lat="52.013500" lon="8.875271">
        <ele>106.249715</ele>
        <time>2024-11-19T15:33:52.775Z</time>
      </trkpt>
      <trkpt lat="52.013446" lon="8.874854">
        <ele>106.145024</ele>
        <time>2024-11-19T15:33:59.402Z</time>
      </trkpt>
      <trkpt lat="52.013371" lon="8.874400">
        <ele>106.029538</ele>
        <time>2024-11-19T15:34:06.691Z</time>
      </trkpt>
      <trkpt lat="52.013042" lon="8.873115">
        <ele>105.595420</ele>
        <time>2024-11-19T15:34:28.901Z</time>
      </trkpt>
      <trkpt lat="52.012760" lon="8.871782">
        <ele>104.988032</ele>
        <time>2024-11-19T15:34:50.267Z</time>
      </trkpt>
      <trkpt lat="52.012646" lon="8.870991">
        <ele>104.637961</ele>
        <time>2024-11-19T15:35:01.813Z</time>
      </trkpt>
      <trkpt lat="52.012594" lon="8.869247">
        <ele>102.998893</ele>
        <time>2024-11-19T15:35:25.406Z</time>
      </trkpt>
      <trkpt lat="52.012294" lon="8.867253">
        <ele>101.141953</ele>
        <time>2024-11-19T15:35:52.346Z</time>
      </trkpt>
      <trkpt lat="52.012251" lon="8.866855">
        <ele>100.859745</ele>
        <time>2024-11-19T15:35:57.639Z</time>
      </trkpt>
      <trkpt lat="52.013006" lon="8.865832">
        <ele>99.744246</ele>
        <time>2024-11-19T15:36:20.038Z</time>
      </trkpt>
      <trkpt lat="52.013054" lon="8.865691">
        <ele>99.631716</ele>
        <time>2024-11-19T15:36:22.494Z</time>
      </trkpt>
      <trkpt lat="52.012833" lon="8.861435">
        <ele>100.973534</ele>
        <time>2024-11-19T15:37:41.889Z</time>
      </trkpt>
      <trkpt lat="52.012777" lon="8.860369">
        <ele>101.342192</ele>
        <time>2024-11-19T15:38:01.633Z</time>
      </trkpt>
      <trkpt lat="52.012796" lon="8.859514">
        <ele>101.450567</ele>
        <time>2024-11-19T15:38:16.168Z</time>
      </trkpt>
      <trkpt lat="52.012897" lon="8.858911">
        <ele>101.227730</ele>
        <time>2024-11-19T15:38:26.036Z</time>
      </trkpt>
      <trkpt lat="52.012943" lon="8.858586">
        <ele>101.108817</ele>
        <time>2024-11-19T15:38:31.115Z</time>
      </trkpt>
      <trkpt lat="52.013089" lon="8.856471">
        <ele>100.255654</ele>
        <time>2024-11-19T15:39:01.828Z</time>
      </trkpt>
      <trkpt lat="52.013080" lon="8.856317">
        <ele>100.166599</ele>
        <time>2024-11-19T15:39:04.027Z</time>
      </trkpt>
      <trkpt lat="52.012655" lon="8.855646">
        <ele>99.612304</ele>
        <time>2024-11-19T15:39:17.276Z</time>
      </trkpt>
      <trkpt lat="52.012504" lon="8.855292">
        <ele>99.364350</ele>
        <time>2024-11-19T15:39:23.336Z</time>
      </trkpt>
      <trkpt lat="52.012410" lon="8.854906">
        <ele>99.125370</ele>
        <time>2024-11-19T15:39:29.416Z</time>
      </trkpt>
      <trkpt lat="52.012379" lon="8.854567">
        <ele>98.928066</ele>
        <time>2024-11-19T15:39:34.511Z</time>
      </trkpt>
      <trkpt lat="52.012349" lon="8.854339">
        <ele>98.810902</ele>
        <time>2024-11-19T15:39:38.058Z</time>
      </trkpt>
      <trkpt lat="52.012187" lon="8.852878">
        <ele>98.493504</ele>
        <time>2024-11-19T15:40:01.462Z</time>
      </trkpt>
      <trkpt lat="52.012156" lon="8.852861">
        <ele>98.482138</ele>
        <time>2024-11-19T15:40:02.322Z</time>
      </trkpt>
      <trkpt lat="52.012020" lon="8.852319">
        <ele>98.356995</ele>
        <time>2024-11-19T15:40:11.942Z</time>
      </trkpt>
      <trkpt lat="52.011980" lon="8.852277">
        <ele>98.340451</ele>
        <time>2024-11-19T15:40:13.187Z</time>
      </trkpt>
      <trkpt lat="52.012465" lon="8.851807">
        <ele>98.103458</ele>
        <time>2024-11-19T15:40:27.148Z</time>
      </trkpt>
      <trkpt lat="52.012520" lon="8.851850">
        <ele>98.065577</ele>
        <time>2024-11-19T15:40:28.612Z</time>
      </trkpt>
      <trkpt lat="52.012838" lon="8.851904">
        <ele>97.867144</ele>
        <time>2024-11-19T15:40:36.069Z</time>
      </trkpt>
      <trkpt lat="52.012907" lon="8.851916">
        <ele>97.824077</ele>
        <time>2024-11-19T15:40:37.662Z</time>
      </trkpt>
      <trkpt lat="52.012988" lon="8.851984">
        <ele>97.767492</ele>
        <time>2024-11-19T15:40:39.772Z</time>
      </trkpt>
      <trkpt lat="52.013239" lon="8.852347">
        <ele>97.558943</ele>
        <time>2024-11-19T15:40:47.508Z</time>
      </trkpt>
      <trkpt lat="52.013345" lon="8.852454">
        <ele>97.481495</ele>
        <time>2024-11-19T15:40:50.424Z</time>
      </trkpt>
      <trkpt lat="52.013553" lon="8.852524">
        <ele>97.349665</ele>
        <time>2024-11-19T15:40:55.502Z</time>
      </trkpt>
      <trkpt lat="52.013893" lon="8.852291">
        <ele>97.120652</ele>
        <time>2024-11-19T15:41:04.867Z</time>
      </trkpt>
      <trkpt lat="52.014234" lon="8.851863">
        <ele>96.953306</ele>
        <time>2024-11-19T15:41:16.416Z</time>
      </trkpt>
      <trkpt lat="52.014257" lon="8.851808">
        <ele>96.939121</ele>
        <time>2024-11-19T15:41:17.543Z</time>
      </trkpt>
      <trkpt lat="52.014604" lon="8.851655">
        <ele>96.814495</ele>
        <time>2024-11-19T15:41:27.248Z</time>
      </trkpt>
      <trkpt lat="52.014993" lon="8.851556">
        <ele>96.678018</ele>
        <time>2024-11-19T15:41:37.348Z</time>
      </trkpt>
      <trkpt lat="52.015326" lon="8.851405">
        <ele>96.558184</ele>
        <time>2024-11-19T15:41:45.934Z</time>
      </trkpt>
      <trkpt lat="52.015549" lon="8.851335">
        <ele>96.479460</ele>
        <time>2024-11-19T15:41:51.448Z</time>
      </trkpt>
      <trkpt lat="52.016073" lon="8.851276">
        <ele>96.048048</ele>
        <time>2024-11-19T15:42:03.585Z</time>
      </trkpt>
      <trkpt lat="52.015875" lon="8.848991">
        <ele>94.889100</ele>
        <time>2024-11-19T15:42:36.207Z</time>
      </trkpt>
      <trkpt lat="52.015833" lon="8.848498">
        <ele>95.016127</ele>
        <time>2024-11-19T15:42:43.976Z</time>
      </trkpt>
      <trkpt lat="52.015699" lon="8.848035">
        <ele>95.146712</ele>
        <time>2024-11-19T15:42:52.324Z</time>
      </trkpt>
      <trkpt lat="52.013836" lon="8.843249">
        <ele>97.853188</ele>
        <time>2024-11-19T15:44:42.064Z</time>
      </trkpt>
      <trkpt lat="52.013637" lon="8.842762">
        <ele>98.127676</ele>
        <time>2024-11-19T15:44:53.112Z</time>
      </trkpt>
      <trkpt lat="52.013219" lon="8.841734">
        <ele>98.706220</ele>
        <time>2024-11-19T15:45:15.856Z</time>
      </trkpt>
      <trkpt lat="52.012887" lon="8.840904">
        <ele>99.004985</ele>
        <time>2024-11-19T15:45:33.347Z</time>
      </trkpt>
      <trkpt lat="52.013686" lon="8.838905">
        <ele>99.504574</ele>
        <time>2024-11-19T15:46:15.839Z</time>
      </trkpt>
      <trkpt lat="52.013859" lon="8.838368">
        <ele>99.370632</ele>
        <time>2024-11-19T15:46:26.298Z</time>
      </trkpt>
      <trkpt lat="52.013891" lon="8.837974">
        <ele>99.282810</ele>
        <time>2024-11-19T15:46:32.806Z</time>
      </trkpt>
      <trkpt lat="52.014522" lon="8.838000">
        <ele>99.056178</ele>
        <time>2024-11-19T15:46:49.129Z</time>
      </trkpt>
      <trkpt lat="52.014578" lon="8.837872">
        <ele>99.021475</ele>
        <time>2024-11-19T15:46:51.401Z</time>
      </trkpt>
      <trkpt lat="52.014656" lon="8.837863">
        <ele>98.993399</ele>
        <time>2024-11-19T15:46:53.219Z</time>
      </trkpt>
      <trkpt lat="52.017245" lon="8.837560">
        <ele>94.824184</ele>
        <time>2024-11-19T15:47:49.607Z</time>
      </trkpt>
      <trkpt lat="52.017481" lon="8.837582">
        <ele>94.325816</ele>
        <time>2024-11-19T15:47:54.732Z</time>
      </trkpt>
      <trkpt lat="52.017712" lon="8.837679">
        <ele>93.822809</ele>
        <time>2024-11-19T15:47:59.935Z</time>
      </trkpt>
      <trkpt lat="52.018581" lon="8.838095">
        <ele>91.736055</ele>
        <time>2024-11-19T15:48:18.272Z</time>
      </trkpt>
      <trkpt lat="52.018640" lon="8.838096">
        <ele>91.557063</ele>
        <time>2024-11-19T15:48:19.404Z</time>
      </trkpt>
      <trkpt lat="52.018687" lon="8.838060">
        <ele>91.399437</ele>
        <time>2024-11-19T15:48:20.397Z</time>
      </trkpt>
      <trkpt lat="52.018753" lon="8.837822">
        <ele>90.912090</ele>
        <time>2024-11-19T15:48:23.460Z</time>
      </trkpt>
      <trkpt lat="52.018827" lon="8.837682">
        <ele>90.567553</ele>
        <time>2024-11-19T15:48:25.645Z</time>
      </trkpt>
      <trkpt lat="52.018889" lon="8.837627">
        <ele>90.353267</ele>
        <time>2024-11-19T15:48:26.982Z</time>
      </trkpt>
      <trkpt lat="52.018940" lon="8.837588">
        <ele>90.182277</ele>
        <time>2024-11-19T15:48:28.083Z</time>
      </trkpt>
      <trkpt lat="52.019136" lon="8.837464">
        <ele>89.544216</ele>
        <time>2024-11-19T15:48:32.106Z</time>
      </trkpt>
      <trkpt lat="52.019296" lon="8.837365">
        <ele>89.024842</ele>
        <time>2024-11-19T15:48:35.399Z</time>
      </trkpt>
      <trkpt lat="52.019571" lon="8.837243">
        <ele>88.160069</ele>
        <time>2024-11-19T15:48:40.919Z</time>
      </trkpt>
      <trkpt lat="52.019793" lon="8.837221">
        <ele>87.485358</ele>
        <time>2024-11-19T15:48:45.257Z</time>
      </trkpt>
      <trkpt lat="52.020123" lon="8.837279">
        <ele>86.765704</ele>
        <time>2024-11-19T15:48:51.825Z</time>
      </trkpt>
      <trkpt lat="52.021150" lon="8.837986">
        <ele>85.933750</ele>
        <time>2024-11-19T15:49:19.249Z</time>
      </trkpt>
      <trkpt lat="52.021470" lon="8.838145">
        <ele>85.684151</ele>
        <time>2024-11-19T15:49:28.137Z</time>
      </trkpt>
      <trkpt lat="52.021481" lon="8.838150">
        <ele>85.675631</ele>
        <time>2024-11-19T15:49:28.463Z</time>
      </trkpt>
      <trkpt lat="52.021648" lon="8.838203">
        <ele>85.548710</ele>
        <time>2024-11-19T15:49:32.931Z</time>
      </trkpt>
      <trkpt lat="52.021928" lon="8.838242">
        <ele>85.631870</ele>
        <time>2024-11-19T15:49:40.410Z</time>
      </trkpt>
      <trkpt lat="52.022071" lon="8.838248">
        <ele>85.700030</ele>
        <time>2024-11-19T15:49:44.283Z</time>
      </trkpt>
      <trkpt lat="52.022565" lon="8.838221">
        <ele>85.935547</ele>
        <time>2024-11-19T15:49:57.915Z</time>
      </trkpt>
      <trkpt lat="52.022901" lon="8.838283">
        <ele>86.096675</ele>
        <time>2024-11-19T15:50:07.208Z</time>
      </trkpt>
      <trkpt lat="52.024054" lon="8.838217">
        <ele>87.503675</ele>
        <time>2024-11-19T15:50:44.786Z</time>
      </trkpt>
      <trkpt lat="52.024444" lon="8.838192">
        <ele>88.276585</ele>
        <time>2024-11-19T15:50:59.559Z</time>
      </trkpt>
      <trkpt lat="52.024502" lon="8.838140">
        <ele>88.407760</ele>
        <time>2024-11-19T15:51:02.102Z</time>
      </trkpt>
      <trkpt lat="52.024579" lon="8.838291">
        <ele>88.646727</ele>
        <time>2024-11-19T15:51:06.824Z</time>
      </trkpt>
      <trkpt lat="52.025624" lon="8.838233">
        <ele>90.734832</ele>
        <time>2024-11-19T15:51:46.545Z</time>
      </trkpt>
      <trkpt lat="52.025720" lon="8.838258">
        <ele>90.931681</ele>
        <time>2024-11-19T15:51:50.233Z</time>
      </trkpt>
      <trkpt lat="52.025759" lon="8.837955">
        <ele>91.317329</ele>
        <time>2024-11-19T15:51:57.372Z</time>
      </trkpt>
      <trkpt lat="52.025717" lon="8.837558">
        <ele>91.819169</ele>
        <time>2024-11-19T15:52:06.578Z</time>
      </trkpt>
      <trkpt lat="52.025723" lon="8.837420">
        <ele>91.991519</ele>
        <time>2024-11-19T15:52:09.659Z</time>
      </trkpt>
      <trkpt lat="52.025750" lon="8.837420">
        <ele>92.046185</ele>
        <time>2024-11-19T15:52:10.655Z</time>
      </trkpt>
      <trkpt lat="52.026017" lon="8.837388">
        <ele>92.588242</ele>
        <time>2024-11-19T15:52:20.154Z</time>
      </trkpt>
      <trkpt lat="52.026561" lon="8.837322">
        <ele>93.682085</ele>
        <time>2024-11-19T15:52:38.557Z</time>
      </trkpt>
      <trkpt lat="52.026998" lon="8.837299">
        <ele>94.484981</ele>
        <time>2024-11-19T15:52:54.180Z</time>
      </trkpt>
      <trkpt lat="52.026978" lon="8.836263">
        <ele>95.656107</ele>
        <time>2024-11-19T15:53:17.975Z</time>
      </trkpt>
      <trkpt lat="52.026997" lon="8.836143">
        <ele>95.796109</ele>
        <time>2024-11-19T15:53:20.722Z</time>
      </trkpt>
      <trkpt lat="52.027698" lon="8.836075">
        <ele>97.080611</ele>
        <time>2024-11-19T15:53:46.221Z</time>
      </trkpt>
      <trkpt lat="52.027736" lon="8.836040">
        <ele>97.158835</ele>
        <time>2024-11-19T15:53:47.828Z</time>
      </trkpt>
      <trkpt lat="52.027741" lon="8.835509">
        <ele>97.744025</ele>
        <time>2024-11-19T15:54:00.110Z</time>
      </trkpt>
      <trkpt lat="52.027728" lon="8.834305">
        <ele>99.070946</ele>
        <time>2024-11-19T15:54:27.843Z</time>
      </trkpt>
      <trkpt lat="52.027727" lon="8.834161">
        <ele>99.229633</ele>
        <time>2024-11-19T15:54:30.996Z</time>
      </trkpt>
      <trkpt lat="52.027836" lon="8.834146">
        <ele>99.425543</ele>
        <time>2024-11-19T15:54:34.788Z</time>
      </trkpt>
      <trkpt lat="52.028041" lon="8.834140">
        <ele>99.792744</ele>
        <time>2024-11-19T15:54:41.913Z</time>
      </trkpt>
      <trkpt lat="52.028614" lon="8.834131">
        <ele>100.319172</ele>
        <time>2024-11-19T15:55:01.243Z</time>
      </trkpt>
      <trkpt lat="52.029236" lon="8.834175">
        <ele>100.656450</ele>
        <time>2024-11-19T15:55:19.870Z</time>
      </trkpt>
      <trkpt lat="52.029282" lon="8.833372">
        <ele>100.925252</ele>
        <time>2024-11-19T15:55:33.048Z</time>
      </trkpt>
      <trkpt lat="52.029344" lon="8.832636">
        <ele>101.053456</ele>
        <time>2024-11-19T15:55:44.682Z</time>
      </trkpt>
      <trkpt lat="52.029335" lon="8.832517">
        <ele>101.043743</ele>
        <time>2024-11-19T15:55:46.505Z</time>
      </trkpt>
      <trkpt lat="52.029631" lon="8.832532">
        <ele>101.004750</ele>
        <time>2024-11-19T15:55:53.844Z</time>
      </trkpt>
      <trkpt lat="52.029713" lon="8.832527">
        <ele>100.993946</ele>
        <time>2024-11-19T15:55:55.908Z</time>
      </trkpt>
      <trkpt lat="52.030870" lon="8.832809">
        <ele>100.839928</ele>
        <time>2024-11-19T15:56:26.796Z</time>
      </trkpt>
      <trkpt lat="52.031941" lon="8.833071">
        <ele>100.748720</ele>
        <time>2024-11-19T15:56:56.391Z</time>
      </trkpt>
      <trkpt lat="52.032018" lon="8.833046">
        <ele>100.742108</ele>
        <time>2024-11-19T15:56:58.487Z</time>
      </trkpt>
      <trkpt lat="52.032001" lon="8.832871">
        <ele>100.732929</ele>
        <time>2024-11-19T15:57:01.508Z</time>
      </trkpt>
      <trkpt lat="52.032005" lon="8.831031">
        <ele>100.301502</ele>
        <time>2024-11-19T15:57:31.213Z</time>
      </trkpt>
      <trkpt lat="52.032004" lon="8.830417">
        <ele>100.059674</ele>
        <time>2024-11-19T15:57:40.532Z</time>
      </trkpt>
      <trkpt lat="52.032009" lon="8.828834">
        <ele>99.409623</ele>
        <time>2024-11-19T15:58:04.563Z</time>
      </trkpt>
      <trkpt lat="52.032022" lon="8.828219">
        <ele>99.103408</ele>
        <time>2024-11-19T15:58:13.966Z</time>
      </trkpt>
      <trkpt lat="52.032072" lon="8.827756">
        <ele>98.869489</ele>
        <time>2024-11-19T15:58:21.180Z</time>
      </trkpt>
      <trkpt lat="52.032158" lon="8.827281">
        <ele>98.623099</ele>
        <time>2024-11-19T15:58:28.800Z</time>
      </trkpt>
      <trkpt lat="52.032529" lon="8.825348">
        <ele>97.949911</ele>
        <time>2024-11-19T15:58:59.690Z</time>
      </trkpt>
      <trkpt lat="52.032780" lon="8.824041">
        <ele>97.756764</ele>
        <time>2024-11-19T15:59:22.049Z</time>
      </trkpt>
      <trkpt lat="52.033027" lon="8.822780">
        <ele>97.872241</ele>
        <time>2024-11-19T15:59:46.693Z</time>
      </trkpt>
      <trkpt lat="52.033083" lon="8.822507">
        <ele>97.954653</ele>
        <time>2024-11-19T15:59:52.279Z</time>
      </trkpt>
      <trkpt lat="52.033135" lon="8.822457">
        <ele>97.982776</ele>
        <time>2024-11-19T15:59:54.213Z</time>
      </trkpt>
      <trkpt lat="52.033204" lon="8.822451">
        <ele>98.014942</ele>
        <time>2024-11-19T15:59:56.442Z</time>
      </trkpt>
      <trkpt lat="52.033307" lon="8.822339">
        <ele>98.072627</ele>
        <time>2024-11-19T16:00:00.649Z</time>
      </trkpt>
      <trkpt lat="52.033407" lon="8.822284">
        <ele>98.121769</ele>
        <time>2024-11-19T16:00:04.132Z</time>
      </trkpt>
      <trkpt lat="52.033632" lon="8.822347">
        <ele>98.228048</ele>
        <time>2024-11-19T16:00:11.575Z</time>
      </trkpt>
      <trkpt lat="52.034128" lon="8.822534">
        <ele>98.465063</ele>
        <time>2024-11-19T16:00:25.966Z</time>
      </trkpt>
      <trkpt lat="52.034197" lon="8.822502">
        <ele>98.498464</ele>
        <time>2024-11-19T16:00:27.984Z</time>
      </trkpt>
      <trkpt lat="52.034137" lon="8.822310">
        <ele>98.490895</ele>
        <time>2024-11-19T16:00:31.617Z</time>
      </trkpt>
      <trkpt lat="52.034079" lon="8.821936">
        <ele>98.457248</ele>
        <time>2024-11-19T16:00:37.838Z</time>
      </trkpt>
      <trkpt lat="52.034078" lon="8.821741">
        <ele>98.440237</ele>
        <time>2024-11-19T16:00:40.944Z</time>
      </trkpt>
      <trkpt lat="52.034077" lon="8.821400">
        <ele>98.410489</ele>
        <time>2024-11-19T16:00:46.311Z</time>
      </trkpt>
      <trkpt lat="52.034109" lon="8.821247">
        <ele>98.396392</ele>
        <time>2024-11-19T16:00:48.825Z</time>
      </trkpt>
      <trkpt lat="52.034190" lon="8.820879">
        <ele>98.362296</ele>
        <time>2024-11-19T16:00:54.865Z</time>
      </trkpt>
      <trkpt lat="52.034305" lon="8.820628">
        <ele>98.334995</ele>
        <time>2024-11-19T16:00:59.643Z</time>
      </trkpt>
      <trkpt lat="52.034438" lon="8.820426">
        <ele>98.309184</ele>
        <time>2024-11-19T16:01:04.195Z</time>
      </trkpt>
      <trkpt lat="52.034723" lon="8.820191">
        <ele>98.263868</ele>
        <time>2024-11-19T16:01:12.443Z</time>
      </trkpt>
      <trkpt lat="52.035028" lon="8.820079">
        <ele>98.316775</ele>
        <time>2024-11-19T16:01:20.729Z</time>
      </trkpt>
      <trkpt lat="52.035196" lon="8.820136">
        <ele>98.365298</ele>
        <time>2024-11-19T16:01:25.384Z</time>
      </trkpt>
      <trkpt lat="52.036060" lon="8.820428">
        <ele>98.614803</ele>
        <time>2024-11-19T16:01:50.256Z</time>
      </trkpt>
      <trkpt lat="52.036275" lon="8.820503">
        <ele>98.676975</ele>
        <time>2024-11-19T16:01:56.721Z</time>
      </trkpt>
      <trkpt lat="52.036559" lon="8.820610">
        <ele>98.759399</ele>
        <time>2024-11-19T16:02:05.436Z</time>
      </trkpt>
      <trkpt lat="52.037785" lon="8.821079">
        <ele>99.298205</ele>
        <time>2024-11-19T16:02:42.239Z</time>
      </trkpt>
      <trkpt lat="52.038120" lon="8.821212">
        <ele>99.445890</ele>
        <time>2024-11-19T16:02:51.961Z</time>
      </trkpt>
      <trkpt lat="52.038252" lon="8.821303">
        <ele>99.507295</ele>
        <time>2024-11-19T16:02:55.965Z</time>
      </trkpt>
      <trkpt lat="52.038437" lon="8.821490">
        <ele>99.499243</ele>
        <time>2024-11-19T16:03:01.981Z</time>
      </trkpt>
      <trkpt lat="52.038524" lon="8.821334">
        <ele>99.474108</ele>
        <time>2024-11-19T16:03:05.544Z</time>
      </trkpt>
      <trkpt lat="52.038806" lon="8.821440">
        <ele>99.417943</ele>
        <time>2024-11-19T16:03:13.364Z</time>
      </trkpt>
      <trkpt lat="52.039760" lon="8.821804">
        <ele>99.227790</ele>
        <time>2024-11-19T16:03:38.655Z</time>
      </trkpt>
      <trkpt lat="52.040221" lon="8.821980">
        <ele>98.858351</ele>
        <time>2024-11-19T16:03:49.995Z</time>
      </trkpt>
      <trkpt lat="52.040278" lon="8.821965">
        <ele>98.779424</ele>
        <time>2024-11-19T16:03:51.350Z</time>
      </trkpt>
      <trkpt lat="52.040358" lon="8.821850">
        <ele>98.633456</ele>
        <time>2024-11-19T16:03:53.825Z</time>
      </trkpt>
      <trkpt lat="52.041507" lon="8.817987">
        <ele>94.972870</ele>
        <time>2024-11-19T16:04:51.402Z</time>
      </trkpt>
      <trkpt lat="52.042243" lon="8.815364">
        <ele>93.219666</ele>
        <time>2024-11-19T16:05:32.659Z</time>
      </trkpt>
      <trkpt lat="52.042509" lon="8.814344">
        <ele>92.721741</ele>
        <time>2024-11-19T16:05:49.403Z</time>
      </trkpt>
      <trkpt lat="52.042697" lon="8.813768">
        <ele>92.582298</ele>
        <time>2024-11-19T16:05:59.344Z</time>
      </trkpt>
      <trkpt lat="52.042709" lon="8.813265">
        <ele>92.474654</ele>
        <time>2024-11-19T16:06:07.121Z</time>
      </trkpt>
      <trkpt lat="52.042734" lon="8.813155">
        <ele>92.449577</ele>
        <time>2024-11-19T16:06:08.936Z</time>
      </trkpt>
      <trkpt lat="52.042930" lon="8.812799">
        <ele>92.347405</ele>
        <time>2024-11-19T16:06:16.270Z</time>
      </trkpt>
      <trkpt lat="52.042994" lon="8.812611">
        <ele>92.301456</ele>
        <time>2024-11-19T16:06:19.557Z</time>
      </trkpt>
      <trkpt lat="52.043775" lon="8.809745">
        <ele>92.056128</ele>
        <time>2024-11-19T16:07:09.632Z</time>
      </trkpt>
      <trkpt lat="52.044167" lon="8.808118">
        <ele>92.259570</ele>
        <time>2024-11-19T16:07:39.909Z</time>
      </trkpt>
      <trkpt lat="52.044428" lon="8.806320">
        <ele>92.601875</ele>
        <time>2024-11-19T16:08:12.345Z</time>
      </trkpt>
      <trkpt lat="52.044531" lon="8.806372">
        <ele>92.611286</ele>
        <time>2024-11-19T16:08:15.316Z</time>
      </trkpt>
      <trkpt lat="52.044870" lon="8.806554">
        <ele>92.642438</ele>
        <time>2024-11-19T16:08:25.150Z</time>
      </trkpt>
      <trkpt lat="52.045362" lon="8.806795">
        <ele>92.687276</ele>
        <time>2024-11-19T16:08:39.107Z</time>
      </trkpt>
      <trkpt lat="52.045764" lon="8.805867">
        <ele>92.748192</ele>
        <time>2024-11-19T16:08:57.357Z</time>
      </trkpt>
      <trkpt lat="52.046375" lon="8.804810">
        <ele>92.635937</ele>
        <time>2024-11-19T16:09:21.826Z</time>
      </trkpt>
      <trkpt lat="52.047692" lon="8.802532">
        <ele>91.994782</ele>
        <time>2024-11-19T16:10:10.239Z</time>
      </trkpt>
      <trkpt lat="52.047720" lon="8.802443">
        <ele>91.962257</ele>
        <time>2024-11-19T16:10:11.756Z</time>
      </trkpt>
      <trkpt lat="52.047789" lon="8.802393">
        <ele>91.922294</ele>
        <time>2024-11-19T16:10:13.614Z</time>
      </trkpt>
      <trkpt lat="52.048429" lon="8.801309">
        <ele>91.457274</ele>
        <time>2024-11-19T16:10:35.729Z</time>
      </trkpt>
      <trkpt lat="52.048537" lon="8.801124">
        <ele>91.392257</ele>
        <time>2024-11-19T16:10:39.288Z</time>
      </trkpt>
      <trkpt lat="52.048662" lon="8.800913">
        <ele>91.317581</ele>
        <time>2024-11-19T16:10:43.486Z</time>
      </trkpt>
      <trkpt lat="52.048770" lon="8.800731">
        <ele>91.253117</ele>
        <time>2024-11-19T16:10:47.327Z</time>
      </trkpt>
      <trkpt lat="52.048961" lon="8.800406">
        <ele>91.138535</ele>
        <time>2024-11-19T16:10:54.519Z</time>
      </trkpt>
      <trkpt lat="52.049205" lon="8.799966">
        <ele>90.987522</ele>
        <time>2024-11-19T16:11:04.595Z</time>
      </trkpt>
      <trkpt lat="52.049322" lon="8.799713">
        <ele>90.906838</ele>
        <time>2024-11-19T16:11:09.805Z</time>
      </trkpt>
      <trkpt lat="52.049457" lon="8.799284">
        <ele>90.766425</ele>
        <time>2024-11-19T16:11:17.142Z</time>
      </trkpt>
      <trkpt lat="52.049546" lon="8.798846">
        <ele>90.502692</ele>
        <time>2024-11-19T16:11:23.941Z</time>
      </trkpt>
      <trkpt lat="52.049674" lon="8.797973">
        <ele>89.989581</ele>
        <time>2024-11-19T16:11:37.506Z</time>
      </trkpt>
      <trkpt lat="52.049772" lon="8.797219">
        <ele>89.548975</ele>
        <time>2024-11-19T16:11:48.564Z</time>
      </trkpt>
      <trkpt lat="52.050007" lon="8.795478">
        <ele>88.347772</ele>
        <time>2024-11-19T16:12:12.220Z</time>
      </trkpt>
      <trkpt lat="52.050159" lon="8.794426">
        <ele>87.541166</ele>
        <time>2024-11-19T16:12:27.096Z</time>
      </trkpt>
      <trkpt lat="52.050267" lon="8.793653">
        <ele>86.949489</ele>
        <time>2024-11-19T16:12:38.418Z</time>
      </trkpt>
      <trkpt lat="52.050735" lon="8.790267">
        <ele>86.566087</ele>
        <time>2024-11-19T16:13:35.619Z</time>
      </trkpt>
      <trkpt lat="52.050906" lon="8.789054">
        <ele>86.310237</ele>
        <time>2024-11-19T16:13:54.901Z</time>
      </trkpt>
      <trkpt lat="52.051105" lon="8.787483">
        <ele>85.830733</ele>
        <time>2024-11-19T16:14:18.878Z</time>
      </trkpt>
      <trkpt lat="52.051083" lon="8.787252">
        <ele>85.706672</ele>
        <time>2024-11-19T16:14:22.395Z</time>
      </trkpt>
      <trkpt lat="52.050991" lon="8.787299">
        <ele>85.623446</ele>
        <time>2024-11-19T16:14:24.791Z</time>
      </trkpt>
      <trkpt lat="52.050883" lon="8.787259">
        <ele>85.527851</ele>
        <time>2024-11-19T16:14:27.512Z</time>
      </trkpt>
      <trkpt lat="52.050870" lon="8.787148">
        <ele>85.467880</ele>
        <time>2024-11-19T16:14:29.220Z</time>
      </trkpt>
      <trkpt lat="52.050858" lon="8.787046">
        <ele>85.412763</ele>
        <time>2024-11-19T16:14:30.777Z</time>
      </trkpt>
      <trkpt lat="52.050909" lon="8.787028">
        <ele>85.367723</ele>
        <time>2024-11-19T16:14:32.057Z</time>
      </trkpt>
      <trkpt lat="52.050949" lon="8.786970">
        <ele>85.321471</ele>
        <time>2024-11-19T16:14:33.339Z</time>
      </trkpt>
      <trkpt lat="52.050955" lon="8.786896">
        <ele>85.281856</ele>
        <time>2024-11-19T16:14:34.455Z</time>
      </trkpt>
      <trkpt lat="52.050925" lon="8.786816">
        <ele>85.232126</ele>
        <time>2024-11-19T16:14:35.834Z</time>
      </trkpt>
      <trkpt lat="52.050785" lon="8.786737">
        <ele>85.104232</ele>
        <time>2024-11-19T16:14:39.377Z</time>
      </trkpt>
      <trkpt lat="52.050291" lon="8.786863">
        <ele>84.672677</ele>
        <time>2024-11-19T16:14:51.057Z</time>
      </trkpt>
      <trkpt lat="52.050064" lon="8.785576">
        <ele>83.303679</ele>
        <time>2024-11-19T16:15:08.997Z</time>
      </trkpt>
      <trkpt lat="52.050099" lon="8.784877">
        <ele>82.494455</ele>
        <time>2024-11-19T16:15:17.889Z</time>
      </trkpt>
      <trkpt lat="52.049795" lon="8.784768">
        <ele>81.910360</ele>
        <time>2024-11-19T16:15:24.344Z</time>
      </trkpt>
      <trkpt lat="52.049535" lon="8.784535">
        <ele>81.353345</ele>
        <time>2024-11-19T16:15:30.575Z</time>
      </trkpt>
      <trkpt lat="52.049445" lon="8.784454">
        <ele>81.160338</ele>
        <time>2024-11-19T16:15:32.747Z</time>
      </trkpt>
      <trkpt lat="52.049308" lon="8.784305">
        <ele>80.908904</ele>
        <time>2024-11-19T16:15:36.255Z</time>
      </trkpt>
      <trkpt lat="52.049293" lon="8.784281">
        <ele>80.877107</ele>
        <time>2024-11-19T16:15:36.699Z</time>
      </trkpt>
      <trkpt lat="52.049269" lon="8.784150">
        <ele>80.750088</ele>
        <time>2024-11-19T16:15:38.491Z</time>
      </trkpt>
      <trkpt lat="52.049303" lon="8.783988">
        <ele>80.591024</ele>
        <time>2024-11-19T16:15:40.771Z</time>
      </trkpt>
      <trkpt lat="52.049580" lon="8.783484">
        <ele>79.962907</ele>
        <time>2024-11-19T16:15:49.830Z</time>
      </trkpt>
      <trkpt lat="52.049605" lon="8.783397">
        <ele>79.873672</ele>
        <time>2024-11-19T16:15:51.092Z</time>
      </trkpt>
      <trkpt lat="52.049731" lon="8.783099">
        <ele>79.537622</ele>
        <time>2024-11-19T16:15:55.969Z</time>
      </trkpt>
      <trkpt lat="52.049879" lon="8.782584">
        <ele>79.009389</ele>
        <time>2024-11-19T16:16:03.743Z</time>
      </trkpt>
      <trkpt lat="52.050107" lon="8.781951">
        <ele>78.395444</ele>
        <time>2024-11-19T16:16:14.007Z</time>
      </trkpt>
      <trkpt lat="52.050126" lon="8.781905">
        <ele>78.377954</ele>
        <time>2024-11-19T16:16:14.786Z</time>
      </trkpt>
      <trkpt lat="52.050477" lon="8.781047">
        <ele>78.052685</ele>
        <time>2024-11-19T16:16:29.875Z</time>
      </trkpt>
      <trkpt lat="52.050985" lon="8.779696">
        <ele>77.552860</ele>
        <time>2024-11-19T16:16:54.488Z</time>
      </trkpt>
      <trkpt lat="52.051497" lon="8.778173">
        <ele>77.606679</ele>
        <time>2024-11-19T16:17:23.720Z</time>
      </trkpt>
      <trkpt lat="52.051879" lon="8.776755">
        <ele>77.642872</ele>
        <time>2024-11-19T16:17:50.088Z</time>
      </trkpt>
      <trkpt lat="52.052106" lon="8.775691">
        <ele>77.393900</ele>
        <time>2024-11-19T16:18:07.824Z</time>
      </trkpt>
      <trkpt lat="52.052201" lon="8.775162">
        <ele>77.272070</ele>
        <time>2024-11-19T16:18:16.041Z</time>
      </trkpt>
      <trkpt lat="52.052363" lon="8.773977">
        <ele>77.019513</ele>
        <time>2024-11-19T16:18:34.310Z</time>
      </trkpt>
      <trkpt lat="52.052382" lon="8.773496">
        <ele>76.955195</ele>
        <time>2024-11-19T16:18:41.554Z</time>
      </trkpt>
      <trkpt lat="52.052582" lon="8.772703">
        <ele>76.840820</ele>
        <time>2024-11-19T16:18:54.387Z</time>
      </trkpt>
      <trkpt lat="52.052646" lon="8.772529">
        <ele>76.813765</ele>
        <time>2024-11-19T16:18:57.541Z</time>
      </trkpt>
      <trkpt lat="52.052685" lon="8.771885">
        <ele>76.727412</ele>
        <time>2024-11-19T16:19:07.906Z</time>
      </trkpt>
      <trkpt lat="52.052702" lon="8.771449">
        <ele>76.669114</ele>
        <time>2024-11-19T16:19:15.391Z</time>
      </trkpt>
      <trkpt lat="52.052712" lon="8.770329">
        <ele>77.362450</ele>
        <time>2024-11-19T16:19:35.666Z</time>
      </trkpt>
      <trkpt lat="52.052664" lon="8.768967">
        <ele>78.328577</ele>
        <time>2024-11-19T16:20:03.972Z</time>
      </trkpt>
      <trkpt lat="52.052491" lon="8.766835">
        <ele>79.981312</ele>
        <time>2024-11-19T16:20:50.347Z</time>
      </trkpt>
      <trkpt lat="52.052268" lon="8.765023">
        <ele>81.087980</ele>
        <time>2024-11-19T16:21:25.240Z</time>
      </trkpt>
      <trkpt lat="52.051973" lon="8.765114">
        <ele>81.138643</ele>
        <time>2024-11-19T16:21:33.552Z</time>
      </trkpt>
      <trkpt lat="52.051062" lon="8.765221">
        <ele>81.292754</ele>
        <time>2024-11-19T16:21:57.337Z</time>
      </trkpt>
      <trkpt lat="52.050668" lon="8.765268">
        <ele>81.342196</ele>
        <time>2024-11-19T16:22:07.821Z</time>
      </trkpt>
      <trkpt lat="52.050426" lon="8.765509">
        <ele>81.351383</ele>
        <time>2024-11-19T16:22:15.684Z</time>
      </trkpt>
      <trkpt lat="52.050187" lon="8.765780">
        <ele>81.360816</ele>
        <time>2024-11-19T16:22:23.981Z</time>
      </trkpt>
      <trkpt lat="52.050060" lon="8.765919">
        <ele>81.365772</ele>
        <time>2024-11-19T16:22:28.352Z</time>
      </trkpt>
      <trkpt lat="52.049745" lon="8.766200">
        <ele>81.377404</ele>
        <time>2024-11-19T16:22:39.438Z</time>
      </trkpt>
      <trkpt lat="52.049662" lon="8.766292">
        <ele>81.380656</ele>
        <time>2024-11-19T16:22:42.455Z</time>
      </trkpt>
      <trkpt lat="52.049627" lon="8.766373">
        <ele>81.382627</ele>
        <time>2024-11-19T16:22:44.291Z</time>
      </trkpt>
      <trkpt lat="52.049619" lon="8.766740">
        <ele>81.389938</ele>
        <time>2024-11-19T16:22:50.899Z</time>
      </trkpt>
      <trkpt lat="52.049625" lon="8.767099">
        <ele>81.376614</ele>
        <time>2024-11-19T16:22:57.193Z</time>
      </trkpt>
      <trkpt lat="52.049570" lon="8.767782">
        <ele>81.015955</ele>
        <time>2024-11-19T16:23:08.682Z</time>
      </trkpt>
      <trkpt lat="52.048690" lon="8.769803">
        <ele>79.965242</ele>
        <time>2024-11-19T16:23:47.670Z</time>
      </trkpt>
      <trkpt lat="52.048544" lon="8.770628">
        <ele>80.274682</ele>
        <time>2024-11-19T16:24:03.103Z</time>
      </trkpt>
      <trkpt lat="52.047807" lon="8.771325">
        <ele>80.774392</ele>
        <time>2024-11-19T16:24:33.540Z</time>
      </trkpt>
      <trkpt lat="52.047547" lon="8.771680">
        <ele>80.999920</ele>
        <time>2024-11-19T16:24:46.413Z</time>
      </trkpt>
      <trkpt lat="52.047436" lon="8.771874">
        <ele>81.142218</ele>
        <time>2024-11-19T16:24:52.457Z</time>
      </trkpt>
      <trkpt lat="52.047242" lon="8.772283">
        <ele>81.419601</ele>
        <time>2024-11-19T16:25:02.989Z</time>
      </trkpt>
      <trkpt lat="52.045980" lon="8.771364">
        <ele>82.604035</ele>
        <time>2024-11-19T16:25:43.633Z</time>
      </trkpt>
      <trkpt lat="52.045804" lon="8.771236">
        <ele>82.744157</ele>
        <time>2024-11-19T16:25:48.953Z</time>
      </trkpt>
      <trkpt lat="52.043363" lon="8.769507">
        <ele>85.226858</ele>
        <time>2024-11-19T16:27:10.813Z</time>
      </trkpt>
      <trkpt lat="52.039468" lon="8.766535">
        <ele>92.721693</ele>
        <time>2024-11-19T16:29:43.749Z</time>
      </trkpt>
      <trkpt lat="52.038879" lon="8.766299">
        <ele>93.383524</ele>
        <time>2024-11-19T16:30:05.753Z</time>
      </trkpt>
      <trkpt lat="52.038727" lon="8.766354">
        <ele>93.553415</ele>
        <time>2024-11-19T16:30:11.132Z</time>
      </trkpt>
      <trkpt lat="52.038657" lon="8.766434">
        <ele>93.646769</ele>
        <time>2024-11-19T16:30:14.022Z</time>
      </trkpt>
      <trkpt lat="52.037533" lon="8.768234">
        <ele>94.554622</ele>
        <time>2024-11-19T16:30:57.800Z</time>
      </trkpt>
      <trkpt lat="52.036742" lon="8.769020">
        <ele>94.557408</ele>
        <time>2024-11-19T16:31:21.441Z</time>
      </trkpt>
      <trkpt lat="52.036260" lon="8.769491">
        <ele>94.734043</ele>
        <time>2024-11-19T16:31:36.543Z</time>
      </trkpt>
      <trkpt lat="52.036185" lon="8.769562">
        <ele>94.768929</ele>
        <time>2024-11-19T16:31:38.978Z</time>
      </trkpt>
      <trkpt lat="52.036055" lon="8.769690">
        <ele>94.830021</ele>
        <time>2024-11-19T16:31:43.329Z</time>
      </trkpt>
      <trkpt lat="52.035825" lon="8.769908">
        <ele>94.937037</ele>
        <time>2024-11-19T16:31:51.149Z</time>
      </trkpt>
      <trkpt lat="52.033415" lon="8.772220">
        <ele>96.414880</ele>
        <time>2024-11-19T16:33:14.632Z</time>
      </trkpt>
      <trkpt lat="52.031950" lon="8.773632">
        <ele>96.664639</ele>
        <time>2024-11-19T16:34:00.053Z</time>
      </trkpt>
      <trkpt lat="52.030915" lon="8.774617">
        <ele>97.015341</ele>
        <time>2024-11-19T16:34:33.846Z</time>
      </trkpt>
      <trkpt lat="52.029152" lon="8.776322">
        <ele>97.792042</ele>
        <time>2024-11-19T16:35:33.075Z</time>
      </trkpt>
      <trkpt lat="52.029092" lon="8.776101">
        <ele>97.853005</ele>
        <time>2024-11-19T16:35:37.117Z</time>
      </trkpt>
      <trkpt lat="52.029026" lon="8.776161">
        <ele>97.884025</ele>
        <time>2024-11-19T16:35:39.142Z</time>
      </trkpt>
      <trkpt lat="52.028977" lon="8.776333">
        <ele>97.928182</ele>
        <time>2024-11-19T16:35:42.371Z</time>
      </trkpt>
      <trkpt lat="52.028889" lon="8.776424">
        <ele>97.962165</ele>
        <time>2024-11-19T16:35:45.385Z</time>
      </trkpt>
      <trkpt lat="52.028245" lon="8.777037">
        <ele>98.205333</ele>
        <time>2024-11-19T16:36:06.694Z</time>
      </trkpt>
      <trkpt lat="52.028175" lon="8.777105">
        <ele>98.231904</ele>
        <time>2024-11-19T16:36:08.898Z</time>
      </trkpt>
      <trkpt lat="52.027799" lon="8.777474">
        <ele>98.375016</ele>
        <time>2024-11-19T16:36:21.053Z</time>
      </trkpt>
      <trkpt lat="52.027104" lon="8.778140">
        <ele>98.705743</ele>
        <time>2024-11-19T16:36:44.425Z</time>
      </trkpt>
      <trkpt lat="52.026598" lon="8.778676">
        <ele>98.999378</ele>
        <time>2024-11-19T16:37:01.448Z</time>
      </trkpt>
      <trkpt lat="52.026429" lon="8.778915">
        <ele>99.108289</ele>
        <time>2024-11-19T16:37:07.884Z</time>
      </trkpt>
      <trkpt lat="52.025784" lon="8.779483">
        <ele>99.464410</ele>
        <time>2024-11-19T16:37:29.930Z</time>
      </trkpt>
      <trkpt lat="52.025749" lon="8.779449">
        <ele>99.484118</ele>
        <time>2024-11-19T16:37:31.164Z</time>
      </trkpt>
      <trkpt lat="52.025016" lon="8.780138">
        <ele>99.893396</ele>
        <time>2024-11-19T16:37:56.351Z</time>
      </trkpt>
      <trkpt lat="52.024541" lon="8.780603">
        <ele>100.161416</ele>
        <time>2024-11-19T16:38:11.966Z</time>
      </trkpt>
      <trkpt lat="52.023497" lon="8.781603">
        <ele>100.394044</ele>
        <time>2024-11-19T16:38:44.316Z</time>
      </trkpt>
      <trkpt lat="52.023068" lon="8.782020">
        <ele>100.466165</ele>
        <time>2024-11-19T16:38:57.740Z</time>
      </trkpt>
      <trkpt lat="52.023013" lon="8.782109">
        <ele>100.477363</ele>
        <time>2024-11-19T16:38:59.906Z</time>
      </trkpt>
      <trkpt lat="52.022991" lon="8.782146">
        <ele>100.481931</ele>
        <time>2024-11-19T16:39:00.806Z</time>
      </trkpt>
      <trkpt lat="52.022862" lon="8.782263">
        <ele>100.503245</ele>
        <time>2024-11-19T16:39:05.050Z</time>
      </trkpt>
      <trkpt lat="52.022561" lon="8.782477">
        <ele>100.813472</ele>
        <time>2024-11-19T16:39:14.816Z</time>
      </trkpt>
      <trkpt lat="52.021984" lon="8.783039">
        <ele>101.449231</ele>
        <time>2024-11-19T16:39:35.445Z</time>
      </trkpt>
      <trkpt lat="52.021508" lon="8.781672">
        <ele>102.362414</ele>
        <time>2024-11-19T16:40:07.653Z</time>
      </trkpt>
      <trkpt lat="52.021272" lon="8.781255">
        <ele>102.691331</ele>
        <time>2024-11-19T16:40:18.970Z</time>
      </trkpt>
      <trkpt lat="52.021197" lon="8.781183">
        <ele>102.773514</ele>
        <time>2024-11-19T16:40:21.789Z</time>
      </trkpt>
      <trkpt lat="52.021061" lon="8.781125">
        <ele>102.906169</ele>
        <time>2024-11-19T16:40:26.306Z</time>
      </trkpt>
      <trkpt lat="52.019785" lon="8.780064">
        <ele>103.710750</ele>
        <time>2024-11-19T16:41:09.997Z</time>
      </trkpt>
      <trkpt lat="52.019663" lon="8.779909">
        <ele>103.633554</ele>
        <time>2024-11-19T16:41:14.289Z</time>
      </trkpt>
      <trkpt lat="52.019247" lon="8.778848">
        <ele>103.247630</ele>
        <time>2024-11-19T16:41:33.422Z</time>
      </trkpt>
      <trkpt lat="52.019114" lon="8.778595">
        <ele>103.145556</ele>
        <time>2024-11-19T16:41:38.004Z</time>
      </trkpt>
      <trkpt lat="52.018964" lon="8.778407">
        <ele>103.051126</ele>
        <time>2024-11-19T16:41:42.144Z</time>
      </trkpt>
      <trkpt lat="52.018461" lon="8.778122">
        <ele>102.114646</ele>
        <time>2024-11-19T16:41:53.354Z</time>
      </trkpt>
      <trkpt lat="52.018297" lon="8.777929">
        <ele>101.702930</ele>
        <time>2024-11-19T16:41:57.515Z</time>
      </trkpt>
      <trkpt lat="52.018194" lon="8.777604">
        <ele>101.245508</ele>
        <time>2024-11-19T16:42:02.103Z</time>
      </trkpt>
      <trkpt lat="52.018104" lon="8.777098">
        <ele>100.586447</ele>
        <time>2024-11-19T16:42:08.720Z</time>
      </trkpt>
      <trkpt lat="52.018071" lon="8.776684">
        <ele>100.064089</ele>
        <time>2024-11-19T16:42:14.039Z</time>
      </trkpt>
      <trkpt lat="52.018041" lon="8.773957">
        <ele>97.383704</ele>
        <time>2024-11-19T16:42:50.583Z</time>
      </trkpt>
      <trkpt lat="52.018055" lon="8.773021">
        <ele>96.615565</ele>
        <time>2024-11-19T16:43:03.781Z</time>
      </trkpt>
      <trkpt lat="52.018234" lon="8.772050">
        <ele>96.206471</ele>
        <time>2024-11-19T16:43:18.601Z</time>
      </trkpt>
      <trkpt lat="52.017918" lon="8.772297">
        <ele>95.976505</ele>
        <time>2024-11-19T16:43:27.155Z</time>
      </trkpt>
      <trkpt lat="52.017798" lon="8.772314">
        <ele>95.897509</ele>
        <time>2024-11-19T16:43:30.108Z</time>
      </trkpt>
      <trkpt lat="52.016376" lon="8.771791">
        <ele>94.953678</ele>
        <time>2024-11-19T16:44:06.668Z</time>
      </trkpt>
      <trkpt lat="52.015980" lon="8.771800">
        <ele>94.699645</ele>
        <time>2024-11-19T16:44:16.109Z</time>
      </trkpt>
      <trkpt lat="52.015981" lon="8.771352">
        <ele>94.522788</ele>
        <time>2024-11-19T16:44:22.586Z</time>
      </trkpt>
      <trkpt lat="52.015976" lon="8.770824">
        <ele>94.314294</ele>
        <time>2024-11-19T16:44:30.114Z</time>
      </trkpt>
      <trkpt lat="52.015970" lon="8.769118">
        <ele>93.640194</ele>
        <time>2024-11-19T16:44:54.243Z</time>
      </trkpt>
      <trkpt lat="52.015930" lon="8.767992">
        <ele>93.195233</ele>
        <time>2024-11-19T16:45:12.224Z</time>
      </trkpt>
      <trkpt lat="52.015859" lon="8.767183">
        <ele>93.261442</ele>
        <time>2024-11-19T16:45:26.189Z</time>
      </trkpt>
      <trkpt lat="52.015827" lon="8.766836">
        <ele>93.289871</ele>
        <time>2024-11-19T16:45:32.319Z</time>
      </trkpt>
      <trkpt lat="52.015678" lon="8.766831">
        <ele>93.309490</ele>
        <time>2024-11-19T16:45:36.590Z</time>
      </trkpt>
      <trkpt lat="52.013087" lon="8.768639">
        <ele>93.488448</ele>
        <time>2024-11-19T16:46:53.749Z</time>
      </trkpt>
      <trkpt lat="52.012887" lon="8.768844">
        <ele>93.240882</ele>
        <time>2024-11-19T16:46:59.946Z</time>
      </trkpt>
      <trkpt lat="52.012868" lon="8.768769">
        <ele>93.188622</ele>
        <time>2024-11-19T16:47:01.236Z</time>
      </trkpt>
      <trkpt lat="52.012823" lon="8.768732">
        <ele>93.135822</ele>
        <time>2024-11-19T16:47:02.534Z</time>
      </trkpt>
      <trkpt lat="52.012489" lon="8.766997">
        <ele>91.964454</ele>
        <time>2024-11-19T16:47:27.890Z</time>
      </trkpt>
      <trkpt lat="52.012299" lon="8.766232">
        <ele>91.237560</ele>
        <time>2024-11-19T16:47:38.569Z</time>
      </trkpt>
      <trkpt lat="52.012513" lon="8.765920">
        <ele>90.717293</ele>
        <time>2024-11-19T16:47:44.581Z</time>
      </trkpt>
      <trkpt lat="52.012395" lon="8.765889">
        <ele>90.501005</ele>
        <time>2024-11-19T16:47:49.087Z</time>
      </trkpt>
      <trkpt lat="52.012038" lon="8.765826">
        <ele>89.851235</ele>
        <time>2024-11-19T16:48:02.516Z</time>
      </trkpt>
      <trkpt lat="52.010900" lon="8.765871">
        <ele>88.125111</ele>
        <time>2024-11-19T16:48:46.581Z</time>
      </trkpt>
      <trkpt lat="52.010473" lon="8.765942">
        <ele>87.744013</ele>
        <time>2024-11-19T16:49:03.674Z</time>
      </trkpt>
      <trkpt lat="52.010275" lon="8.765846">
        <ele>87.560555</ele>
        <time>2024-11-19T16:49:12.003Z</time>
      </trkpt>
      <trkpt lat="52.010420" lon="8.764987">
        <ele>87.073782</ele>
        <time>2024-11-19T16:49:34.670Z</time>
      </trkpt>
      <trkpt lat="52.010328" lon="8.764730">
        <ele>86.911306</ele>
        <time>2024-11-19T16:49:42.564Z</time>
      </trkpt>
      <trkpt lat="52.010124" lon="8.764631">
        <ele>86.929523</ele>
        <time>2024-11-19T16:49:52.065Z</time>
      </trkpt>
      <trkpt lat="52.009935" lon="8.764653">
        <ele>87.035149</ele>
        <time>2024-11-19T16:50:00.951Z</time>
      </trkpt>
      <trkpt lat="52.008904" lon="8.764775">
        <ele>87.611389</ele>
        <time>2024-11-19T16:50:51.647Z</time>
      </trkpt>
      <trkpt lat="52.007759" lon="8.764751">
        <ele>87.614689</ele>
        <time>2024-11-19T16:51:45.202Z</time>
      </trkpt>
      <trkpt lat="52.007561" lon="8.764784">
        <ele>87.548386</ele>
        <time>2024-11-19T16:51:53.718Z</time>
      </trkpt>
      <trkpt lat="52.007396" lon="8.764912">
        <ele>87.487477</ele>
        <time>2024-11-19T16:52:01.397Z</time>
      </trkpt>
      <trkpt lat="52.007019" lon="8.765320">
        <ele>87.336577</ele>
        <time>2024-11-19T16:52:19.817Z</time>
      </trkpt>
      <trkpt lat="52.006702" lon="8.765481">
        <ele>87.224403</ele>
        <time>2024-11-19T16:52:32.919Z</time>
      </trkpt>
      <trkpt lat="52.006550" lon="8.765663">
        <ele>87.157939</ele>
        <time>2024-11-19T16:52:40.344Z</time>
      </trkpt>
      <trkpt lat="52.006431" lon="8.765963">
        <ele>87.080611</ele>
        <time>2024-11-19T16:52:49.122Z</time>
      </trkpt>
      <trkpt lat="52.006279" lon="8.766790">
        <ele>86.893607</ele>
        <time>2024-11-19T16:53:11.131Z</time>
      </trkpt>
      <trkpt lat="52.006167" lon="8.767144">
        <ele>86.807367</ele>
        <time>2024-11-19T16:53:21.838Z</time>
      </trkpt>
      <trkpt lat="52.005804" lon="8.768066">
        <ele>86.792948</ele>
        <time>2024-11-19T16:53:53.415Z</time>
      </trkpt>
      <trkpt lat="52.005731" lon="8.768174">
        <ele>86.913797</ele>
        <time>2024-11-19T16:53:58.256Z</time>
      </trkpt>
      <trkpt lat="52.004909" lon="8.768600">
        <ele>87.969839</ele>
        <time>2024-11-19T16:54:42.527Z</time>
      </trkpt>
      <trkpt lat="52.004636" lon="8.768766">
        <ele>88.326617</ele>
        <time>2024-11-19T16:54:57.652Z</time>
      </trkpt>
      <trkpt lat="52.004529" lon="8.768831">
        <ele>88.466437</ele>
        <time>2024-11-19T16:55:03.528Z</time>
      </trkpt>
      <trkpt lat="52.003658" lon="8.769560">
        <ele>89.432667</ele>
        <time>2024-11-19T16:55:53.118Z</time>
      </trkpt>
      <trkpt lat="52.003502" lon="8.769807">
        <ele>89.625710</ele>
        <time>2024-11-19T16:56:03.736Z</time>
      </trkpt>
      <trkpt lat="52.003294" lon="8.770459">
        <ele>90.026311</ele>
        <time>2024-11-19T16:56:25.270Z</time>
      </trkpt>
      <trkpt lat="52.002951" lon="8.771124">
        <ele>90.508711</ele>
        <time>2024-11-19T16:56:50.100Z</time>
      </trkpt>
      <trkpt lat="52.002858" lon="8.771382">
        <ele>90.689460</ele>
        <time>2024-11-19T16:56:58.695Z</time>
      </trkpt>
      <trkpt lat="52.002838" lon="8.771607">
        <ele>90.826899</ele>
        <time>2024-11-19T16:57:05.444Z</time>
      </trkpt>
      <trkpt lat="52.002924" lon="8.771886">
        <ele>91.015535</ele>
        <time>2024-11-19T16:57:14.816Z</time>
      </trkpt>
      <trkpt lat="52.003050" lon="8.772154">
        <ele>91.219404</ele>
        <time>2024-11-19T16:57:25.050Z</time>
      </trkpt>
      <trkpt lat="52.003189" lon="8.772369">
        <ele>91.407894</ele>
        <time>2024-11-19T16:57:34.593Z</time>
      </trkpt>
      <trkpt lat="52.003279" lon="8.772448">
        <ele>91.508356</ele>
        <time>2024-11-19T16:57:39.728Z</time>
      </trkpt>
      <trkpt lat="52.003182" lon="8.772768">
        <ele>91.723997</ele>
        <time>2024-11-19T16:57:50.748Z</time>
      </trkpt>
      <trkpt lat="52.003147" lon="8.773058">
        <ele>91.902657</ele>
        <time>2024-11-19T16:57:59.935Z</time>
      </trkpt>
      <trkpt lat="52.002931" lon="8.773667">
        <ele>92.258521</ele>
        <time>2024-11-19T16:58:22.052Z</time>
      </trkpt>
      <trkpt lat="52.002817" lon="8.773968">
        <ele>92.371101</ele>
        <time>2024-11-19T16:58:33.159Z</time>
      </trkpt>
      <trkpt lat="52.002376" lon="8.774847">
        <ele>92.732328</ele>
        <time>2024-11-19T16:59:06.986Z</time>
      </trkpt>
      <trkpt lat="52.002165" lon="8.775330">
        <ele>92.920998</ele>
        <time>2024-11-19T16:59:23.293Z</time>
      </trkpt>
      <trkpt lat="52.001927" lon="8.775748">
        <ele>93.102380</ele>
        <time>2024-11-19T16:59:38.485Z</time>
      </trkpt>
      <trkpt lat="52.001696" lon="8.776049">
        <ele>92.961634</ele>
        <time>2024-11-19T16:59:50.968Z</time>
      </trkpt>
      <trkpt lat="52.001471" lon="8.776285">
        <ele>92.815855</ele>
        <time>2024-11-19T17:00:02.004Z</time>
      </trkpt>
      <trkpt lat="52.001253" lon="8.776474">
        <ele>92.681357</ele>
        <time>2024-11-19T17:00:12.032Z</time>
      </trkpt>
      <trkpt lat="52.000606" lon="8.777036">
        <ele>92.282010</ele>
        <time>2024-11-19T17:00:42.029Z</time>
      </trkpt>
      <trkpt lat="52.000441" lon="8.777068">
        <ele>92.191564</ele>
        <time>2024-11-19T17:00:49.088Z</time>
      </trkpt>
      <trkpt lat="52.000282" lon="8.777004">
        <ele>92.195312</ele>
        <time>2024-11-19T17:00:56.237Z</time>
      </trkpt>
      <trkpt lat="52.000124" lon="8.776896">
        <ele>92.382039</ele>
        <time>2024-11-19T17:01:04.033Z</time>
      </trkpt>
      <trkpt lat="51.999879" lon="8.776639">
        <ele>92.699732</ele>
        <time>2024-11-19T17:01:17.833Z</time>
      </trkpt>
      <trkpt lat="51.999642" lon="8.776467">
        <ele>92.982492</ele>
        <time>2024-11-19T17:01:30.779Z</time>
      </trkpt>
      <trkpt lat="51.999397" lon="8.776371">
        <ele>93.257024</ele>
        <time>2024-11-19T17:01:43.778Z</time>
      </trkpt>
      <trkpt lat="51.999133" lon="8.776285">
        <ele>93.550324</ele>
        <time>2024-11-19T17:01:58.118Z</time>
      </trkpt>
      <trkpt lat="51.998575" lon="8.776293">
        <ele>94.171442</ele>
        <time>2024-11-19T17:02:28.024Z</time>
      </trkpt>
      <trkpt lat="51.998317" lon="8.776389">
        <ele>94.518112</ele>
        <time>2024-11-19T17:02:41.848Z</time>
      </trkpt>
      <trkpt lat="51.998113" lon="8.776539">
        <ele>94.811405</ele>
        <time>2024-11-19T17:02:53.316Z</time>
      </trkpt>
      <trkpt lat="51.997980" lon="8.776732">
        <ele>95.045001</ele>
        <time>2024-11-19T17:03:02.417Z</time>
      </trkpt>
      <trkpt lat="51.997895" lon="8.776936">
        <ele>95.243637</ele>
        <time>2024-11-19T17:03:10.212Z</time>
      </trkpt>
      <trkpt lat="51.997835" lon="8.777215">
        <ele>95.481952</ele>
        <time>2024-11-19T17:03:19.416Z</time>
      </trkpt>
      <trkpt lat="51.997805" lon="8.777519">
        <ele>95.730228</ele>
        <time>2024-11-19T17:03:28.872Z</time>
      </trkpt>
      <trkpt lat="51.997704" lon="8.777964">
        <ele>96.112683</ele>
        <time>2024-11-19T17:03:43.315Z</time>
      </trkpt>
      <trkpt lat="51.997641" lon="8.777924">
        <ele>96.201278</ele>
        <time>2024-11-19T17:03:45.457Z</time>
      </trkpt>
      <trkpt lat="51.997519" lon="8.777820">
        <ele>96.381740</ele>
        <time>2024-11-19T17:03:49.801Z</time>
      </trkpt>
      <trkpt lat="51.997386" lon="8.777722">
        <ele>96.501612</ele>
        <time>2024-11-19T17:03:54.330Z</time>
      </trkpt>
      <trkpt lat="51.997273" lon="8.777639">
        <ele>96.570982</ele>
        <time>2024-11-19T17:03:58.478Z</time>
      </trkpt>
      <trkpt lat="51.997158" lon="8.777503">
        <ele>96.650552</ele>
        <time>2024-11-19T17:04:03.208Z</time>
      </trkpt>
      <trkpt lat="51.997064" lon="8.777706">
        <ele>96.738029</ele>
        <time>2024-11-19T17:04:07.933Z</time>
      </trkpt>
      <trkpt lat="51.996767" lon="8.778352">
        <ele>97.015688</ele>
        <time>2024-11-19T17:04:22.983Z</time>
      </trkpt>
      <trkpt lat="51.996674" lon="8.778497">
        <ele>97.087797</ele>
        <time>2024-11-19T17:04:26.683Z</time>
      </trkpt>
      <trkpt lat="51.996577" lon="8.778652">
        <ele>97.163911</ele>
        <time>2024-11-19T17:04:30.480Z</time>
      </trkpt>
      <trkpt lat="51.995977" lon="8.779632">
        <ele>97.554011</ele>
        <time>2024-11-19T17:04:53.835Z</time>
      </trkpt>
      <trkpt lat="51.995942" lon="8.779689">
        <ele>97.568897</ele>
        <time>2024-11-19T17:04:55.153Z</time>
      </trkpt>
      <trkpt lat="51.995399" lon="8.780564">
        <ele>97.798622</ele>
        <time>2024-11-19T17:05:16.649Z</time>
      </trkpt>
      <trkpt lat="51.995376" lon="8.780598">
        <ele>97.807962</ele>
        <time>2024-11-19T17:05:17.584Z</time>
      </trkpt>
      <trkpt lat="51.994898" lon="8.781289">
        <ele>97.990846</ele>
        <time>2024-11-19T17:05:37.126Z</time>
      </trkpt>
      <trkpt lat="51.994641" lon="8.781583">
        <ele>97.926190</ele>
        <time>2024-11-19T17:05:46.051Z</time>
      </trkpt>
      <trkpt lat="51.994401" lon="8.781869">
        <ele>97.864964</ele>
        <time>2024-11-19T17:05:54.146Z</time>
      </trkpt>
      <trkpt lat="51.994713" lon="8.782595">
        <ele>97.752841</ele>
        <time>2024-11-19T17:06:07.975Z</time>
      </trkpt>
      <trkpt lat="51.994878" lon="8.782987">
        <ele>97.692705</ele>
        <time>2024-11-19T17:06:20.296Z</time>
      </trkpt>
      <trkpt lat="51.994903" lon="8.783049">
        <ele>97.683320</ele>
        <time>2024-11-19T17:06:21.771Z</time>
      </trkpt>
      <trkpt lat="51.994968" lon="8.783076">
        <ele>97.669520</ele>
        <time>2024-11-19T17:06:23.392Z</time>
      </trkpt>
      <trkpt lat="51.995866" lon="8.784566">
        <ele>97.379007</ele>
        <time>2024-11-19T17:06:55.080Z</time>
      </trkpt>
      <trkpt lat="51.995764" lon="8.784754">
        <ele>97.343442</ele>
        <time>2024-11-19T17:06:59.164Z</time>
      </trkpt>
      <trkpt lat="51.995432" lon="8.785137">
        <ele>97.249571</ele>
        <time>2024-11-19T17:07:10.232Z</time>
      </trkpt>
      <trkpt lat="51.995352" lon="8.785228">
        <ele>97.227056</ele>
        <time>2024-11-19T17:07:12.935Z</time>
      </trkpt>
      <trkpt lat="51.995221" lon="8.785467">
        <ele>97.250385</ele>
        <time>2024-11-19T17:07:18.475Z</time>
      </trkpt>
      <trkpt lat="51.995123" lon="8.785646">
        <ele>97.298585</ele>
        <time>2024-11-19T17:07:22.705Z</time>
      </trkpt>
      <trkpt lat="51.995008" lon="8.785855">
        <ele>97.354989</ele>
        <time>2024-11-19T17:07:27.660Z</time>
      </trkpt>
      <trkpt lat="51.994454" lon="8.787051">
        <ele>97.656164</ele>
        <time>2024-11-19T17:07:53.590Z</time>
      </trkpt>
      <trkpt lat="51.994416" lon="8.787131">
        <ele>97.676496</ele>
        <time>2024-11-19T17:07:55.352Z</time>
      </trkpt>
      <trkpt lat="51.994340" lon="8.787296">
        <ele>97.717962</ele>
        <time>2024-11-19T17:07:58.974Z</time>
      </trkpt>
      <trkpt lat="51.993896" lon="8.788240">
        <ele>98.190703</ele>
        <time>2024-11-19T17:08:19.808Z</time>
      </trkpt>
      <trkpt lat="51.993615" lon="8.788830">
        <ele>98.561274</ele>
        <time>2024-11-19T17:08:33.004Z</time>
      </trkpt>
      <trkpt lat="51.993559" lon="8.788916">
        <ele>98.623460</ele>
        <time>2024-11-19T17:08:35.338Z</time>
      </trkpt>
      <trkpt lat="51.993439" lon="8.788906">
        <ele>98.720409</ele>
        <time>2024-11-19T17:08:39.114Z</time>
      </trkpt>
      <trkpt lat="51.993341" lon="8.788976">
        <ele>98.806790</ele>
        <time>2024-11-19T17:08:43.421Z</time>
      </trkpt>
      <trkpt lat="51.993321" lon="8.789043">
        <ele>98.843782</ele>
        <time>2024-11-19T17:08:44.902Z</time>
      </trkpt>
      <trkpt lat="51.993348" lon="8.789108">
        <ele>98.882736</ele>
        <time>2024-11-19T17:08:46.445Z</time>
      </trkpt>
      <trkpt lat="51.993396" lon="8.789242">
        <ele>98.959755</ele>
        <time>2024-11-19T17:08:49.611Z</time>
      </trkpt>
      <trkpt lat="51.993438" lon="8.789319">
        <ele>99.010861</ele>
        <time>2024-11-19T17:08:52.232Z</time>
      </trkpt>
      <trkpt lat="51.993348" lon="8.789795">
        <ele>99.264625</ele>
        <time>2024-11-19T17:09:05.182Z</time>
      </trkpt>
      <trkpt lat="51.993148" lon="8.790756">
        <ele>100.121525</ele>
        <time>2024-11-19T17:09:26.425Z</time>
      </trkpt>
      <trkpt lat="51.992779" lon="8.791263">
        <ele>100.784610</ele>
        <time>2024-11-19T17:09:42.737Z</time>
      </trkpt>
      <trkpt lat="51.992512" lon="8.791529">
        <ele>101.214329</ele>
        <time>2024-11-19T17:09:53.100Z</time>
      </trkpt>
      <trkpt lat="51.992458" lon="8.791634">
        <ele>101.329894</ele>
        <time>2024-11-19T17:09:55.887Z</time>
      </trkpt>
      <trkpt lat="51.992766" lon="8.791845">
        <ele>101.765718</ele>
        <time>2024-11-19T17:10:06.760Z</time>
      </trkpt>
      <trkpt lat="51.992653" lon="8.792347">
        <ele>102.074178</ele>
        <time>2024-11-19T17:10:20.145Z</time>
      </trkpt>
      <trkpt lat="51.992590" lon="8.792628">
        <ele>102.246761</ele>
        <time>2024-11-19T17:10:27.597Z</time>
      </trkpt>
      <trkpt lat="51.992472" lon="8.793148">
        <ele>102.566589</ele>
        <time>2024-11-19T17:10:41.107Z</time>
      </trkpt>
      <trkpt lat="51.991853" lon="8.793107">
        <ele>103.147215</ele>
        <time>2024-11-19T17:11:05.704Z</time>
      </trkpt>
      <trkpt lat="51.991341" lon="8.792762">
        <ele>103.378959</ele>
        <time>2024-11-19T17:11:27.070Z</time>
      </trkpt>
      <trkpt lat="51.991297" lon="8.792926">
        <ele>103.369818</ele>
        <time>2024-11-19T17:11:31.099Z</time>
      </trkpt>
      <trkpt lat="51.991341" lon="8.792762">
        <ele>103.360676</ele>
        <time>2024-11-19T17:11:35.050Z</time>
      </trkpt>
      <trkpt lat="51.991853" lon="8.793107">
        <ele>103.314677</ele>
        <time>2024-11-19T17:11:53.879Z</time>
      </trkpt>
      <trkpt lat="51.991846" lon="8.793435">
        <ele>103.297906</ele>
        <time>2024-11-19T17:12:00.499Z</time>
      </trkpt>
      <trkpt lat="51.991879" lon="8.794036">
        <ele>103.267074</ele>
        <time>2024-11-19T17:12:12.761Z</time>
      </trkpt>
      <trkpt lat="51.991792" lon="8.794552">
        <ele>103.229156</ele>
        <time>2024-11-19T17:12:23.678Z</time>
      </trkpt>
      <trkpt lat="51.992095" lon="8.794651">
        <ele>103.183216</ele>
        <time>2024-11-19T17:12:31.325Z</time>
      </trkpt>
      <trkpt lat="51.991638" lon="8.795152">
        <ele>103.101260</ele>
        <time>2024-11-19T17:12:50.275Z</time>
      </trkpt>
      <trkpt lat="51.991391" lon="8.795413">
        <ele>103.057459</ele>
        <time>2024-11-19T17:13:00.787Z</time>
      </trkpt>
      <trkpt lat="51.991302" lon="8.795506">
        <ele>103.041728</ele>
        <time>2024-11-19T17:13:04.555Z</time>
      </trkpt>
      <trkpt lat="51.991043" lon="8.795748">
        <ele>102.997314</ele>
        <time>2024-11-19T17:13:15.223Z</time>
      </trkpt>
      <trkpt lat="51.991001" lon="8.795786">
        <ele>102.990168</ele>
        <time>2024-11-19T17:13:16.890Z</time>
      </trkpt>
      <trkpt lat="51.990950" lon="8.795834">
        <ele>102.989234</ele>
        <time>2024-11-19T17:13:18.942Z</time>
      </trkpt>
      <trkpt lat="51.990655" lon="8.796112">
        <ele>103.029592</ele>
        <time>2024-11-19T17:13:30.855Z</time>
      </trkpt>
      <trkpt lat="51.990578" lon="8.796099">
        <ele>103.038752</ele>
        <time>2024-11-19T17:13:36.249Z</time>
      </trkpt>
      <trkpt lat="51.990281" lon="8.796579">
        <ele>103.088333</ele>
        <time>2024-11-19T17:13:51.111Z</time>
      </trkpt>
      <trkpt lat="51.990031" lon="8.796982">
        <ele>103.130015</ele>
        <time>2024-11-19T17:14:03.549Z</time>
      </trkpt>
      <trkpt lat="51.989919" lon="8.797151">
        <ele>103.148105</ele>
        <time>2024-11-19T17:14:09.004Z</time>
      </trkpt>
      <trkpt lat="51.989801" lon="8.797259">
        <ele>103.164133</ele>
        <time>2024-11-19T17:14:13.750Z</time>
      </trkpt>
      <trkpt lat="51.989573" lon="8.797393">
        <ele>103.192823</ele>
        <time>2024-11-19T17:14:22.460Z</time>
      </trkpt>
      <trkpt lat="51.989234" lon="8.797464">
        <ele>103.355347</ele>
        <time>2024-11-19T17:14:35.180Z</time>
      </trkpt>
      <trkpt lat="51.989120" lon="8.797453">
        <ele>103.416432</ele>
        <time>2024-11-19T17:14:39.529Z</time>
      </trkpt>
      <trkpt lat="51.989090" lon="8.797554">
        <ele>103.453368</ele>
        <time>2024-11-19T17:14:41.537Z</time>
      </trkpt>
      <trkpt lat="51.989027" lon="8.797831">
        <ele>103.550633</ele>
        <time>2024-11-19T17:14:47.006Z</time>
      </trkpt>
      <trkpt lat="51.988409" lon="8.797505">
        <ele>103.898196</ele>
        <time>2024-11-19T17:15:06.513Z</time>
      </trkpt>
      <trkpt lat="51.988223" lon="8.797857">
        <ele>104.050976</ele>
        <time>2024-11-19T17:15:15.107Z</time>
      </trkpt>
      <trkpt lat="51.987735" lon="8.798921">
        <ele>104.065844</ele>
        <time>2024-11-19T17:15:38.469Z</time>
      </trkpt>
      <trkpt lat="51.987466" lon="8.799692">
        <ele>103.981289</ele>
        <time>2024-11-19T17:15:53.011Z</time>
      </trkpt>
      <trkpt lat="51.987432" lon="8.799661">
        <ele>103.975247</ele>
        <time>2024-11-19T17:15:54.028Z</time>
      </trkpt>
      <trkpt lat="51.987466" lon="8.799692">
        <ele>103.969206</ele>
        <time>2024-11-19T17:15:55.036Z</time>
      </trkpt>
      <trkpt lat="51.987310" lon="8.800139">
        <ele>103.920180</ele>
        <time>2024-11-19T17:16:02.774Z</time>
      </trkpt>
      <trkpt lat="51.986694" lon="8.799440">
        <ele>103.335519</ele>
        <time>2024-11-19T17:16:19.846Z</time>
      </trkpt>
      <trkpt lat="51.986654" lon="8.799354">
        <ele>103.263687</ele>
        <time>2024-11-19T17:16:21.280Z</time>
      </trkpt>
      <trkpt lat="51.985964" lon="8.798617">
        <ele>102.369831</ele>
        <time>2024-11-19T17:16:39.689Z</time>
      </trkpt>
      <trkpt lat="51.985787" lon="8.798213">
        <ele>102.039365</ele>
        <time>2024-11-19T17:16:46.791Z</time>
      </trkpt>
      <trkpt lat="51.985614" lon="8.797858">
        <ele>101.983514</ele>
        <time>2024-11-19T17:16:53.562Z</time>
      </trkpt>
      <trkpt lat="51.985589" lon="8.797795">
        <ele>101.995690</ele>
        <time>2024-11-19T17:16:54.713Z</time>
      </trkpt>
      <trkpt lat="51.985445" lon="8.797374">
        <ele>102.073923</ele>
        <time>2024-11-19T17:17:07.652Z</time>
      </trkpt>
      <trkpt lat="51.985390" lon="8.797266">
        <ele>102.096690</ele>
        <time>2024-11-19T17:17:10.015Z</time>
      </trkpt>
      <trkpt lat="51.985310" lon="8.797021">
        <ele>102.141739</ele>
        <time>2024-11-19T17:17:14.812Z</time>
      </trkpt>
      <trkpt lat="51.985201" lon="8.796686">
        <ele>102.203290</ele>
        <time>2024-11-19T17:17:21.799Z</time>
      </trkpt>
      <trkpt lat="51.984937" lon="8.796915">
        <ele>102.282243</ele>
        <time>2024-11-19T17:17:33.643Z</time>
      </trkpt>
      <trkpt lat="51.984831" lon="8.797088">
        <ele>102.321888</ele>
        <time>2024-11-19T17:17:39.527Z</time>
      </trkpt>
      <trkpt lat="51.984797" lon="8.797206">
        <ele>102.343052</ele>
        <time>2024-11-19T17:17:42.689Z</time>
      </trkpt>
      <trkpt lat="51.984581" lon="8.797378">
        <ele>102.406512</ele>
        <time>2024-11-19T17:17:51.888Z</time>
      </trkpt>
      <trkpt lat="51.984400" lon="8.797513">
        <ele>102.519973</ele>
        <time>2024-11-19T17:17:57.787Z</time>
      </trkpt>
      <trkpt lat="51.984296" lon="8.797599">
        <ele>102.588823</ele>
        <time>2024-11-19T17:18:01.331Z</time>
      </trkpt>
      <trkpt lat="51.983956" lon="8.797629">
        <ele>102.789693</ele>
        <time>2024-11-19T17:18:11.855Z</time>
      </trkpt>
      <trkpt lat="51.983916" lon="8.797632">
        <ele>102.813316</ele>
        <time>2024-11-19T17:18:13.165Z</time>
      </trkpt>
      <trkpt lat="51.983257" lon="8.798177">
        <ele>103.249599</ele>
        <time>2024-11-19T17:18:37.392Z</time>
      </trkpt>
      <trkpt lat="51.982673" lon="8.798683">
        <ele>103.464515</ele>
        <time>2024-11-19T17:18:56.171Z</time>
      </trkpt>
      <trkpt lat="51.982136" lon="8.799086">
        <ele>103.451463</ele>
        <time>2024-11-19T17:19:14.403Z</time>
      </trkpt>
      <trkpt lat="51.982055" lon="8.799147">
        <ele>103.449493</ele>
        <time>2024-11-19T17:19:17.108Z</time>
      </trkpt>
      <trkpt lat="51.981939" lon="8.799335">
        <ele>103.445877</ele>
        <time>2024-11-19T17:19:21.930Z</time>
      </trkpt>
      <trkpt lat="51.981940" lon="8.799481">
        <ele>103.443893</ele>
        <time>2024-11-19T17:19:24.543Z</time>
      </trkpt>
      <trkpt lat="51.982222" lon="8.800344">
        <ele>103.428843</ele>
        <time>2024-11-19T17:19:41.324Z</time>
      </trkpt>
      <trkpt lat="51.982465" lon="8.801791">
        <ele>103.342010</ele>
        <time>2024-11-19T17:20:06.253Z</time>
      </trkpt>
      <trkpt lat="51.982424" lon="8.801813">
        <ele>103.337951</ele>
        <time>2024-11-19T17:20:07.453Z</time>
      </trkpt>
      <trkpt lat="51.982299" lon="8.801869">
        <ele>103.325762</ele>
        <time>2024-11-19T17:20:13.019Z</time>
      </trkpt>
      <trkpt lat="51.982276" lon="8.801889">
        <ele>103.323309</ele>
        <time>2024-11-19T17:20:13.773Z</time>
      </trkpt>
      <trkpt lat="51.981965" lon="8.802442">
        <ele>103.279954</ele>
        <time>2024-11-19T17:20:28.055Z</time>
      </trkpt>
      <trkpt lat="51.981907" lon="8.802477">
        <ele>103.274138</ele>
        <time>2024-11-19T17:20:30.079Z</time>
      </trkpt>
      <trkpt lat="51.981811" lon="8.802475">
        <ele>103.265113</ele>
        <time>2024-11-19T17:20:33.314Z</time>
      </trkpt>
      <trkpt lat="51.981740" lon="8.802523">
        <ele>103.336268</ele>
        <time>2024-11-19T17:20:35.952Z</time>
      </trkpt>
      <trkpt lat="51.981495" lon="8.802902">
        <ele>103.897332</ele>
        <time>2024-11-19T17:20:47.940Z</time>
      </trkpt>
      <trkpt lat="51.981454" lon="8.802967">
        <ele>103.992342</ele>
        <time>2024-11-19T17:20:50.029Z</time>
      </trkpt>
      <trkpt lat="51.981440" lon="8.803192">
        <ele>104.223277</ele>
        <time>2024-11-19T17:20:55.086Z</time>
      </trkpt>
      <trkpt lat="51.981672" lon="8.804251">
        <ele>105.371076</ele>
        <time>2024-11-19T17:21:22.654Z</time>
      </trkpt>
      <trkpt lat="51.982016" lon="8.804540">
        <ele>106.013253</ele>
        <time>2024-11-19T17:21:40.477Z</time>
      </trkpt>
      <trkpt lat="51.982035" lon="8.804594">
        <ele>106.076760</ele>
        <time>2024-11-19T17:21:42.178Z</time>
      </trkpt>
      <trkpt lat="51.982020" lon="8.804666">
        <ele>106.154376</ele>
        <time>2024-11-19T17:21:44.286Z</time>
      </trkpt>
      <trkpt lat="51.981942" lon="8.804862">
        <ele>106.350835</ele>
        <time>2024-11-19T17:21:50.620Z</time>
      </trkpt>
      <trkpt lat="51.981422" lon="8.804406">
        <ele>107.054577</ele>
        <time>2024-11-19T17:22:10.487Z</time>
      </trkpt>
      <trkpt lat="51.981298" lon="8.804317">
        <ele>107.216016</ele>
        <time>2024-11-19T17:22:14.876Z</time>
      </trkpt>
      <trkpt lat="51.981119" lon="8.804263">
        <ele>107.432812</ele>
        <time>2024-11-19T17:22:20.801Z</time>
      </trkpt>
      <trkpt lat="51.979647" lon="8.804030">
        <ele>108.670704</ele>
        <time>2024-11-19T17:23:05.391Z</time>
      </trkpt>
      <trkpt lat="51.979549" lon="8.804019">
        <ele>108.711926</ele>
        <time>2024-11-19T17:23:08.290Z</time>
      </trkpt>
      <trkpt lat="51.979303" lon="8.804093">
        <ele>108.816913</ele>
        <time>2024-11-19T17:23:15.582Z</time>
      </trkpt>
      <trkpt lat="51.979104" lon="8.804208">
        <ele>108.905552</ele>
        <time>2024-11-19T17:23:21.648Z</time>
      </trkpt>
      <trkpt lat="51.978880" lon="8.804387">
        <ele>109.010319</ele>
        <time>2024-11-19T17:23:28.590Z</time>
      </trkpt>
      <trkpt lat="51.978536" lon="8.804776">
        <ele>109.178533</ele>
        <time>2024-11-19T17:23:39.856Z</time>
      </trkpt>
      <trkpt lat="51.977773" lon="8.805639">
        <ele>109.502658</ele>
        <time>2024-11-19T17:24:04.006Z</time>
      </trkpt>
      <trkpt lat="51.977510" lon="8.805840">
        <ele>109.603978</ele>
        <time>2024-11-19T17:24:12.732Z</time>
      </trkpt>
      <trkpt lat="51.977156" lon="8.806127">
        <ele>109.741896</ele>
        <time>2024-11-19T17:24:25.122Z</time>
      </trkpt>
      <trkpt lat="51.976764" lon="8.806433">
        <ele>109.847161</ele>
        <time>2024-11-19T17:24:39.380Z</time>
      </trkpt>
      <trkpt lat="51.975727" lon="8.807029">
        <ele>110.089379</ele>
        <time>2024-11-19T17:25:12.300Z</time>
      </trkpt>
      <trkpt lat="51.974035" lon="8.807754">
        <ele>108.393796</ele>
        <time>2024-11-19T17:25:50.352Z</time>
      </trkpt>
      <trkpt lat="51.973685" lon="8.807861">
        <ele>107.947491</ele>
        <time>2024-11-19T17:25:58.767Z</time>
      </trkpt>
      <trkpt lat="51.973402" lon="8.807938">
        <ele>107.745038</ele>
        <time>2024-11-19T17:26:05.694Z</time>
      </trkpt>
      <trkpt lat="51.973050" lon="8.808086">
        <ele>107.511826</ele>
        <time>2024-11-19T17:26:14.810Z</time>
      </trkpt>
      <trkpt lat="51.972843" lon="8.808166">
        <ele>107.375351</ele>
        <time>2024-11-19T17:26:20.283Z</time>
      </trkpt>
      <trkpt lat="51.972780" lon="8.807886">
        <ele>107.257573</ele>
        <time>2024-11-19T17:26:26.492Z</time>
      </trkpt>
      <trkpt lat="51.972591" lon="8.807606">
        <ele>107.093460</ele>
        <time>2024-11-19T17:26:34.944Z</time>
      </trkpt>
      <trkpt lat="51.972511" lon="8.807007">
        <ele>106.851292</ele>
        <time>2024-11-19T17:26:46.852Z</time>
      </trkpt>
      <trkpt lat="51.972496" lon="8.806847">
        <ele>106.787346</ele>
        <time>2024-11-19T17:26:49.953Z</time>
      </trkpt>
      <trkpt lat="51.972375" lon="8.805521">
        <ele>106.533755</ele>
        <time>2024-11-19T17:27:10.367Z</time>
      </trkpt>
      <trkpt lat="51.972325" lon="8.804967">
        <ele>106.435039</ele>
        <time>2024-11-19T17:27:19.435Z</time>
      </trkpt>
      <trkpt lat="51.972288" lon="8.804540">
        <ele>106.359016</ele>
        <time>2024-11-19T17:27:26.690Z</time>
      </trkpt>
      <trkpt lat="51.972274" lon="8.804372">
        <ele>106.329127</ele>
        <time>2024-11-19T17:27:29.655Z</time>
      </trkpt>
      <trkpt lat="51.972197" lon="8.803424">
        <ele>106.455682</ele>
        <time>2024-11-19T17:27:47.759Z</time>
      </trkpt>
      <trkpt lat="51.972175" lon="8.803158">
        <ele>106.581030</ele>
        <time>2024-11-19T17:27:53.004Z</time>
      </trkpt>
      <trkpt lat="51.972161" lon="8.802977">
        <ele>106.666228</ele>
        <time>2024-11-19T17:27:56.581Z</time>
      </trkpt>
      <trkpt lat="51.972127" lon="8.802565">
        <ele>106.860370</ele>
        <time>2024-11-19T17:28:04.685Z</time>
      </trkpt>
      <trkpt lat="51.972113" lon="8.802297">
        <ele>106.985987</ele>
        <time>2024-11-19T17:28:09.905Z</time>
      </trkpt>
      <trkpt lat="51.972061" lon="8.801768">
        <ele>107.236179</ele>
        <time>2024-11-19T17:28:20.431Z</time>
      </trkpt>
      <trkpt lat="51.971899" lon="8.800599">
        <ele>107.830196</ele>
        <time>2024-11-19T17:28:44.256Z</time>
      </trkpt>
      <trkpt lat="51.971859" lon="8.800617">
        <ele>107.867340</ele>
        <time>2024-11-19T17:28:45.567Z</time>
      </trkpt>
      <trkpt lat="51.971851" lon="8.800539">
        <ele>107.910930</ele>
        <time>2024-11-19T17:28:47.029Z</time>
      </trkpt>
      <trkpt lat="51.970486" lon="8.801119">
        <ele>109.173535</ele>
        <time>2024-11-19T17:29:30.497Z</time>
      </trkpt>
      <trkpt lat="51.970364" lon="8.801149">
        <ele>109.302814</ele>
        <time>2024-11-19T17:29:34.351Z</time>
      </trkpt>
      <trkpt lat="51.970244" lon="8.801161">
        <ele>109.439628</ele>
        <time>2024-11-19T17:29:38.076Z</time>
      </trkpt>
      <trkpt lat="51.968367" lon="8.801046">
        <ele>111.726602</ele>
        <time>2024-11-19T17:30:38.330Z</time>
      </trkpt>
      <trkpt lat="51.968149" lon="8.801099">
        <ele>112.096190</ele>
        <time>2024-11-19T17:30:46.068Z</time>
      </trkpt>
      <trkpt lat="51.968111" lon="8.801005">
        <ele>112.212327</ele>
        <time>2024-11-19T17:30:48.524Z</time>
      </trkpt>
      <trkpt lat="51.966817" lon="8.799075">
        <ele>114.888740</ele>
        <time>2024-11-19T17:31:51.561Z</time>
      </trkpt>
      <trkpt lat="51.966109" lon="8.798090">
        <ele>115.973331</ele>
        <time>2024-11-19T17:32:20.667Z</time>
      </trkpt>
      <trkpt lat="51.965879" lon="8.797808">
        <ele>116.308593</ele>
        <time>2024-11-19T17:32:29.047Z</time>
      </trkpt>
      <trkpt lat="51.964881" lon="8.796876">
        <ele>117.140866</ele>
        <time>2024-11-19T17:33:02.998Z</time>
      </trkpt>
      <trkpt lat="51.963831" lon="8.795992">
        <ele>117.826984</ele>
        <time>2024-11-19T17:33:39.486Z</time>
      </trkpt>
      <trkpt lat="51.963042" lon="8.795328">
        <ele>118.185805</ele>
        <time>2024-11-19T17:34:05.387Z</time>
      </trkpt>
      <trkpt lat="51.960764" lon="8.793405">
        <ele>118.207394</ele>
        <time>2024-11-19T17:35:11.044Z</time>
      </trkpt>
      <trkpt lat="51.960234" lon="8.793139">
        <ele>118.517425</ele>
        <time>2024-11-19T17:35:26.304Z</time>
      </trkpt>
      <trkpt lat="51.959484" lon="8.791992">
        <ele>119.183612</ele>
        <time>2024-11-19T17:35:58.697Z</time>
      </trkpt>
      <trkpt lat="51.959209" lon="8.791654">
        <ele>119.616640</ele>
        <time>2024-11-19T17:36:10.935Z</time>
      </trkpt>
      <trkpt lat="51.958779" lon="8.790957">
        <ele>120.379537</ele>
        <time>2024-11-19T17:36:33.467Z</time>
      </trkpt>
      <trkpt lat="51.958222" lon="8.789943">
        <ele>121.200629</ele>
        <time>2024-11-19T17:37:00.074Z</time>
      </trkpt>
      <trkpt lat="51.957390" lon="8.788405">
        <ele>120.385764</ele>
        <time>2024-11-19T17:37:28.580Z</time>
      </trkpt>
      <trkpt lat="51.957229" lon="8.788101">
        <ele>120.226160</ele>
        <time>2024-11-19T17:37:34.019Z</time>
      </trkpt>
      <trkpt lat="51.957005" lon="8.787800">
        <ele>120.322509</ele>
        <time>2024-11-19T17:37:40.999Z</time>
      </trkpt>
      <trkpt lat="51.956560" lon="8.788032">
        <ele>121.117305</ele>
        <time>2024-11-19T17:37:55.982Z</time>
      </trkpt>
      <trkpt lat="51.956489" lon="8.788022">
        <ele>121.238491</ele>
        <time>2024-11-19T17:37:58.353Z</time>
      </trkpt>
      <trkpt lat="51.956296" lon="8.787928">
        <ele>121.581142</ele>
        <time>2024-11-19T17:38:05.402Z</time>
      </trkpt>
      <trkpt lat="51.956183" lon="8.787928">
        <ele>121.773293</ele>
        <time>2024-11-19T17:38:09.644Z</time>
      </trkpt>
      <trkpt lat="51.954246" lon="8.786687">
        <ele>126.240568</ele>
        <time>2024-11-19T17:39:36.411Z</time>
      </trkpt>
      <trkpt lat="51.953919" lon="8.786511">
        <ele>127.079981</ele>
        <time>2024-11-19T17:39:47.532Z</time>
      </trkpt>
      <trkpt lat="51.953427" lon="8.786171">
        <ele>128.002068</ele>
        <time>2024-11-19T17:40:04.043Z</time>
      </trkpt>
      <trkpt lat="51.952983" lon="8.785925">
        <ele>128.617843</ele>
        <time>2024-11-19T17:40:18.039Z</time>
      </trkpt>
      <trkpt lat="51.952619" lon="8.786858">
        <ele>129.511040</ele>
        <time>2024-11-19T17:40:41.008Z</time>
      </trkpt>
      <trkpt lat="51.952147" lon="8.788037">
        <ele>130.674636</ele>
        <time>2024-11-19T17:41:14.631Z</time>
      </trkpt>
      <trkpt lat="51.951974" lon="8.788277">
        <ele>130.984161</ele>
        <time>2024-11-19T17:41:23.161Z</time>
      </trkpt>
      <trkpt lat="51.951949" lon="8.788298">
        <ele>131.022443</ele>
        <time>2024-11-19T17:41:24.182Z</time>
      </trkpt>
      <trkpt lat="51.951827" lon="8.788389">
        <ele>131.205038</ele>
        <time>2024-11-19T17:41:28.953Z</time>
      </trkpt>
      <trkpt lat="51.951634" lon="8.788616">
        <ele>131.529195</ele>
        <time>2024-11-19T17:41:37.063Z</time>
      </trkpt>
      <trkpt lat="51.951498" lon="8.788965">
        <ele>131.875261</ele>
        <time>2024-11-19T17:41:45.341Z</time>
      </trkpt>
      <trkpt lat="51.951494" lon="8.789171">
        <ele>132.048000</ele>
        <time>2024-11-19T17:41:49.292Z</time>
      </trkpt>
      <trkpt lat="51.951531" lon="8.789365">
        <ele>132.218202</ele>
        <time>2024-11-19T17:41:53.055Z</time>
      </trkpt>
      <trkpt lat="51.951544" lon="8.789435">
        <ele>132.279476</ele>
        <time>2024-11-19T17:41:54.391Z</time>
      </trkpt>
      <trkpt lat="51.952358" lon="8.790826">
        <ele>132.277577</ele>
        <time>2024-11-19T17:42:25.667Z</time>
      </trkpt>
      <trkpt lat="51.952442" lon="8.790984">
        <ele>132.267661</ele>
        <time>2024-11-19T17:42:28.866Z</time>
      </trkpt>
      <trkpt lat="51.952936" lon="8.792329">
        <ele>132.500891</ele>
        <time>2024-11-19T17:42:56.062Z</time>
      </trkpt>
      <trkpt lat="51.952954" lon="8.792474">
        <ele>132.561436</ele>
        <time>2024-11-19T17:42:58.888Z</time>
      </trkpt>
      <trkpt lat="51.952488" lon="8.792681">
        <ele>132.882323</ele>
        <time>2024-11-19T17:43:14.212Z</time>
      </trkpt>
      <trkpt lat="51.952295" lon="8.792768">
        <ele>133.015361</ele>
        <time>2024-11-19T17:43:20.686Z</time>
      </trkpt>
      <trkpt lat="51.951937" lon="8.792961">
        <ele>133.265912</ele>
        <time>2024-11-19T17:43:33.010Z</time>
      </trkpt>
      <trkpt lat="51.951543" lon="8.792965">
        <ele>133.535148</ele>
        <time>2024-11-19T17:43:46.066Z</time>
      </trkpt>
      <trkpt lat="51.951223" lon="8.792958">
        <ele>133.762596</ele>
        <time>2024-11-19T17:43:56.193Z</time>
      </trkpt>
      <trkpt lat="51.950261" lon="8.792842">
        <ele>134.448185</ele>
        <time>2024-11-19T17:44:25.374Z</time>
      </trkpt>
      <trkpt lat="51.950258" lon="8.792841">
        <ele>134.450362</ele>
        <time>2024-11-19T17:44:25.473Z</time>
      </trkpt>
      <trkpt lat="51.949496" lon="8.792947">
        <ele>135.285996</ele>
        <time>2024-11-19T17:44:49.349Z</time>
      </trkpt>
      <trkpt lat="51.949445" lon="8.792761">
        <ele>135.463243</ele>
        <time>2024-11-19T17:44:53.241Z</time>
      </trkpt>
      <trkpt lat="51.949392" lon="8.792795">
        <ele>135.543752</ele>
        <time>2024-11-19T17:44:55.027Z</time>
      </trkpt>
      <trkpt lat="51.949360" lon="8.792679">
        <ele>135.654404</ele>
        <time>2024-11-19T17:44:57.514Z</time>
      </trkpt>
      <trkpt lat="51.949242" lon="8.792266">
        <ele>136.050750</ele>
        <time>2024-11-19T17:45:06.615Z</time>
      </trkpt>
      <trkpt lat="51.949006" lon="8.792196">
        <ele>136.389652</ele>
        <time>2024-11-19T17:45:14.605Z</time>
      </trkpt>
      <trkpt lat="51.948952" lon="8.792157">
        <ele>136.473150</ele>
        <time>2024-11-19T17:45:16.624Z</time>
      </trkpt>
      <trkpt lat="51.948667" lon="8.791955">
        <ele>136.912486</ele>
        <time>2024-11-19T17:45:27.392Z</time>
      </trkpt>
      <trkpt lat="51.948407" lon="8.791668">
        <ele>137.549353</ele>
        <time>2024-11-19T17:45:39.345Z</time>
      </trkpt>
      <trkpt lat="51.947800" lon="8.791023">
        <ele>140.251042</ele>
        <time>2024-11-19T17:46:09.036Z</time>
      </trkpt>
      <trkpt lat="51.947738" lon="8.791002">
        <ele>140.486868</ele>
        <time>2024-11-19T17:46:11.731Z</time>
      </trkpt>
      <trkpt lat="51.947388" lon="8.790817">
        <ele>141.857462</ele>
        <time>2024-11-19T17:46:28.414Z</time>
      </trkpt>
      <trkpt lat="51.946859" lon="8.790659">
        <ele>143.860217</ele>
        <time>2024-11-19T17:46:55.449Z</time>
      </trkpt>
      <trkpt lat="51.946751" lon="8.790629">
        <ele>144.426661</ele>
        <time>2024-11-19T17:47:01.244Z</time>
      </trkpt>
      <trkpt lat="51.946511" lon="8.790551">
        <ele>145.772696</ele>
        <time>2024-11-19T17:47:14.560Z</time>
      </trkpt>
      <trkpt lat="51.946346" lon="8.790487">
        <ele>146.705640</ele>
        <time>2024-11-19T17:47:23.650Z</time>
      </trkpt>
      <trkpt lat="51.946118" lon="8.790398">
        <ele>147.995246</ele>
        <time>2024-11-19T17:47:35.927Z</time>
      </trkpt>
      <trkpt lat="51.945975" lon="8.790298">
        <ele>148.851581</ele>
        <time>2024-11-19T17:47:44.041Z</time>
      </trkpt>
      <trkpt lat="51.945751" lon="8.790023">
        <ele>150.396364</ele>
        <time>2024-11-19T17:47:58.833Z</time>
      </trkpt>
      <trkpt lat="51.945548" lon="8.789753">
        <ele>151.839927</ele>
        <time>2024-11-19T17:48:12.981Z</time>
      </trkpt>
      <trkpt lat="51.945489" lon="8.789681">
        <ele>152.245929</ele>
        <time>2024-11-19T17:48:16.958Z</time>
      </trkpt>
      <trkpt lat="51.945168" lon="8.789304">
        <ele>154.553854</ele>
        <time>2024-11-19T17:48:38.557Z</time>
      </trkpt>
      <trkpt lat="51.945083" lon="8.789231">
        <ele>155.196499</ele>
        <time>2024-11-19T17:48:43.887Z</time>
      </trkpt>
      <trkpt lat="51.944827" lon="8.789169">
        <ele>156.926036</ele>
        <time>2024-11-19T17:48:58.033Z</time>
      </trkpt>
      <trkpt lat="51.944349" lon="8.789335">
        <ele>160.192376</ele>
        <time>2024-11-19T17:49:25.446Z</time>
      </trkpt>
      <trkpt lat="51.944219" lon="8.789381">
        <ele>161.081454</ele>
        <time>2024-11-19T17:49:33.404Z</time>
      </trkpt>
      <trkpt lat="51.943949" lon="8.789328">
        <ele>162.898742</ele>
        <time>2024-11-19T17:49:50.430Z</time>
      </trkpt>
      <trkpt lat="51.943745" lon="8.789277">
        <ele>164.277952</ele>
        <time>2024-11-19T17:50:03.704Z</time>
      </trkpt>
      <trkpt lat="51.943667" lon="8.789303">
        <ele>164.810034</ele>
        <time>2024-11-19T17:50:09.079Z</time>
      </trkpt>
      <trkpt lat="51.943558" lon="8.789397">
        <ele>165.634887</ele>
        <time>2024-11-19T17:50:17.151Z</time>
      </trkpt>
      <trkpt lat="51.943421" lon="8.789660">
        <ele>166.771458</ele>
        <time>2024-11-19T17:50:30.966Z</time>
      </trkpt>
      <trkpt lat="51.943339" lon="8.789736">
        <ele>167.255292</ele>
        <time>2024-11-19T17:50:36.987Z</time>
      </trkpt>
      <trkpt lat="51.942887" lon="8.789965">
        <ele>169.681289</ele>
        <time>2024-11-19T17:51:05.530Z</time>
      </trkpt>
      <trkpt lat="51.942560" lon="8.790189">
        <ele>171.499820</ele>
        <time>2024-11-19T17:51:25.205Z</time>
      </trkpt>
      <trkpt lat="51.942123" lon="8.790802">
        <ele>174.459628</ele>
        <time>2024-11-19T17:51:50.374Z</time>
      </trkpt>
      <trkpt lat="51.941807" lon="8.791355">
        <ele>174.717058</ele>
        <time>2024-11-19T17:52:04.441Z</time>
      </trkpt>
      <trkpt lat="51.941778" lon="8.791391">
        <ele>174.680992</ele>
        <time>2024-11-19T17:52:05.401Z</time>
      </trkpt>
      <trkpt lat="51.941711" lon="8.791442">
        <ele>174.607898</ele>
        <time>2024-11-19T17:52:07.295Z</time>
      </trkpt>
      <trkpt lat="51.941657" lon="8.791483">
        <ele>174.549014</ele>
        <time>2024-11-19T17:52:08.790Z</time>
      </trkpt>
      <trkpt lat="51.941326" lon="8.791457">
        <ele>174.221726</ele>
        <time>2024-11-19T17:52:16.248Z</time>
      </trkpt>
      <trkpt lat="51.941261" lon="8.791428">
        <ele>174.155146</ele>
        <time>2024-11-19T17:52:17.650Z</time>
      </trkpt>
      <trkpt lat="51.941116" lon="8.791330">
        <ele>174.000008</ele>
        <time>2024-11-19T17:52:20.883Z</time>
      </trkpt>
      <trkpt lat="51.940892" lon="8.791158">
        <ele>173.755245</ele>
        <time>2024-11-19T17:52:25.947Z</time>
      </trkpt>
      <trkpt lat="51.940839" lon="8.791118">
        <ele>173.697513</ele>
        <time>2024-11-19T17:52:27.144Z</time>
      </trkpt>
      <trkpt lat="51.940691" lon="8.791000">
        <ele>173.534642</ele>
        <time>2024-11-19T17:52:30.487Z</time>
      </trkpt>
      <trkpt lat="51.940539" lon="8.790879">
        <ele>173.367420</ele>
        <time>2024-11-19T17:52:33.934Z</time>
      </trkpt>
      <trkpt lat="51.940288" lon="8.790694">
        <ele>173.068990</ele>
        <time>2024-11-19T17:52:39.657Z</time>
      </trkpt>
      <trkpt lat="51.940164" lon="8.790599">
        <ele>172.914797</ele>
        <time>2024-11-19T17:52:42.578Z</time>
      </trkpt>
      <trkpt lat="51.940065" lon="8.790522">
        <ele>172.791348</ele>
        <time>2024-11-19T17:52:44.943Z</time>
      </trkpt>
      <trkpt lat="51.939763" lon="8.790383">
        <ele>172.438377</ele>
        <time>2024-11-19T17:52:51.896Z</time>
      </trkpt>
      <trkpt lat="51.939486" lon="8.790262">
        <ele>172.115826</ele>
        <time>2024-11-19T17:52:58.321Z</time>
      </trkpt>
      <trkpt lat="51.939314" lon="8.790178">
        <ele>171.913856</ele>
        <time>2024-11-19T17:53:02.535Z</time>
      </trkpt>
      <trkpt lat="51.939281" lon="8.790162">
        <ele>171.875129</ele>
        <time>2024-11-19T17:53:03.371Z</time>
      </trkpt>
      <trkpt lat="51.938946" lon="8.790032">
        <ele>171.487829</ele>
        <time>2024-11-19T17:53:12.226Z</time>
      </trkpt>
      <trkpt lat="51.938840" lon="8.790040">
        <ele>171.368515</ele>
        <time>2024-11-19T17:53:15.023Z</time>
      </trkpt>
      <trkpt lat="51.938744" lon="8.790060">
        <ele>171.262149</ele>
        <time>2024-11-19T17:53:17.573Z</time>
      </trkpt>
      <trkpt lat="51.938684" lon="8.790077">
        <ele>171.282942</ele>
        <time>2024-11-19T17:53:19.158Z</time>
      </trkpt>
      <trkpt lat="51.938538" lon="8.790121">
        <ele>171.333635</ele>
        <time>2024-11-19T17:53:23.050Z</time>
      </trkpt>
      <trkpt lat="51.938344" lon="8.790183">
        <ele>171.401134</ele>
        <time>2024-11-19T17:53:28.334Z</time>
      </trkpt>
      <trkpt lat="51.938145" lon="8.790220">
        <ele>171.469512</ele>
        <time>2024-11-19T17:53:33.775Z</time>
      </trkpt>
      <trkpt lat="51.937957" lon="8.790250">
        <ele>171.534000</ele>
        <time>2024-11-19T17:53:38.990Z</time>
      </trkpt>
      <trkpt lat="51.937717" lon="8.790325">
        <ele>171.617436</ele>
        <time>2024-11-19T17:53:45.940Z</time>
      </trkpt>
      <trkpt lat="51.937292" lon="8.790466">
        <ele>171.765522</ele>
        <time>2024-11-19T17:53:58.794Z</time>
      </trkpt>
      <trkpt lat="51.937239" lon="8.790484">
        <ele>171.784007</ele>
        <time>2024-11-19T17:54:00.471Z</time>
      </trkpt>
      <trkpt lat="51.937032" lon="8.790540">
        <ele>171.855648</ele>
        <time>2024-11-19T17:54:06.931Z</time>
      </trkpt>
      <trkpt lat="51.936997" lon="8.790548">
        <ele>171.867714</ele>
        <time>2024-11-19T17:54:08.000Z</time>
      </trkpt>
      <trkpt lat="51.936944" lon="8.790560">
        <ele>171.908557</ele>
        <time>2024-11-19T17:54:09.702Z</time>
      </trkpt>
      <trkpt lat="51.936844" lon="8.790584">
        <ele>172.017973</ele>
        <time>2024-11-19T17:54:12.800Z</time>
      </trkpt>
      <trkpt lat="51.936451" lon="8.790674">
        <ele>172.447567</ele>
        <time>2024-11-19T17:54:24.954Z</time>
      </trkpt>
      <trkpt lat="51.936412" lon="8.790683">
        <ele>172.490205</ele>
        <time>2024-11-19T17:54:26.128Z</time>
      </trkpt>
      <trkpt lat="51.936235" lon="8.790731">
        <ele>172.684445</ele>
        <time>2024-11-19T17:54:31.592Z</time>
      </trkpt>
      <trkpt lat="51.936178" lon="8.790746">
        <ele>172.746948</ele>
        <time>2024-11-19T17:54:33.420Z</time>
      </trkpt>
      <trkpt lat="51.935904" lon="8.790820">
        <ele>173.047603</ele>
        <time>2024-11-19T17:54:42.131Z</time>
      </trkpt>
      <trkpt lat="51.935823" lon="8.790842">
        <ele>173.136496</ele>
        <time>2024-11-19T17:54:44.738Z</time>
      </trkpt>
      <trkpt lat="51.935705" lon="8.790873">
        <ele>173.265882</ele>
        <time>2024-11-19T17:54:48.577Z</time>
      </trkpt>
      <trkpt lat="51.935551" lon="8.790915">
        <ele>173.434908</ele>
        <time>2024-11-19T17:54:53.508Z</time>
      </trkpt>
      <trkpt lat="51.935423" lon="8.790949">
        <ele>173.575298</ele>
        <time>2024-11-19T17:54:57.688Z</time>
      </trkpt>
      <trkpt lat="51.935362" lon="8.790965">
        <ele>173.642181</ele>
        <time>2024-11-19T17:54:59.631Z</time>
      </trkpt>
      <trkpt lat="51.935175" lon="8.791015">
        <ele>173.902705</ele>
        <time>2024-11-19T17:55:05.946Z</time>
      </trkpt>
      <trkpt lat="51.935049" lon="8.791047">
        <ele>174.347526</ele>
        <time>2024-11-19T17:55:10.361Z</time>
      </trkpt>
      <trkpt lat="51.934692" lon="8.791137">
        <ele>175.607633</ele>
        <time>2024-11-19T17:55:23.490Z</time>
      </trkpt>
      <trkpt lat="51.934510" lon="8.791183">
        <ele>176.250079</ele>
        <time>2024-11-19T17:55:30.881Z</time>
      </trkpt>
      <trkpt lat="51.934486" lon="8.791189">
        <ele>176.334776</ele>
        <time>2024-11-19T17:55:31.898Z</time>
      </trkpt>
      <trkpt lat="51.934447" lon="8.791199">
        <ele>176.472491</ele>
        <time>2024-11-19T17:55:33.511Z</time>
      </trkpt>
      <trkpt lat="51.934118" lon="8.791282">
        <ele>177.633785</ele>
        <time>2024-11-19T17:55:48.743Z</time>
      </trkpt>
      <trkpt lat="51.934035" lon="8.791311">
        <ele>177.929916</ele>
        <time>2024-11-19T17:55:52.971Z</time>
      </trkpt>
      <trkpt lat="51.934017" lon="8.791318">
        <ele>177.994477</ele>
        <time>2024-11-19T17:55:53.893Z</time>
      </trkpt>
      <trkpt lat="51.933822" lon="8.791379">
        <ele>178.687139</ele>
        <time>2024-11-19T17:56:03.998Z</time>
      </trkpt>
      <trkpt lat="51.933465" lon="8.791483">
        <ele>179.952220</ele>
        <time>2024-11-19T17:56:22.457Z</time>
      </trkpt>
      <trkpt lat="51.932837" lon="8.791833">
        <ele>182.186566</ele>
        <time>2024-11-19T17:56:58.058Z</time>
      </trkpt>
      <trkpt lat="51.932405" lon="8.792129">
        <ele>183.760725</ele>
        <time>2024-11-19T17:57:20.936Z</time>
      </trkpt>
      <trkpt lat="51.932300" lon="8.792275">
        <ele>184.224972</ele>
        <time>2024-11-19T17:57:26.997Z</time>
      </trkpt>
      <trkpt lat="51.931988" lon="8.792594">
        <ele>185.462980</ele>
        <time>2024-11-19T17:57:41.548Z</time>
      </trkpt>
      <trkpt lat="51.931810" lon="8.792801">
        <ele>186.133624</ele>
        <time>2024-11-19T17:57:48.935Z</time>
      </trkpt>
      <trkpt lat="51.931122" lon="8.793464">
        <ele>186.154354</ele>
        <time>2024-11-19T17:58:13.657Z</time>
      </trkpt>
      <trkpt lat="51.930692" lon="8.793774">
        <ele>186.166543</ele>
        <time>2024-11-19T17:58:26.453Z</time>
      </trkpt>
      <trkpt lat="51.930152" lon="8.794071">
        <ele>186.127170</ele>
        <time>2024-11-19T17:58:42.161Z</time>
      </trkpt>
      <trkpt lat="51.930046" lon="8.794219">
        <ele>186.008281</ele>
        <time>2024-11-19T17:58:46.041Z</time>
      </trkpt>
      <trkpt lat="51.929952" lon="8.794416">
        <ele>185.877726</ele>
        <time>2024-11-19T17:58:50.354Z</time>
      </trkpt>
      <trkpt lat="51.929721" lon="8.795088">
        <ele>185.474486</ele>
        <time>2024-11-19T17:59:04.136Z</time>
      </trkpt>
      <trkpt lat="51.929478" lon="8.796116">
        <ele>184.897455</ele>
        <time>2024-11-19T17:59:23.190Z</time>
      </trkpt>
      <trkpt lat="51.929261" lon="8.796910">
        <ele>183.368716</ele>
        <time>2024-11-19T17:59:35.964Z</time>
      </trkpt>
      <trkpt lat="51.929232" lon="8.797576">
        <ele>181.218226</ele>
        <time>2024-11-19T17:59:44.716Z</time>
      </trkpt>
      <trkpt lat="51.929245" lon="8.798119">
        <ele>179.467936</ele>
        <time>2024-11-19T17:59:51.427Z</time>
      </trkpt>
      <trkpt lat="51.929215" lon="8.798540">
        <ele>178.102894</ele>
        <time>2024-11-19T17:59:56.525Z</time>
      </trkpt>
      <trkpt lat="51.929230" lon="8.798779">
        <ele>177.329111</ele>
        <time>2024-11-19T17:59:59.378Z</time>
      </trkpt>
      <trkpt lat="51.929299" lon="8.799197">
        <ele>175.935351</ele>
        <time>2024-11-19T18:00:04.508Z</time>
      </trkpt>
      <trkpt lat="51.929313" lon="8.799949">
        <ele>173.496356</ele>
        <time>2024-11-19T18:00:13.465Z</time>
      </trkpt>
      <trkpt lat="51.929315" lon="8.800048">
        <ele>173.174431</ele>
        <time>2024-11-19T18:00:14.649Z</time>
      </trkpt>
      <trkpt lat="51.929320" lon="8.800246">
        <ele>172.530387</ele>
        <time>2024-11-19T18:00:17.030Z</time>
      </trkpt>
      <trkpt lat="51.929269" lon="8.800779">
        <ele>170.777393</ele>
        <time>2024-11-19T18:00:23.559Z</time>
      </trkpt>
      <trkpt lat="51.929099" lon="8.802327">
        <ele>165.752761</ele>
        <time>2024-11-19T18:00:44.075Z</time>
      </trkpt>
      <trkpt lat="51.929000" lon="8.802870">
        <ele>165.361050</ele>
        <time>2024-11-19T18:00:52.009Z</time>
      </trkpt>
      <trkpt lat="51.928951" lon="8.803042">
        <ele>165.229980</ele>
        <time>2024-11-19T18:00:54.753Z</time>
      </trkpt>
      <trkpt lat="51.928762" lon="8.803696">
        <ele>164.730335</ele>
        <time>2024-11-19T18:01:05.842Z</time>
      </trkpt>
      <trkpt lat="51.928437" lon="8.803612">
        <ele>164.361130</ele>
        <time>2024-11-19T18:01:15.144Z</time>
      </trkpt>
      <trkpt lat="51.928314" lon="8.803802">
        <ele>164.170559</ele>
        <time>2024-11-19T18:01:20.460Z</time>
      </trkpt>
      <trkpt lat="51.928138" lon="8.803734">
        <ele>163.967586</ele>
        <time>2024-11-19T18:01:25.921Z</time>
      </trkpt>
      <trkpt lat="51.928129" lon="8.803783">
        <ele>163.932217</ele>
        <time>2024-11-19T18:01:26.973Z</time>
      </trkpt>
      <trkpt lat="51.927991" lon="8.803896">
        <ele>163.758784</ele>
        <time>2024-11-19T18:01:32.137Z</time>
      </trkpt>
      <trkpt lat="51.927908" lon="8.803921">
        <ele>163.871584</ele>
        <time>2024-11-19T18:01:34.913Z</time>
      </trkpt>
      <trkpt lat="51.927358" lon="8.803751">
        <ele>164.629961</ele>
        <time>2024-11-19T18:01:53.514Z</time>
      </trkpt>
      <trkpt lat="51.927249" lon="8.803781">
        <ele>164.779711</ele>
        <time>2024-11-19T18:01:57.421Z</time>
      </trkpt>
      <trkpt lat="51.927182" lon="8.804279">
        <ele>165.205455</ele>
        <time>2024-11-19T18:02:08.773Z</time>
      </trkpt>
      <trkpt lat="51.927213" lon="8.804707">
        <ele>165.565403</ele>
        <time>2024-11-19T18:02:18.764Z</time>
      </trkpt>
      <trkpt lat="51.927334" lon="8.805048">
        <ele>165.894014</ele>
        <time>2024-11-19T18:02:28.324Z</time>
      </trkpt>
      <trkpt lat="51.927618" lon="8.805895">
        <ele>166.801435</ele>
        <time>2024-11-19T18:02:52.253Z</time>
      </trkpt>
      <trkpt lat="51.927775" lon="8.805954">
        <ele>167.063878</ele>
        <time>2024-11-19T18:02:58.584Z</time>
      </trkpt>
      <trkpt lat="51.927742" lon="8.806066">
        <ele>167.188527</ele>
        <time>2024-11-19T18:03:01.703Z</time>
      </trkpt>
      <trkpt lat="51.927658" lon="8.806145">
        <ele>167.346657</ele>
        <time>2024-11-19T18:03:05.464Z</time>
      </trkpt>
      <trkpt lat="51.927401" lon="8.806207">
        <ele>167.769777</ele>
        <time>2024-11-19T18:03:15.686Z</time>
      </trkpt>
      <trkpt lat="51.927287" lon="8.806258">
        <ele>167.962356</ele>
        <time>2024-11-19T18:03:20.305Z</time>
      </trkpt>
      <trkpt lat="51.926919" lon="8.806542">
        <ele>168.626031</ele>
        <time>2024-11-19T18:03:35.225Z</time>
      </trkpt>
      <trkpt lat="51.926431" lon="8.806752">
        <ele>169.383482</ele>
        <time>2024-11-19T18:03:52.060Z</time>
      </trkpt>
      <trkpt lat="51.926176" lon="8.806887">
        <ele>169.733261</ele>
        <time>2024-11-19T18:04:00.488Z</time>
      </trkpt>
      <trkpt lat="51.925809" lon="8.807082">
        <ele>170.236844</ele>
        <time>2024-11-19T18:04:13.135Z</time>
      </trkpt>
      <trkpt lat="51.925718" lon="8.807234">
        <ele>170.407195</ele>
        <time>2024-11-19T18:04:17.661Z</time>
      </trkpt>
      <trkpt lat="51.925472" lon="8.807924">
        <ele>171.048091</ele>
        <time>2024-11-19T18:04:36.356Z</time>
      </trkpt>
      <trkpt lat="51.925248" lon="8.808164">
        <ele>171.398175</ele>
        <time>2024-11-19T18:04:47.323Z</time>
      </trkpt>
      <trkpt lat="51.924980" lon="8.808680">
        <ele>171.815737</ele>
        <time>2024-11-19T18:05:04.240Z</time>
      </trkpt>
      <trkpt lat="51.924746" lon="8.809064">
        <ele>172.134950</ele>
        <time>2024-11-19T18:05:17.044Z</time>
      </trkpt>
      <trkpt lat="51.924592" lon="8.809252">
        <ele>172.319777</ele>
        <time>2024-11-19T18:05:24.067Z</time>
      </trkpt>
      <trkpt lat="51.924353" lon="8.809721">
        <ele>172.679530</ele>
        <time>2024-11-19T18:05:36.575Z</time>
      </trkpt>
      <trkpt lat="51.924152" lon="8.810216">
        <ele>173.029980</ele>
        <time>2024-11-19T18:05:47.396Z</time>
      </trkpt>
      <trkpt lat="51.923914" lon="8.811015">
        <ele>173.203362</ele>
        <time>2024-11-19T18:06:02.000Z</time>
      </trkpt>
      <trkpt lat="51.923750" lon="8.811851">
        <ele>173.217863</ele>
        <time>2024-11-19T18:06:16.446Z</time>
      </trkpt>
      <trkpt lat="51.923682" lon="8.812377">
        <ele>173.226746</ele>
        <time>2024-11-19T18:06:26.182Z</time>
      </trkpt>
      <trkpt lat="51.923600" lon="8.812537">
        <ele>173.230185</ele>
        <time>2024-11-19T18:06:30.151Z</time>
      </trkpt>
      <trkpt lat="51.923534" lon="8.812814">
        <ele>173.235093</ele>
        <time>2024-11-19T18:06:36.119Z</time>
      </trkpt>
      <trkpt lat="51.923475" lon="8.813212">
        <ele>173.269728</ele>
        <time>2024-11-19T18:06:44.744Z</time>
      </trkpt>
      <trkpt lat="51.923383" lon="8.814379">
        <ele>174.672019</ele>
        <time>2024-11-19T18:07:12.523Z</time>
      </trkpt>
      <trkpt lat="51.923349" lon="8.814442">
        <ele>174.771802</ele>
        <time>2024-11-19T18:07:15.356Z</time>
      </trkpt>
      <trkpt lat="51.922774" lon="8.815509">
        <ele>176.460720</ele>
        <time>2024-11-19T18:07:51.250Z</time>
      </trkpt>
      <trkpt lat="51.922572" lon="8.815883">
        <ele>177.130417</ele>
        <time>2024-11-19T18:08:03.417Z</time>
      </trkpt>
      <trkpt lat="51.922498" lon="8.816145">
        <ele>177.552838</ele>
        <time>2024-11-19T18:08:10.459Z</time>
      </trkpt>
      <trkpt lat="51.922429" lon="8.817143">
        <ele>179.024952</ele>
        <time>2024-11-19T18:08:34.943Z</time>
      </trkpt>
      <trkpt lat="51.922546" lon="8.818100">
        <ele>180.455098</ele>
        <time>2024-11-19T18:08:59.542Z</time>
      </trkpt>
      <trkpt lat="51.922550" lon="8.818563">
        <ele>181.209984</ele>
        <time>2024-11-19T18:09:11.683Z</time>
      </trkpt>
      <trkpt lat="51.922530" lon="8.818754">
        <ele>181.647257</ele>
        <time>2024-11-19T18:09:16.958Z</time>
      </trkpt>
      <trkpt lat="51.922483" lon="8.818914">
        <ele>182.047264</ele>
        <time>2024-11-19T18:09:21.881Z</time>
      </trkpt>
      <trkpt lat="51.922402" lon="8.819048">
        <ele>182.470767</ele>
        <time>2024-11-19T18:09:27.217Z</time>
      </trkpt>
      <trkpt lat="51.922464" lon="8.819249">
        <ele>182.978022</ele>
        <time>2024-11-19T18:09:33.293Z</time>
      </trkpt>
      <trkpt lat="51.922629" lon="8.820068">
        <ele>184.922709</ele>
        <time>2024-11-19T18:09:57.584Z</time>
      </trkpt>
      <trkpt lat="51.923221" lon="8.823577">
        <ele>192.398547</ele>
        <time>2024-11-19T18:11:40.513Z</time>
      </trkpt>
      <trkpt lat="51.923297" lon="8.823894">
        <ele>193.064656</ele>
        <time>2024-11-19T18:11:47.416Z</time>
      </trkpt>
      <trkpt lat="51.923948" lon="8.826125">
        <ele>193.192874</ele>
        <time>2024-11-19T18:12:26.441Z</time>
      </trkpt>
      <trkpt lat="51.924083" lon="8.826491">
        <ele>193.175745</ele>
        <time>2024-11-19T18:12:33.182Z</time>
      </trkpt>
      <trkpt lat="51.924087" lon="8.826514">
        <ele>193.174785</ele>
        <time>2024-11-19T18:12:33.534Z</time>
      </trkpt>
      <trkpt lat="51.924130" lon="8.826753">
        <ele>193.019637</ele>
        <time>2024-11-19T18:12:37.187Z</time>
      </trkpt>
      <trkpt lat="51.924222" lon="8.827269">
        <ele>192.429773</ele>
        <time>2024-11-19T18:12:44.628Z</time>
      </trkpt>
      <trkpt lat="51.924268" lon="8.827530">
        <ele>192.131675</ele>
        <time>2024-11-19T18:12:48.282Z</time>
      </trkpt>
      <trkpt lat="51.924325" lon="8.827843">
        <ele>191.773274</ele>
        <time>2024-11-19T18:12:52.645Z</time>
      </trkpt>
      <trkpt lat="51.924378" lon="8.828131">
        <ele>191.443220</ele>
        <time>2024-11-19T18:12:56.646Z</time>
      </trkpt>
      <trkpt lat="51.924422" lon="8.828392">
        <ele>191.146082</ele>
        <time>2024-11-19T18:13:00.297Z</time>
      </trkpt>
      <trkpt lat="51.924476" lon="8.828689">
        <ele>190.806047</ele>
        <time>2024-11-19T18:13:04.425Z</time>
      </trkpt>
      <trkpt lat="51.924541" lon="8.829063">
        <ele>190.379335</ele>
        <time>2024-11-19T18:13:09.378Z</time>
      </trkpt>
      <trkpt lat="51.924590" lon="8.829341">
        <ele>190.061821</ele>
        <time>2024-11-19T18:13:12.898Z</time>
      </trkpt>
      <trkpt lat="51.924652" lon="8.829689">
        <ele>189.474023</ele>
        <time>2024-11-19T18:13:17.232Z</time>
      </trkpt>
      <trkpt lat="51.924556" lon="8.830121">
        <ele>188.653943</ele>
        <time>2024-11-19T18:13:22.700Z</time>
      </trkpt>
      <trkpt lat="51.924374" lon="8.830868">
        <ele>187.219514</ele>
        <time>2024-11-19T18:13:32.460Z</time>
      </trkpt>
      <trkpt lat="51.924280" lon="8.831253">
        <ele>186.480003</ele>
        <time>2024-11-19T18:13:37.602Z</time>
      </trkpt>
      <trkpt lat="51.924233" lon="8.831471">
        <ele>186.067563</ele>
        <time>2024-11-19T18:13:40.458Z</time>
      </trkpt>
      <trkpt lat="51.924393" lon="8.831528">
        <ele>185.593161</ele>
        <time>2024-11-19T18:13:43.741Z</time>
      </trkpt>
      <trkpt lat="51.924515" lon="8.831572">
        <ele>185.231223</ele>
        <time>2024-11-19T18:13:46.215Z</time>
      </trkpt>
      <trkpt lat="51.925043" lon="8.831761">
        <ele>184.160836</ele>
        <time>2024-11-19T18:13:57.021Z</time>
      </trkpt>
      <trkpt lat="51.925111" lon="8.831786">
        <ele>184.050425</ele>
        <time>2024-11-19T18:13:58.436Z</time>
      </trkpt>
      <trkpt lat="51.925744" lon="8.832007">
        <ele>183.025098</ele>
        <time>2024-11-19T18:14:12.353Z</time>
      </trkpt>
      <trkpt lat="51.926617" lon="8.832316">
        <ele>181.734912</ele>
        <time>2024-11-19T18:14:34.124Z</time>
      </trkpt>
      <trkpt lat="51.926760" lon="8.832379">
        <ele>181.597735</ele>
        <time>2024-11-19T18:14:37.749Z</time>
      </trkpt>
      <trkpt lat="51.927105" lon="8.832482">
        <ele>181.272991</ele>
        <time>2024-11-19T18:14:46.310Z</time>
      </trkpt>
      <trkpt lat="51.927138" lon="8.832493">
        <ele>181.241803</ele>
        <time>2024-11-19T18:14:47.134Z</time>
      </trkpt>
      <trkpt lat="51.927409" lon="8.832582">
        <ele>180.985838</ele>
        <time>2024-11-19T18:14:53.637Z</time>
      </trkpt>
      <trkpt lat="51.927552" lon="8.832630">
        <ele>180.850652</ele>
        <time>2024-11-19T18:14:57.039Z</time>
      </trkpt>
      <trkpt lat="51.927681" lon="8.832680">
        <ele>180.727870</ele>
        <time>2024-11-19T18:15:00.093Z</time>
      </trkpt>
      <trkpt lat="51.928123" lon="8.832851">
        <ele>180.307215</ele>
        <time>2024-11-19T18:15:10.407Z</time>
      </trkpt>
      <trkpt lat="51.928201" lon="8.832876">
        <ele>180.212297</ele>
        <time>2024-11-19T18:15:12.184Z</time>
      </trkpt>
      <trkpt lat="51.928364" lon="8.832928">
        <ele>179.781430</ele>
        <time>2024-11-19T18:15:15.828Z</time>
      </trkpt>
      <trkpt lat="51.929113" lon="8.833170">
        <ele>177.800608</ele>
        <time>2024-11-19T18:15:32.342Z</time>
      </trkpt>
      <trkpt lat="51.929645" lon="8.833360">
        <ele>176.387725</ele>
        <time>2024-11-19T18:15:43.269Z</time>
      </trkpt>
      <trkpt lat="51.929590" lon="8.833497">
        <ele>176.126274</ele>
        <time>2024-11-19T18:15:45.246Z</time>
      </trkpt>
      <trkpt lat="51.929296" lon="8.834608">
        <ele>173.319063</ele>
        <time>2024-11-19T18:15:58.760Z</time>
      </trkpt>
      <trkpt lat="51.929282" lon="8.834661">
        <ele>173.168793</ele>
        <time>2024-11-19T18:15:59.384Z</time>
      </trkpt>
      <trkpt lat="51.929269" lon="8.834705">
        <ele>173.041635</ele>
        <time>2024-11-19T18:15:59.917Z</time>
      </trkpt>
      <trkpt lat="51.929166" lon="8.835084">
        <ele>171.962195</ele>
        <time>2024-11-19T18:16:04.453Z</time>
      </trkpt>
      <trkpt lat="51.929027" lon="8.835610">
        <ele>170.470732</ele>
        <time>2024-11-19T18:16:10.704Z</time>
      </trkpt>
      <trkpt lat="51.928971" lon="8.835818">
        <ele>169.879215</ele>
        <time>2024-11-19T18:16:13.249Z</time>
      </trkpt>
      <trkpt lat="51.928842" lon="8.836306">
        <ele>168.495425</ele>
        <time>2024-11-19T18:16:19.482Z</time>
      </trkpt>
      <trkpt lat="51.928797" lon="8.836472">
        <ele>168.022826</ele>
        <time>2024-11-19T18:16:21.795Z</time>
      </trkpt>
      <trkpt lat="51.928783" lon="8.836525">
        <ele>168.016729</ele>
        <time>2024-11-19T18:16:22.533Z</time>
      </trkpt>
      <trkpt lat="51.928618" lon="8.837141">
        <ele>168.651650</ele>
        <time>2024-11-19T18:16:32.531Z</time>
      </trkpt>
      <trkpt lat="51.928577" lon="8.837274">
        <ele>168.792222</ele>
        <time>2024-11-19T18:16:35.618Z</time>
      </trkpt>
      <trkpt lat="51.928498" lon="8.837406">
        <ele>168.966123</ele>
        <time>2024-11-19T18:16:39.643Z</time>
      </trkpt>
      <trkpt lat="51.928298" lon="8.837626">
        <ele>169.336628</ele>
        <time>2024-11-19T18:16:48.470Z</time>
      </trkpt>
      <trkpt lat="51.928227" lon="8.837735">
        <ele>169.486518</ele>
        <time>2024-11-19T18:16:52.216Z</time>
      </trkpt>
      <trkpt lat="51.928088" lon="8.838186">
        <ele>169.963178</ele>
        <time>2024-11-19T18:17:05.105Z</time>
      </trkpt>
      <trkpt lat="51.927935" lon="8.838681">
        <ele>170.486643</ele>
        <time>2024-11-19T18:17:20.393Z</time>
      </trkpt>
      <trkpt lat="51.928098" lon="8.838751">
        <ele>170.750424</ele>
        <time>2024-11-19T18:17:28.167Z</time>
      </trkpt>
      <trkpt lat="51.928290" lon="8.838756">
        <ele>171.211844</ele>
        <time>2024-11-19T18:17:36.905Z</time>
      </trkpt>
      <trkpt lat="51.928321" lon="8.838849">
        <ele>171.368492</ele>
        <time>2024-11-19T18:17:39.905Z</time>
      </trkpt>
      <trkpt lat="51.928267" lon="8.838953">
        <ele>171.569948</ele>
        <time>2024-11-19T18:17:43.548Z</time>
      </trkpt>
      <trkpt lat="51.928073" lon="8.839804">
        <ele>172.914334</ele>
        <time>2024-11-19T18:18:06.041Z</time>
      </trkpt>
      <trkpt lat="51.927975" lon="8.840233">
        <ele>173.592227</ele>
        <time>2024-11-19T18:18:15.595Z</time>
      </trkpt>
      <trkpt lat="51.927912" lon="8.840585">
        <ele>174.135333</ele>
        <time>2024-11-19T18:18:23.528Z</time>
      </trkpt>
      <trkpt lat="51.927807" lon="8.841090">
        <ele>174.925017</ele>
        <time>2024-11-19T18:18:34.440Z</time>
      </trkpt>
      <trkpt lat="51.927763" lon="8.841364">
        <ele>175.294884</ele>
        <time>2024-11-19T18:18:40.181Z</time>
      </trkpt>
      <trkpt lat="51.927720" lon="8.841693">
        <ele>175.706868</ele>
        <time>2024-11-19T18:18:47.168Z</time>
      </trkpt>
      <trkpt lat="51.927724" lon="8.842801">
        <ele>177.064209</ele>
        <time>2024-11-19T18:19:11.119Z</time>
      </trkpt>
      <trkpt lat="51.927748" lon="8.842880">
        <ele>177.172092</ele>
        <time>2024-11-19T18:19:13.069Z</time>
      </trkpt>
      <trkpt lat="51.927458" lon="8.844022">
        <ele>178.696087</ele>
        <time>2024-11-19T18:19:42.061Z</time>
      </trkpt>
      <trkpt lat="51.927464" lon="8.844164">
        <ele>178.906059</ele>
        <time>2024-11-19T18:19:45.797Z</time>
      </trkpt>
      <trkpt lat="51.927428" lon="8.844339">
        <ele>179.178208</ele>
        <time>2024-11-19T18:19:50.742Z</time>
      </trkpt>
      <trkpt lat="51.927194" lon="8.845481">
        <ele>180.953479</ele>
        <time>2024-11-19T18:20:22.622Z</time>
      </trkpt>
      <trkpt lat="51.927141" lon="8.845417">
        <ele>181.111561</ele>
        <time>2024-11-19T18:20:25.292Z</time>
      </trkpt>
      <trkpt lat="51.927066" lon="8.845834">
        <ele>181.752362</ele>
        <time>2024-11-19T18:20:35.548Z</time>
      </trkpt>
      <trkpt lat="51.926959" lon="8.846140">
        <ele>182.271306</ele>
        <time>2024-11-19T18:20:43.852Z</time>
      </trkpt>
      <trkpt lat="51.926840" lon="8.846478">
        <ele>182.845479</ele>
        <time>2024-11-19T18:20:53.010Z</time>
      </trkpt>
      <trkpt lat="51.926419" lon="8.847767">
        <ele>184.068797</ele>
        <time>2024-11-19T18:21:26.083Z</time>
      </trkpt>
      <trkpt lat="51.926372" lon="8.847925">
        <ele>184.211140</ele>
        <time>2024-11-19T18:21:29.813Z</time>
      </trkpt>
      <trkpt lat="51.926163" lon="8.848112">
        <ele>184.525232</ele>
        <time>2024-11-19T18:21:37.847Z</time>
      </trkpt>
      <trkpt lat="51.925790" lon="8.848429">
        <ele>185.079355</ele>
        <time>2024-11-19T18:21:50.891Z</time>
      </trkpt>
      <trkpt lat="51.925564" lon="8.848614">
        <ele>185.143410</ele>
        <time>2024-11-19T18:21:57.937Z</time>
      </trkpt>
      <trkpt lat="51.925276" lon="8.848851">
        <ele>184.547204</ele>
        <time>2024-11-19T18:22:06.133Z</time>
      </trkpt>
      <trkpt lat="51.925001" lon="8.849154">
        <ele>183.933436</ele>
        <time>2024-11-19T18:22:13.897Z</time>
      </trkpt>
      <trkpt lat="51.924955" lon="8.849216">
        <ele>183.823014</ele>
        <time>2024-11-19T18:22:15.204Z</time>
      </trkpt>
      <trkpt lat="51.924885" lon="8.849412">
        <ele>183.565161</ele>
        <time>2024-11-19T18:22:18.233Z</time>
      </trkpt>
      <trkpt lat="51.924819" lon="8.849598">
        <ele>183.320859</ele>
        <time>2024-11-19T18:22:21.051Z</time>
      </trkpt>
      <trkpt lat="51.924621" lon="8.850156">
        <ele>182.587952</ele>
        <time>2024-11-19T18:22:29.019Z</time>
      </trkpt>
      <trkpt lat="51.924607" lon="8.850197">
        <ele>182.534598</ele>
        <time>2024-11-19T18:22:29.595Z</time>
      </trkpt>
      <trkpt lat="51.924364" lon="8.850881">
        <ele>181.163279</ele>
        <time>2024-11-19T18:22:38.761Z</time>
      </trkpt>
      <trkpt lat="51.924267" lon="8.851182">
        <ele>180.245703</ele>
        <time>2024-11-19T18:22:42.604Z</time>
      </trkpt>
      <trkpt lat="51.923713" lon="8.851573">
        <ele>177.598676</ele>
        <time>2024-11-19T18:22:53.606Z</time>
      </trkpt>
      <trkpt lat="51.923631" lon="8.851657">
        <ele>177.173747</ele>
        <time>2024-11-19T18:22:55.370Z</time>
      </trkpt>
      <trkpt lat="51.923293" lon="8.852163">
        <ele>175.158363</ele>
        <time>2024-11-19T18:23:03.825Z</time>
      </trkpt>
      <trkpt lat="51.923047" lon="8.852654">
        <ele>173.484981</ele>
        <time>2024-11-19T18:23:11.160Z</time>
      </trkpt>
      <trkpt lat="51.922976" lon="8.853079">
        <ele>172.360775</ele>
        <time>2024-11-19T18:23:20.515Z</time>
      </trkpt>
      <trkpt lat="51.922915" lon="8.853186">
        <ele>171.988744</ele>
        <time>2024-11-19T18:23:23.595Z</time>
      </trkpt>
      <trkpt lat="51.922695" lon="8.853934">
        <ele>169.872899</ele>
        <time>2024-11-19T18:23:41.271Z</time>
      </trkpt>
      <trkpt lat="51.922621" lon="8.853898">
        <ele>169.553053</ele>
        <time>2024-11-19T18:23:42.922Z</time>
      </trkpt>
      <trkpt lat="51.922550" lon="8.853910">
        <ele>169.257525</ele>
        <time>2024-11-19T18:23:44.444Z</time>
      </trkpt>
      <trkpt lat="51.922455" lon="8.854019">
        <ele>168.775727</ele>
        <time>2024-11-19T18:23:46.888Z</time>
      </trkpt>
      <trkpt lat="51.922207" lon="8.854579">
        <ele>167.015487</ele>
        <time>2024-11-19T18:23:55.683Z</time>
      </trkpt>
      <trkpt lat="51.921959" lon="8.855309">
        <ele>165.037706</ele>
        <time>2024-11-19T18:24:06.430Z</time>
      </trkpt>
      <trkpt lat="51.921827" lon="8.856120">
        <ele>163.078170</ele>
        <time>2024-11-19T18:24:17.403Z</time>
      </trkpt>
      <trkpt lat="51.921687" lon="8.856094">
        <ele>162.544379</ele>
        <time>2024-11-19T18:24:20.068Z</time>
      </trkpt>
      <trkpt lat="51.921612" lon="8.856060">
        <ele>162.249381</ele>
        <time>2024-11-19T18:24:21.581Z</time>
      </trkpt>
      <trkpt lat="51.921487" lon="8.856020">
        <ele>161.766744</ele>
        <time>2024-11-19T18:24:24.029Z</time>
      </trkpt>
      <trkpt lat="51.921308" lon="8.855963">
        <ele>161.075735</ele>
        <time>2024-11-19T18:24:27.590Z</time>
      </trkpt>
      <trkpt lat="51.921128" lon="8.858303">
        <ele>156.546649</ele>
        <time>2024-11-19T18:24:56.622Z</time>
      </trkpt>
      <trkpt lat="51.921108" lon="8.858579">
        <ele>156.046285</ele>
        <time>2024-11-19T18:24:59.932Z</time>
      </trkpt>
      <trkpt lat="51.921048" lon="8.859393">
        <ele>154.573555</ele>
        <time>2024-11-19T18:25:09.933Z</time>
      </trkpt>
      <trkpt lat="51.921031" lon="8.859650">
        <ele>154.187814</ele>
        <time>2024-11-19T18:25:13.130Z</time>
      </trkpt>
      <trkpt lat="51.920932" lon="8.859623">
        <ele>153.944893</ele>
        <time>2024-11-19T18:25:15.158Z</time>
      </trkpt>
      <trkpt lat="51.920926" lon="8.859688">
        <ele>153.846808</ele>
        <time>2024-11-19T18:25:15.961Z</time>
      </trkpt>
      <trkpt lat="51.920972" lon="8.859759">
        <ele>153.693129</ele>
        <time>2024-11-19T18:25:17.244Z</time>
      </trkpt>
      <trkpt lat="51.920941" lon="8.860036">
        <ele>153.272989</ele>
        <time>2024-11-19T18:25:20.720Z</time>
      </trkpt>
      <trkpt lat="51.920918" lon="8.860313">
        <ele>152.855870</ele>
        <time>2024-11-19T18:25:24.211Z</time>
      </trkpt>
      <trkpt lat="51.920954" lon="8.860320">
        <ele>152.768134</ele>
        <time>2024-11-19T18:25:24.925Z</time>
      </trkpt>
      <trkpt lat="51.921005" lon="8.860330">
        <ele>152.643827</ele>
        <time>2024-11-19T18:25:25.964Z</time>
      </trkpt>
      <trkpt lat="51.921044" lon="8.860337">
        <ele>152.548880</ele>
        <time>2024-11-19T18:25:26.773Z</time>
      </trkpt>
      <trkpt lat="51.921073" lon="8.860345">
        <ele>152.477699</ele>
        <time>2024-11-19T18:25:27.589Z</time>
      </trkpt>
      <trkpt lat="51.921196" lon="8.860716">
        <ele>151.849101</ele>
        <time>2024-11-19T18:25:34.907Z</time>
      </trkpt>
      <trkpt lat="51.921421" lon="8.861085">
        <ele>151.074714</ele>
        <time>2024-11-19T18:25:44.104Z</time>
      </trkpt>
      <trkpt lat="51.921561" lon="8.861203">
        <ele>150.692911</ele>
        <time>2024-11-19T18:25:47.468Z</time>
      </trkpt>
      <trkpt lat="51.921815" lon="8.861417">
        <ele>150.108856</ele>
        <time>2024-11-19T18:25:53.712Z</time>
      </trkpt>
      <trkpt lat="51.922514" lon="8.862061">
        <ele>149.054256</ele>
        <time>2024-11-19T18:26:10.472Z</time>
      </trkpt>
      <trkpt lat="51.922699" lon="8.862309">
        <ele>148.739385</ele>
        <time>2024-11-19T18:26:15.666Z</time>
      </trkpt>
      <trkpt lat="51.922869" lon="8.862707">
        <ele>148.347723</ele>
        <time>2024-11-19T18:26:22.576Z</time>
      </trkpt>
      <trkpt lat="51.922875" lon="8.862787">
        <ele>148.282527</ele>
        <time>2024-11-19T18:26:23.735Z</time>
      </trkpt>
      <trkpt lat="51.923025" lon="8.863240">
        <ele>147.887357</ele>
        <time>2024-11-19T18:26:31.865Z</time>
      </trkpt>
      <trkpt lat="51.923186" lon="8.863732">
        <ele>148.254738</ele>
        <time>2024-11-19T18:26:41.928Z</time>
      </trkpt>
      <trkpt lat="51.923221" lon="8.863763">
        <ele>148.297393</ele>
        <time>2024-11-19T18:26:43.208Z</time>
      </trkpt>
      <trkpt lat="51.923421" lon="8.863846">
        <ele>148.518196</ele>
        <time>2024-11-19T18:26:49.816Z</time>
      </trkpt>
      <trkpt lat="51.923510" lon="8.864149">
        <ele>148.739566</ele>
        <time>2024-11-19T18:26:56.808Z</time>
      </trkpt>
      <trkpt lat="51.923522" lon="8.864189">
        <ele>148.768906</ele>
        <time>2024-11-19T18:26:57.763Z</time>
      </trkpt>
      <trkpt lat="51.923648" lon="8.864562">
        <ele>149.049427</ele>
        <time>2024-11-19T18:27:07.125Z</time>
      </trkpt>
      <trkpt lat="51.923751" lon="8.864962">
        <ele>149.335341</ele>
        <time>2024-11-19T18:27:16.761Z</time>
      </trkpt>
      <trkpt lat="51.924058" lon="8.865272">
        <ele>149.722152</ele>
        <time>2024-11-19T18:27:29.386Z</time>
      </trkpt>
      <trkpt lat="51.924341" lon="8.865625">
        <ele>149.661415</ele>
        <time>2024-11-19T18:27:40.595Z</time>
      </trkpt>
      <trkpt lat="51.924595" lon="8.865942">
        <ele>149.502267</ele>
        <time>2024-11-19T18:27:49.387Z</time>
      </trkpt>
      <trkpt lat="51.925233" lon="8.866566">
        <ele>149.132320</ele>
        <time>2024-11-19T18:28:06.272Z</time>
      </trkpt>
      <trkpt lat="51.925430" lon="8.866710">
        <ele>149.025026</ele>
        <time>2024-11-19T18:28:10.869Z</time>
      </trkpt>
      <trkpt lat="51.926412" lon="8.867865">
        <ele>147.913850</ele>
        <time>2024-11-19T18:28:38.678Z</time>
      </trkpt>
      <trkpt lat="51.926653" lon="8.867959">
        <ele>147.661914</ele>
        <time>2024-11-19T18:28:44.960Z</time>
      </trkpt>
      <trkpt lat="51.926797" lon="8.868166">
        <ele>147.466326</ele>
        <time>2024-11-19T18:28:49.496Z</time>
      </trkpt>
      <trkpt lat="51.927006" lon="8.868608">
        <ele>147.117224</ele>
        <time>2024-11-19T18:28:57.276Z</time>
      </trkpt>
      <trkpt lat="51.927050" lon="8.868766">
        <ele>147.009965</ele>
        <time>2024-11-19T18:28:59.708Z</time>
      </trkpt>
      <trkpt lat="51.927247" lon="8.869420">
        <ele>146.562647</ele>
        <time>2024-11-19T18:29:10.240Z</time>
      </trkpt>
      <trkpt lat="51.927242" lon="8.869587">
        <ele>146.459893</ele>
        <time>2024-11-19T18:29:12.595Z</time>
      </trkpt>
      <trkpt lat="51.927213" lon="8.869685">
        <ele>146.393089</ele>
        <time>2024-11-19T18:29:14.055Z</time>
      </trkpt>
      <trkpt lat="51.927012" lon="8.870113">
        <ele>146.062460</ele>
        <time>2024-11-19T18:29:21.403Z</time>
      </trkpt>
      <trkpt lat="51.926979" lon="8.870185">
        <ele>146.007327</ele>
        <time>2024-11-19T18:29:23.098Z</time>
      </trkpt>
      <trkpt lat="51.927254" lon="8.870517">
        <ele>145.665649</ele>
        <time>2024-11-19T18:29:33.355Z</time>
      </trkpt>
      <trkpt lat="51.929025" lon="8.872647">
        <ele>144.396606</ele>
        <time>2024-11-19T18:30:48.105Z</time>
      </trkpt>
      <trkpt lat="51.929074" lon="8.872704">
        <ele>144.298729</ele>
        <time>2024-11-19T18:30:50.004Z</time>
      </trkpt>
      <trkpt lat="51.929755" lon="8.873553">
        <ele>142.904532</ele>
        <time>2024-11-19T18:31:09.767Z</time>
      </trkpt>
      <trkpt lat="51.929858" lon="8.873752">
        <ele>142.644500</ele>
        <time>2024-11-19T18:31:13.523Z</time>
      </trkpt>
      <trkpt lat="51.929949" lon="8.873954">
        <ele>142.394123</ele>
        <time>2024-11-19T18:31:17.094Z</time>
      </trkpt>
      <trkpt lat="51.930063" lon="8.874196">
        <ele>142.089329</ele>
        <time>2024-11-19T18:31:21.458Z</time>
      </trkpt>
      <trkpt lat="51.930100" lon="8.874276">
        <ele>141.989242</ele>
        <time>2024-11-19T18:31:22.896Z</time>
      </trkpt>
      <trkpt lat="51.930275" lon="8.874623">
        <ele>141.540588</ele>
        <time>2024-11-19T18:31:28.618Z</time>
      </trkpt>
      <trkpt lat="51.930363" lon="8.874800">
        <ele>141.453273</ele>
        <time>2024-11-19T18:31:31.615Z</time>
      </trkpt>
      <trkpt lat="51.930819" lon="8.875201">
        <ele>141.177452</ele>
        <time>2024-11-19T18:31:42.950Z</time>
      </trkpt>
      <trkpt lat="51.931127" lon="8.875466">
        <ele>140.992059</ele>
        <time>2024-11-19T18:31:51.623Z</time>
      </trkpt>
      <trkpt lat="51.931090" lon="8.875576">
        <ele>140.950976</ele>
        <time>2024-11-19T18:31:53.737Z</time>
      </trkpt>
      <trkpt lat="51.931072" lon="8.875630">
        <ele>140.930849</ele>
        <time>2024-11-19T18:31:54.884Z</time>
      </trkpt>
      <trkpt lat="51.931021" lon="8.875780">
        <ele>140.874688</ele>
        <time>2024-11-19T18:31:57.892Z</time>
      </trkpt>
      <trkpt lat="51.930999" lon="8.875848">
        <ele>140.849510</ele>
        <time>2024-11-19T18:31:59.332Z</time>
      </trkpt>
      <trkpt lat="51.931338" lon="8.876168">
        <ele>140.640943</ele>
        <time>2024-11-19T18:32:10.563Z</time>
      </trkpt>
      <trkpt lat="51.931319" lon="8.876225">
        <ele>140.619699</ele>
        <time>2024-11-19T18:32:11.738Z</time>
      </trkpt>
      <trkpt lat="51.931155" lon="8.876697">
        <ele>140.570221</ele>
        <time>2024-11-19T18:32:21.730Z</time>
      </trkpt>
      <trkpt lat="51.931135" lon="8.876756">
        <ele>140.571120</ele>
        <time>2024-11-19T18:32:22.988Z</time>
      </trkpt>
      <trkpt lat="51.931047" lon="8.877001">
        <ele>140.574904</ele>
        <time>2024-11-19T18:32:28.324Z</time>
      </trkpt>
      <trkpt lat="51.931018" lon="8.877080">
        <ele>140.576131</ele>
        <time>2024-11-19T18:32:29.996Z</time>
      </trkpt>
      <trkpt lat="51.930831" lon="8.877609">
        <ele>140.584270</ele>
        <time>2024-11-19T18:32:40.469Z</time>
      </trkpt>
      <trkpt lat="51.930737" lon="8.877869">
        <ele>140.588293</ele>
        <time>2024-11-19T18:32:45.512Z</time>
      </trkpt>
      <trkpt lat="51.930715" lon="8.877928">
        <ele>140.589213</ele>
        <time>2024-11-19T18:32:46.624Z</time>
      </trkpt>
      <trkpt lat="51.930663" lon="8.878065">
        <ele>140.591360</ele>
        <time>2024-11-19T18:32:49.175Z</time>
      </trkpt>
      <trkpt lat="51.930597" lon="8.878236">
        <ele>140.594053</ele>
        <time>2024-11-19T18:32:52.253Z</time>
      </trkpt>
      <trkpt lat="51.931402" lon="8.879186">
        <ele>140.600837</ele>
        <time>2024-11-19T18:33:16.361Z</time>
      </trkpt>
      <trkpt lat="51.931741" lon="8.879592">
        <ele>140.598208</ele>
        <time>2024-11-19T18:33:26.674Z</time>
      </trkpt>
      <trkpt lat="51.931904" lon="8.879790">
        <ele>140.596937</ele>
        <time>2024-11-19T18:33:32.049Z</time>
      </trkpt>
      <trkpt lat="51.931887" lon="8.879832">
        <ele>140.596743</ele>
        <time>2024-11-19T18:33:33.182Z</time>
      </trkpt>
      <trkpt lat="51.931840" lon="8.879943">
        <ele>140.596225</ele>
        <time>2024-11-19T18:33:36.263Z</time>
      </trkpt>
      <trkpt lat="51.931659" lon="8.880324">
        <ele>140.594375</ele>
        <time>2024-11-19T18:33:47.917Z</time>
      </trkpt>
      <trkpt lat="51.931541" lon="8.880566">
        <ele>140.593188</ele>
        <time>2024-11-19T18:33:55.749Z</time>
      </trkpt>
      <trkpt lat="51.931415" lon="8.880830">
        <ele>140.656941</ele>
        <time>2024-11-19T18:34:04.058Z</time>
      </trkpt>
      <trkpt lat="51.931393" lon="8.880880">
        <ele>140.671856</ele>
        <time>2024-11-19T18:34:05.585Z</time>
      </trkpt>
      <trkpt lat="51.930971" lon="8.881728">
        <ele>140.936469</ele>
        <time>2024-11-19T18:34:31.610Z</time>
      </trkpt>
      <trkpt lat="51.930956" lon="8.881759">
        <ele>140.946037</ele>
        <time>2024-11-19T18:34:32.507Z</time>
      </trkpt>
      <trkpt lat="51.930934" lon="8.881804">
        <ele>140.959982</ele>
        <time>2024-11-19T18:34:33.817Z</time>
      </trkpt>
      <trkpt lat="51.930900" lon="8.881871">
        <ele>140.981053</ele>
        <time>2024-11-19T18:34:35.788Z</time>
      </trkpt>
      <trkpt lat="51.930885" lon="8.881899">
        <ele>140.990060</ele>
        <time>2024-11-19T18:34:36.695Z</time>
      </trkpt>
      <trkpt lat="51.930941" lon="8.881963">
        <ele>141.017039</ele>
        <time>2024-11-19T18:34:38.751Z</time>
      </trkpt>
      <trkpt lat="51.931005" lon="8.882037">
        <ele>141.047993</ele>
        <time>2024-11-19T18:34:41.057Z</time>
      </trkpt>
      <trkpt lat="51.930983" lon="8.882195">
        <ele>141.087325</ele>
        <time>2024-11-19T18:34:44.902Z</time>
      </trkpt>
      <trkpt lat="51.930814" lon="8.882557">
        <ele>141.197581</ele>
        <time>2024-11-19T18:34:55.201Z</time>
      </trkpt>
      <trkpt lat="51.930822" lon="8.882568">
        <ele>141.201712</ele>
        <time>2024-11-19T18:34:55.563Z</time>
      </trkpt>
      <trkpt lat="51.931226" lon="8.883042">
        <ele>140.996935</ele>
        <time>2024-11-19T18:35:11.585Z</time>
      </trkpt>
      <trkpt lat="51.931159" lon="8.883146">
        <ele>140.882166</ele>
        <time>2024-11-19T18:35:14.471Z</time>
      </trkpt>
      <trkpt lat="51.931017" lon="8.883445">
        <ele>140.594188</ele>
        <time>2024-11-19T18:35:21.577Z</time>
      </trkpt>
      <trkpt lat="51.930962" lon="8.883567">
        <ele>140.478869</ele>
        <time>2024-11-19T18:35:24.440Z</time>
      </trkpt>
      <trkpt lat="51.931008" lon="8.883793">
        <ele>140.297268</ele>
        <time>2024-11-19T18:35:28.898Z</time>
      </trkpt>
      <trkpt lat="51.931086" lon="8.883915">
        <ele>140.163167</ele>
        <time>2024-11-19T18:35:32.100Z</time>
      </trkpt>
      <trkpt lat="51.931010" lon="8.884204">
        <ele>139.923429</ele>
        <time>2024-11-19T18:35:37.807Z</time>
      </trkpt>
      <trkpt lat="51.931328" lon="8.884616">
        <ele>139.419752</ele>
        <time>2024-11-19T18:35:49.992Z</time>
      </trkpt>
      <trkpt lat="51.931370" lon="8.884640">
        <ele>139.364646</ele>
        <time>2024-11-19T18:35:51.310Z</time>
      </trkpt>
      <trkpt lat="51.931467" lon="8.884611">
        <ele>139.242587</ele>
        <time>2024-11-19T18:35:54.197Z</time>
      </trkpt>
      <trkpt lat="51.931628" lon="8.884419">
        <ele>139.072197</ele>
        <time>2024-11-19T18:36:00.009Z</time>
      </trkpt>
      <trkpt lat="51.931648" lon="8.884426">
        <ele>139.071173</ele>
        <time>2024-11-19T18:36:00.615Z</time>
      </trkpt>
      <trkpt lat="51.931777" lon="8.884563">
        <ele>139.063451</ele>
        <time>2024-11-19T18:36:04.009Z</time>
      </trkpt>
      <trkpt lat="51.931813" lon="8.884602">
        <ele>139.061283</ele>
        <time>2024-11-19T18:36:04.978Z</time>
      </trkpt>
      <trkpt lat="51.931882" lon="8.884678">
        <ele>139.057107</ele>
        <time>2024-11-19T18:36:06.925Z</time>
      </trkpt>
      <trkpt lat="51.932050" lon="8.884457">
        <ele>139.046275</ele>
        <time>2024-11-19T18:36:12.185Z</time>
      </trkpt>
      <trkpt lat="51.932170" lon="8.884358">
        <ele>139.039533</ele>
        <time>2024-11-19T18:36:15.709Z</time>
      </trkpt>
      <trkpt lat="51.932498" lon="8.884345">
        <ele>139.023103</ele>
        <time>2024-11-19T18:36:24.638Z</time>
      </trkpt>
      <trkpt lat="51.932700" lon="8.884334">
        <ele>139.012982</ele>
        <time>2024-11-19T18:36:30.303Z</time>
      </trkpt>
      <trkpt lat="51.932784" lon="8.884387">
        <ele>139.008469</ele>
        <time>2024-11-19T18:36:32.895Z</time>
      </trkpt>
      <trkpt lat="51.933093" lon="8.884643">
        <ele>138.991094</ele>
        <time>2024-11-19T18:36:43.821Z</time>
      </trkpt>
      <trkpt lat="51.933043" lon="8.884842">
        <ele>139.007309</ele>
        <time>2024-11-19T18:36:47.879Z</time>
      </trkpt>
      <trkpt lat="51.933023" lon="8.884903">
        <ele>139.058479</ele>
        <time>2024-11-19T18:36:49.194Z</time>
      </trkpt>
      <trkpt lat="51.932795" lon="8.885597">
        <ele>139.640894</ele>
        <time>2024-11-19T18:37:05.702Z</time>
      </trkpt>
      <trkpt lat="51.932727" lon="8.885803">
        <ele>139.813955</ele>
        <time>2024-11-19T18:37:10.966Z</time>
      </trkpt>
      <trkpt lat="51.932632" lon="8.886030">
        <ele>140.017151</ele>
        <time>2024-11-19T18:37:17.016Z</time>
      </trkpt>
      <trkpt lat="51.932616" lon="8.886110">
        <ele>140.079441</ele>
        <time>2024-11-19T18:37:18.755Z</time>
      </trkpt>
      <trkpt lat="51.932599" lon="8.886193">
        <ele>140.144218</ele>
        <time>2024-11-19T18:37:20.559Z</time>
      </trkpt>
      <trkpt lat="51.932564" lon="8.886334">
        <ele>140.256794</ele>
        <time>2024-11-19T18:37:24.436Z</time>
      </trkpt>
      <trkpt lat="51.932574" lon="8.886468">
        <ele>140.356765</ele>
        <time>2024-11-19T18:37:27.817Z</time>
      </trkpt>
      <trkpt lat="51.932590" lon="8.886645">
        <ele>140.489260</ele>
        <time>2024-11-19T18:37:32.120Z</time>
      </trkpt>
      <trkpt lat="51.932643" lon="8.887223">
        <ele>140.922061</ele>
        <time>2024-11-19T18:37:46.433Z</time>
      </trkpt>
      <trkpt lat="51.932643" lon="8.887444">
        <ele>141.085744</ele>
        <time>2024-11-19T18:37:51.791Z</time>
      </trkpt>
      <trkpt lat="51.932524" lon="8.888151">
        <ele>141.417114</ele>
        <time>2024-11-19T18:38:09.465Z</time>
      </trkpt>
      <trkpt lat="51.932113" lon="8.890774">
        <ele>142.754147</ele>
        <time>2024-11-19T18:38:58.233Z</time>
      </trkpt>
      <trkpt lat="51.931802" lon="8.892967">
        <ele>144.765725</ele>
        <time>2024-11-19T18:39:45.134Z</time>
      </trkpt>
      <trkpt lat="51.931706" lon="8.893307">
        <ele>145.018654</ele>
        <time>2024-11-19T18:39:54.322Z</time>
      </trkpt>
      <trkpt lat="51.931912" lon="8.893459">
        <ele>145.145118</ele>
        <time>2024-11-19T18:40:03.166Z</time>
      </trkpt>
      <trkpt lat="51.931858" lon="8.893537">
        <ele>145.185525</ele>
        <time>2024-11-19T18:40:05.753Z</time>
      </trkpt>
      <trkpt lat="51.931912" lon="8.893459">
        <ele>145.225933</ele>
        <time>2024-11-19T18:40:08.488Z</time>
      </trkpt>
      <trkpt lat="51.932016" lon="8.893498">
        <ele>145.285580</ele>
        <time>2024-11-19T18:40:12.254Z</time>
      </trkpt>
      <trkpt lat="51.931963" lon="8.893635">
        <ele>145.341304</ele>
        <time>2024-11-19T18:40:15.780Z</time>
      </trkpt>
      <trkpt lat="51.931848" lon="8.893917">
        <ele>145.457794</ele>
        <time>2024-11-19T18:40:22.913Z</time>
      </trkpt>
      <trkpt lat="51.931706" lon="8.894391">
        <ele>145.639366</ele>
        <time>2024-11-19T18:40:32.520Z</time>
      </trkpt>
      <trkpt lat="51.931611" lon="8.894969">
        <ele>145.845469</ele>
        <time>2024-11-19T18:40:41.757Z</time>
      </trkpt>
      <trkpt lat="51.931543" lon="8.895381">
        <ele>145.943844</ele>
        <time>2024-11-19T18:40:48.092Z</time>
      </trkpt>
      <trkpt lat="51.931407" lon="8.895855">
        <ele>145.680524</ele>
        <time>2024-11-19T18:40:55.146Z</time>
      </trkpt>
      <trkpt lat="51.931357" lon="8.895916">
        <ele>145.629416</ele>
        <time>2024-11-19T18:40:56.474Z</time>
      </trkpt>
      <trkpt lat="51.931295" lon="8.896031">
        <ele>145.552475</ele>
        <time>2024-11-19T18:40:58.489Z</time>
      </trkpt>
      <trkpt lat="51.930775" lon="8.898393">
        <ele>145.264319</ele>
        <time>2024-11-19T18:41:37.169Z</time>
      </trkpt>
      <trkpt lat="51.930760" lon="8.898458">
        <ele>145.388467</ele>
        <time>2024-11-19T18:41:38.747Z</time>
      </trkpt>
      <trkpt lat="51.930755" lon="8.898480">
        <ele>145.430408</ele>
        <time>2024-11-19T18:41:39.281Z</time>
      </trkpt>
      <trkpt lat="51.930687" lon="8.898750">
        <ele>145.952116</ele>
        <time>2024-11-19T18:41:45.906Z</time>
      </trkpt>
      <trkpt lat="51.930666" lon="8.898833">
        <ele>146.112599</ele>
        <time>2024-11-19T18:41:47.983Z</time>
      </trkpt>
      <trkpt lat="51.930647" lon="8.898899">
        <ele>146.242893</ele>
        <time>2024-11-19T18:41:49.792Z</time>
      </trkpt>
      <trkpt lat="51.930589" lon="8.899091">
        <ele>146.625343</ele>
        <time>2024-11-19T18:41:55.046Z</time>
      </trkpt>
      <trkpt lat="51.930568" lon="8.899154">
        <ele>146.753450</ele>
        <time>2024-11-19T18:41:56.901Z</time>
      </trkpt>
      <trkpt lat="51.930489" lon="8.899466">
        <ele>147.356778</ele>
        <time>2024-11-19T18:42:05.689Z</time>
      </trkpt>
      <trkpt lat="51.930998" lon="8.900828">
        <ele>150.624077</ele>
        <time>2024-11-19T18:42:54.451Z</time>
      </trkpt>
      <trkpt lat="51.931065" lon="8.900912">
        <ele>151.081996</ele>
        <time>2024-11-19T18:42:59.412Z</time>
      </trkpt>
      <trkpt lat="51.931012" lon="8.901210">
        <ele>152.116081</ele>
        <time>2024-11-19T18:43:10.610Z</time>
      </trkpt>
      <trkpt lat="51.931028" lon="8.901310">
        <ele>152.460539</ele>
        <time>2024-11-19T18:43:14.321Z</time>
      </trkpt>
      <trkpt lat="51.931521" lon="8.901762">
        <ele>155.522810</ele>
        <time>2024-11-19T18:43:45.666Z</time>
      </trkpt>
      <trkpt lat="51.931752" lon="8.901915">
        <ele>156.872036</ele>
        <time>2024-11-19T18:43:59.006Z</time>
      </trkpt>
      <trkpt lat="51.931666" lon="8.903003">
        <ele>160.406025</ele>
        <time>2024-11-19T18:44:35.185Z</time>
      </trkpt>
      <trkpt lat="51.931598" lon="8.903234">
        <ele>161.162308</ele>
        <time>2024-11-19T18:44:44.521Z</time>
      </trkpt>
      <trkpt lat="51.931578" lon="8.903569">
        <ele>162.156702</ele>
        <time>2024-11-19T18:44:56.648Z</time>
      </trkpt>
      <trkpt lat="51.931536" lon="8.904101">
        <ele>163.741341</ele>
        <time>2024-11-19T18:45:15.079Z</time>
      </trkpt>
      <trkpt lat="51.931498" lon="8.904663">
        <ele>165.411740</ele>
        <time>2024-11-19T18:45:34.647Z</time>
      </trkpt>
      <trkpt lat="51.931483" lon="8.904884">
        <ele>166.068635</ele>
        <time>2024-11-19T18:45:42.471Z</time>
      </trkpt>
      <trkpt lat="51.931461" lon="8.905209">
        <ele>167.034627</ele>
        <time>2024-11-19T18:45:56.212Z</time>
      </trkpt>
      <trkpt lat="51.931394" lon="8.905670">
        <ele>168.384246</ele>
        <time>2024-11-19T18:46:16.427Z</time>
      </trkpt>
      <trkpt lat="51.931380" lon="8.906082">
        <ele>169.438799</ele>
        <time>2024-11-19T18:46:34.017Z</time>
      </trkpt>
      <trkpt lat="51.931563" lon="8.906278">
        <ele>170.347780</ele>
        <time>2024-11-19T18:46:49.164Z</time>
      </trkpt>
      <trkpt lat="51.931717" lon="8.906465">
        <ele>171.145172</ele>
        <time>2024-11-19T18:47:02.141Z</time>
      </trkpt>
      <trkpt lat="51.931861" lon="8.906723">
        <ele>172.034556</ele>
        <time>2024-11-19T18:47:16.005Z</time>
      </trkpt>
      <trkpt lat="51.931971" lon="8.907287">
        <ele>173.546352</ele>
        <time>2024-11-19T18:47:39.082Z</time>
      </trkpt>
      <trkpt lat="51.931990" lon="8.907385">
        <ele>173.808898</ele>
        <time>2024-11-19T18:47:43.093Z</time>
      </trkpt>
      <trkpt lat="51.932048" lon="8.907525">
        <ele>174.239954</ele>
        <time>2024-11-19T18:47:49.617Z</time>
      </trkpt>
      <trkpt lat="51.932259" lon="8.907762">
        <ele>175.303776</ele>
        <time>2024-11-19T18:48:05.694Z</time>
      </trkpt>
      <trkpt lat="51.931367" lon="8.909462">
        <ele>178.057056</ele>
        <time>2024-11-19T18:48:58.763Z</time>
      </trkpt>
      <trkpt lat="51.931253" lon="8.909695">
        <ele>178.408399</ele>
        <time>2024-11-19T18:49:04.693Z</time>
      </trkpt>
      <trkpt lat="51.930970" lon="8.910317">
        <ele>178.957806</ele>
        <time>2024-11-19T18:49:19.255Z</time>
      </trkpt>
      <trkpt lat="51.930949" lon="8.910299">
        <ele>178.956736</ele>
        <time>2024-11-19T18:49:19.932Z</time>
      </trkpt>
      <trkpt lat="51.930613" lon="8.911121">
        <ele>178.929365</ele>
        <time>2024-11-19T18:49:36.646Z</time>
      </trkpt>
      <trkpt lat="51.930227" lon="8.912064">
        <ele>178.897951</ele>
        <time>2024-11-19T18:49:54.601Z</time>
      </trkpt>
      <trkpt lat="51.930149" lon="8.912379">
        <ele>178.888529</ele>
        <time>2024-11-19T18:50:00.023Z</time>
      </trkpt>
      <trkpt lat="51.930183" lon="8.912399">
        <ele>178.886901</ele>
        <time>2024-11-19T18:50:01.008Z</time>
      </trkpt>
      <trkpt lat="51.930064" lon="8.913198">
        <ele>179.343998</ele>
        <time>2024-11-19T18:50:14.090Z</time>
      </trkpt>
      <trkpt lat="51.929916" lon="8.914501">
        <ele>180.143275</ele>
        <time>2024-11-19T18:50:38.784Z</time>
      </trkpt>
      <trkpt lat="51.929915" lon="8.914532">
        <ele>180.162002</ele>
        <time>2024-11-19T18:50:39.525Z</time>
      </trkpt>
      <trkpt lat="51.929836" lon="8.915585">
        <ele>181.059303</ele>
        <time>2024-11-19T18:51:04.550Z</time>
      </trkpt>
      <trkpt lat="51.929851" lon="8.915708">
        <ele>181.258897</ele>
        <time>2024-11-19T18:51:07.575Z</time>
      </trkpt>
      <trkpt lat="51.929906" lon="8.915807">
        <ele>181.471021</ele>
        <time>2024-11-19T18:51:10.874Z</time>
      </trkpt>
      <trkpt lat="51.930070" lon="8.915849">
        <ele>181.899649</ele>
        <time>2024-11-19T18:51:17.541Z</time>
      </trkpt>
      <trkpt lat="51.930151" lon="8.915870">
        <ele>182.111413</ele>
        <time>2024-11-19T18:51:20.850Z</time>
      </trkpt>
      <trkpt lat="51.930197" lon="8.915882">
        <ele>182.231693</ele>
        <time>2024-11-19T18:51:22.771Z</time>
      </trkpt>
      <trkpt lat="51.930191" lon="8.915958">
        <ele>182.353663</ele>
        <time>2024-11-19T18:51:24.847Z</time>
      </trkpt>
      <trkpt lat="51.930131" lon="8.916729">
        <ele>183.590727</ele>
        <time>2024-11-19T18:51:46.481Z</time>
      </trkpt>
      <trkpt lat="51.930256" lon="8.917597">
        <ele>185.009647</ele>
        <time>2024-11-19T18:52:10.133Z</time>
      </trkpt>
      <trkpt lat="51.930372" lon="8.918208">
        <ele>185.576717</ele>
        <time>2024-11-19T18:52:24.553Z</time>
      </trkpt>
      <trkpt lat="51.930484" lon="8.918636">
        <ele>185.865603</ele>
        <time>2024-11-19T18:52:34.667Z</time>
      </trkpt>
      <trkpt lat="51.930543" lon="8.918804">
        <ele>185.985729</ele>
        <time>2024-11-19T18:52:38.773Z</time>
      </trkpt>
      <trkpt lat="51.930664" lon="8.919142">
        <ele>186.228565</ele>
        <time>2024-11-19T18:52:46.997Z</time>
      </trkpt>
      <trkpt lat="51.930813" lon="8.919540">
        <ele>186.517863</ele>
        <time>2024-11-19T18:52:56.668Z</time>
      </trkpt>
      <trkpt lat="51.931254" lon="8.920360">
        <ele>187.145594</ele>
        <time>2024-11-19T18:53:18.184Z</time>
      </trkpt>
      <trkpt lat="51.931304" lon="8.920409">
        <ele>187.173972</ele>
        <time>2024-11-19T18:53:20.015Z</time>
      </trkpt>
      <trkpt lat="51.932033" lon="8.920854">
        <ele>187.552342</ele>
        <time>2024-11-19T18:53:44.003Z</time>
      </trkpt>
      <trkpt lat="51.931944" lon="8.921643">
        <ele>187.792583</ele>
        <time>2024-11-19T18:54:02.439Z</time>
      </trkpt>
      <trkpt lat="51.931989" lon="8.921655">
        <ele>187.814735</ele>
        <time>2024-11-19T18:54:05.574Z</time>
      </trkpt>
      <trkpt lat="51.932085" lon="8.921678">
        <ele>187.861874</ele>
        <time>2024-11-19T18:54:12.355Z</time>
      </trkpt>
      <trkpt lat="51.932178" lon="8.921697">
        <ele>187.907406</ele>
        <time>2024-11-19T18:54:18.809Z</time>
      </trkpt>
      <trkpt lat="51.932203" lon="8.921659">
        <ele>187.924050</ele>
        <time>2024-11-19T18:54:21.250Z</time>
      </trkpt>
      <trkpt lat="51.932220" lon="8.921614">
        <ele>187.939857</ele>
        <time>2024-11-19T18:54:23.504Z</time>
      </trkpt>
      <trkpt lat="51.932153" lon="8.921385">
        <ele>188.195044</ele>
        <time>2024-11-19T18:54:29.315Z</time>
      </trkpt>
      <trkpt lat="51.932158" lon="8.920924">
        <ele>188.930433</ele>
        <time>2024-11-19T18:54:40.568Z</time>
      </trkpt>
      <trkpt lat="51.932691" lon="8.921038">
        <ele>190.321093</ele>
        <time>2024-11-19T18:55:10.355Z</time>
      </trkpt>
      <trkpt lat="51.932907" lon="8.920995">
        <ele>190.884018</ele>
        <time>2024-11-19T18:55:21.397Z</time>
      </trkpt>
      <trkpt lat="51.933840" lon="8.921060">
        <ele>193.311304</ele>
        <time>2024-11-19T18:56:06.705Z</time>
      </trkpt>
      <trkpt lat="51.934008" lon="8.920924">
        <ele>193.805407</ele>
        <time>2024-11-19T18:56:16.003Z</time>
      </trkpt>
      <trkpt lat="51.934585" lon="8.920458">
        <ele>195.501623</ele>
        <time>2024-11-19T18:56:45.015Z</time>
      </trkpt>
      <trkpt lat="51.935577" lon="8.919658">
        <ele>197.359300</ele>
        <time>2024-11-19T18:57:25.166Z</time>
      </trkpt>
      <trkpt lat="51.935616" lon="8.919674">
        <ele>197.359223</ele>
        <time>2024-11-19T18:57:26.435Z</time>
      </trkpt>
      <trkpt lat="51.935795" lon="8.920082">
        <ele>197.358634</ele>
        <time>2024-11-19T18:57:35.936Z</time>
      </trkpt>
      <trkpt lat="51.935822" lon="8.920060">
        <ele>197.358576</ele>
        <time>2024-11-19T18:57:36.822Z</time>
      </trkpt>
      <trkpt lat="51.935855" lon="8.920031">
        <ele>197.358504</ele>
        <time>2024-11-19T18:57:37.959Z</time>
      </trkpt>
      <trkpt lat="51.935891" lon="8.920119">
        <ele>197.358380</ele>
        <time>2024-11-19T18:57:39.679Z</time>
      </trkpt>
      <trkpt lat="51.936175" lon="8.920793">
        <ele>197.357419</ele>
        <time>2024-11-19T18:57:52.230Z</time>
      </trkpt>
      <trkpt lat="51.936199" lon="8.920862">
        <ele>197.357326</ele>
        <time>2024-11-19T18:57:53.405Z</time>
      </trkpt>
      <trkpt lat="51.936232" lon="8.920816">
        <ele>197.357243</ele>
        <time>2024-11-19T18:57:55.167Z</time>
      </trkpt>
      <trkpt lat="51.937171" lon="8.920021">
        <ele>197.682940</ele>
        <time>2024-11-19T18:58:37.344Z</time>
      </trkpt>
      <trkpt lat="51.937445" lon="8.919908">
        <ele>197.807652</ele>
        <time>2024-11-19T18:58:49.494Z</time>
      </trkpt>
      <trkpt lat="51.937480" lon="8.919892">
        <ele>197.823692</ele>
        <time>2024-11-19T18:58:51.130Z</time>
      </trkpt>
      <trkpt lat="51.937503" lon="8.919910">
        <ele>197.834957</ele>
        <time>2024-11-19T18:58:52.290Z</time>
      </trkpt>
      <trkpt lat="51.937674" lon="8.920434">
        <ele>197.996196</ele>
        <time>2024-11-19T18:59:10.381Z</time>
      </trkpt>
      <trkpt lat="51.937844" lon="8.920779">
        <ele>198.116307</ele>
        <time>2024-11-19T18:59:25.372Z</time>
      </trkpt>
      <trkpt lat="51.937950" lon="8.921071">
        <ele>198.676107</ele>
        <time>2024-11-19T18:59:37.772Z</time>
      </trkpt>
      <trkpt lat="51.938060" lon="8.921868">
        <ele>200.676405</ele>
        <time>2024-11-19T19:00:11.044Z</time>
      </trkpt>
      <trkpt lat="51.938252" lon="8.923255">
        <ele>204.157960</ele>
        <time>2024-11-19T19:01:09.835Z</time>
      </trkpt>
      <trkpt lat="51.938285" lon="8.923371">
        <ele>204.470849</ele>
        <time>2024-11-19T19:01:14.795Z</time>
      </trkpt>
      <trkpt lat="51.938386" lon="8.923400">
        <ele>204.878320</ele>
        <time>2024-11-19T19:01:21.252Z</time>
      </trkpt>
      <trkpt lat="51.938563" lon="8.923312">
        <ele>205.496122</ele>
        <time>2024-11-19T19:01:32.708Z</time>
      </trkpt>
      <trkpt lat="51.938636" lon="8.923315">
        <ele>205.679043</ele>
        <time>2024-11-19T19:01:37.158Z</time>
      </trkpt>
      <trkpt lat="51.938814" lon="8.923381">
        <ele>206.136428</ele>
        <time>2024-11-19T19:01:48.195Z</time>
      </trkpt>
      <trkpt lat="51.938875" lon="8.923456">
        <ele>206.328167</ele>
        <time>2024-11-19T19:01:52.740Z</time>
      </trkpt>
      <trkpt lat="51.938878" lon="8.923615">
        <ele>206.573828</ele>
        <time>2024-11-19T19:01:58.543Z</time>
      </trkpt>
      <trkpt lat="51.938843" lon="8.923765">
        <ele>206.821511</ele>
        <time>2024-11-19T19:02:04.319Z</time>
      </trkpt>
      <trkpt lat="51.938710" lon="8.924141">
        <ele>207.490963</ele>
        <time>2024-11-19T19:02:19.493Z</time>
      </trkpt>
      <trkpt lat="51.938892" lon="8.924280">
        <ele>207.994874</ele>
        <time>2024-11-19T19:02:26.951Z</time>
      </trkpt>
      <trkpt lat="51.939565" lon="8.924795">
        <ele>209.807779</ele>
        <time>2024-11-19T19:02:52.961Z</time>
      </trkpt>
      <trkpt lat="51.939852" lon="8.925087">
        <ele>209.908768</ele>
        <time>2024-11-19T19:03:04.700Z</time>
      </trkpt>
      <trkpt lat="51.940017" lon="8.925383">
        <ele>209.982103</ele>
        <time>2024-11-19T19:03:12.965Z</time>
      </trkpt>
      <trkpt lat="51.940251" lon="8.926316">
        <ele>210.167206</ele>
        <time>2024-11-19T19:03:30.820Z</time>
      </trkpt>
      <trkpt lat="51.940344" lon="8.926721">
        <ele>210.246627</ele>
        <time>2024-11-19T19:03:37.286Z</time>
      </trkpt>
      <trkpt lat="51.940389" lon="8.926908">
        <ele>210.283517</ele>
        <time>2024-11-19T19:03:40.193Z</time>
      </trkpt>
      <trkpt lat="51.940467" lon="8.927263">
        <ele>210.207495</ele>
        <time>2024-11-19T19:03:45.471Z</time>
      </trkpt>
      <trkpt lat="51.940490" lon="8.927345">
        <ele>210.071237</ele>
        <time>2024-11-19T19:03:46.710Z</time>
      </trkpt>
      <trkpt lat="51.940562" lon="8.927652">
        <ele>209.574439</ele>
        <time>2024-11-19T19:03:51.090Z</time>
      </trkpt>
      <trkpt lat="51.940616" lon="8.927707">
        <ele>209.418003</ele>
        <time>2024-11-19T19:03:52.442Z</time>
      </trkpt>
      <trkpt lat="51.940672" lon="8.927837">
        <ele>209.178134</ele>
        <time>2024-11-19T19:03:54.488Z</time>
      </trkpt>
      <trkpt lat="51.940862" lon="8.928797">
        <ele>207.653164</ele>
        <time>2024-11-19T19:04:06.994Z</time>
      </trkpt>
      <trkpt lat="51.940772" lon="8.929783">
        <ele>206.145605</ele>
        <time>2024-11-19T19:04:19.070Z</time>
      </trkpt>
      <trkpt lat="51.940744" lon="8.930096">
        <ele>205.611514</ele>
        <time>2024-11-19T19:04:22.926Z</time>
      </trkpt>
      <trkpt lat="51.940739" lon="8.930948">
        <ele>204.043345</ele>
        <time>2024-11-19T19:04:33.274Z</time>
      </trkpt>
      <trkpt lat="51.940760" lon="8.931252">
        <ele>203.480334</ele>
        <time>2024-11-19T19:04:36.978Z</time>
      </trkpt>
      <trkpt lat="51.940847" lon="8.931873">
        <ele>202.308249</ele>
        <time>2024-11-19T19:04:44.676Z</time>
      </trkpt>
      <trkpt lat="51.940961" lon="8.932439">
        <ele>201.212346</ele>
        <time>2024-11-19T19:04:51.927Z</time>
      </trkpt>
      <trkpt lat="51.941178" lon="8.933278">
        <ele>199.571400</ele>
        <time>2024-11-19T19:05:03.211Z</time>
      </trkpt>
      <trkpt lat="51.941378" lon="8.933790">
        <ele>198.492717</ele>
        <time>2024-11-19T19:05:10.809Z</time>
      </trkpt>
      <trkpt lat="51.941786" lon="8.933998">
        <ele>197.258113</ele>
        <time>2024-11-19T19:05:19.489Z</time>
      </trkpt>
      <trkpt lat="51.942026" lon="8.934252">
        <ele>196.430871</ele>
        <time>2024-11-19T19:05:25.229Z</time>
      </trkpt>
      <trkpt lat="51.942154" lon="8.934579">
        <ele>195.741544</ele>
        <time>2024-11-19T19:05:31.708Z</time>
      </trkpt>
      <trkpt lat="51.942391" lon="8.935362">
        <ele>193.632897</ele>
        <time>2024-11-19T19:05:45.997Z</time>
      </trkpt>
      <trkpt lat="51.942775" lon="8.936268">
        <ele>190.748165</ele>
        <time>2024-11-19T19:06:03.241Z</time>
      </trkpt>
      <trkpt lat="51.942847" lon="8.936438">
        <ele>190.207009</ele>
        <time>2024-11-19T19:06:06.419Z</time>
      </trkpt>
      <trkpt lat="51.943073" lon="8.936937">
        <ele>188.582417</ele>
        <time>2024-11-19T19:06:15.984Z</time>
      </trkpt>
      <trkpt lat="51.943269" lon="8.937360">
        <ele>187.312043</ele>
        <time>2024-11-19T19:06:24.260Z</time>
      </trkpt>
      <trkpt lat="51.943478" lon="8.937848">
        <ele>186.111846</ele>
        <time>2024-11-19T19:06:33.677Z</time>
      </trkpt>
      <trkpt lat="51.943636" lon="8.938279">
        <ele>185.099015</ele>
        <time>2024-11-19T19:06:41.800Z</time>
      </trkpt>
      <trkpt lat="51.943686" lon="8.938430">
        <ele>184.752812</ele>
        <time>2024-11-19T19:06:44.602Z</time>
      </trkpt>
      <trkpt lat="51.943943" lon="8.938427">
        <ele>183.910718</ele>
        <time>2024-11-19T19:06:49.571Z</time>
      </trkpt>
      <trkpt lat="51.944134" lon="8.938424">
        <ele>183.284868</ele>
        <time>2024-11-19T19:06:53.306Z</time>
      </trkpt>
      <trkpt lat="51.944182" lon="8.938445">
        <ele>183.121975</ele>
        <time>2024-11-19T19:06:54.274Z</time>
      </trkpt>
      <trkpt lat="51.944302" lon="8.939010">
        <ele>181.914976</ele>
        <time>2024-11-19T19:07:01.932Z</time>
      </trkpt>
      <trkpt lat="51.944382" lon="8.939193">
        <ele>181.762651</ele>
        <time>2024-11-19T19:07:04.968Z</time>
      </trkpt>
      <trkpt lat="51.944508" lon="8.939294">
        <ele>181.696177</ele>
        <time>2024-11-19T19:07:08.164Z</time>
      </trkpt>
      <trkpt lat="51.944872" lon="8.939131">
        <ele>181.517572</ele>
        <time>2024-11-19T19:07:17.193Z</time>
      </trkpt>
      <trkpt lat="51.945237" lon="8.939046">
        <ele>181.343164</ele>
        <time>2024-11-19T19:07:27.466Z</time>
      </trkpt>
      <trkpt lat="51.945552" lon="8.938924">
        <ele>181.189987</ele>
        <time>2024-11-19T19:07:36.499Z</time>
      </trkpt>
      <trkpt lat="51.946195" lon="8.938576">
        <ele>181.043696</ele>
        <time>2024-11-19T19:07:56.483Z</time>
      </trkpt>
      <trkpt lat="51.946907" lon="8.938082">
        <ele>181.361814</ele>
        <time>2024-11-19T19:08:16.645Z</time>
      </trkpt>
      <trkpt lat="51.947270" lon="8.937889">
        <ele>181.518740</ele>
        <time>2024-11-19T19:08:27.030Z</time>
      </trkpt>
      <trkpt lat="51.947445" lon="8.937830">
        <ele>181.592166</ele>
        <time>2024-11-19T19:08:32.476Z</time>
      </trkpt>
      <trkpt lat="51.947725" lon="8.937839">
        <ele>181.763183</ele>
        <time>2024-11-19T19:08:42.159Z</time>
      </trkpt>
      <trkpt lat="51.947936" lon="8.937779">
        <ele>182.722356</ele>
        <time>2024-11-19T19:08:50.522Z</time>
      </trkpt>
      <trkpt lat="51.948284" lon="8.937465">
        <ele>184.505328</ele>
        <time>2024-11-19T19:09:08.361Z</time>
      </trkpt>
      <trkpt lat="51.948376" lon="8.937382">
        <ele>184.976672</ele>
        <time>2024-11-19T19:09:13.613Z</time>
      </trkpt>
      <trkpt lat="51.948740" lon="8.937118">
        <ele>186.761957</ele>
        <time>2024-11-19T19:09:35.081Z</time>
      </trkpt>
      <trkpt lat="51.949211" lon="8.936604">
        <ele>189.303595</ele>
        <time>2024-11-19T19:10:08.042Z</time>
      </trkpt>
      <trkpt lat="51.949549" lon="8.936293">
        <ele>190.692527</ele>
        <time>2024-11-19T19:10:29.836Z</time>
      </trkpt>
      <trkpt lat="51.949600" lon="8.936279">
        <ele>190.861042</ele>
        <time>2024-11-19T19:10:32.716Z</time>
      </trkpt>
      <trkpt lat="51.949908" lon="8.936317">
        <ele>191.867375</ele>
        <time>2024-11-19T19:10:48.941Z</time>
      </trkpt>
      <trkpt lat="51.950755" lon="8.936219">
        <ele>194.633832</ele>
        <time>2024-11-19T19:11:23.908Z</time>
      </trkpt>
      <trkpt lat="51.951121" lon="8.936124">
        <ele>195.505250</ele>
        <time>2024-11-19T19:11:35.505Z</time>
      </trkpt>
      <trkpt lat="51.951283" lon="8.936135">
        <ele>195.249297</ele>
        <time>2024-11-19T19:11:40.015Z</time>
      </trkpt>
      <trkpt lat="51.951497" lon="8.936169">
        <ele>194.909866</ele>
        <time>2024-11-19T19:11:45.349Z</time>
      </trkpt>
      <trkpt lat="51.951627" lon="8.936139">
        <ele>194.702586</ele>
        <time>2024-11-19T19:11:48.395Z</time>
      </trkpt>
      <trkpt lat="51.951946" lon="8.935957">
        <ele>194.168795</ele>
        <time>2024-11-19T19:11:55.695Z</time>
      </trkpt>
      <trkpt lat="51.952017" lon="8.935864">
        <ele>194.024752</ele>
        <time>2024-11-19T19:11:57.525Z</time>
      </trkpt>
      <trkpt lat="51.952180" lon="8.935670">
        <ele>193.705641</ele>
        <time>2024-11-19T19:12:01.510Z</time>
      </trkpt>
      <trkpt lat="51.952503" lon="8.935290">
        <ele>193.075834</ele>
        <time>2024-11-19T19:12:09.424Z</time>
      </trkpt>
      <trkpt lat="51.952810" lon="8.935009">
        <ele>192.624942</ele>
        <time>2024-11-19T19:12:16.752Z</time>
      </trkpt>
      <trkpt lat="51.953064" lon="8.934802">
        <ele>192.361022</ele>
        <time>2024-11-19T19:12:22.859Z</time>
      </trkpt>
      <trkpt lat="51.953447" lon="8.934489">
        <ele>191.962840</ele>
        <time>2024-11-19T19:12:33.004Z</time>
      </trkpt>
      <trkpt lat="51.953841" lon="8.934118">
        <ele>191.539864</ele>
        <time>2024-11-19T19:12:45.062Z</time>
      </trkpt>
      <trkpt lat="51.954018" lon="8.934001">
        <ele>191.362402</ele>
        <time>2024-11-19T19:12:50.238Z</time>
      </trkpt>
      <trkpt lat="51.954101" lon="8.933987">
        <ele>191.284920</ele>
        <time>2024-11-19T19:12:52.483Z</time>
      </trkpt>
      <trkpt lat="51.954248" lon="8.933984">
        <ele>191.148417</ele>
        <time>2024-11-19T19:12:56.300Z</time>
      </trkpt>
      <trkpt lat="51.954790" lon="8.934091">
        <ele>189.404124</ele>
        <time>2024-11-19T19:13:09.574Z</time>
      </trkpt>
      <trkpt lat="51.954992" lon="8.934094">
        <ele>188.716534</ele>
        <time>2024-11-19T19:13:14.041Z</time>
      </trkpt>
      <trkpt lat="51.955390" lon="8.934022">
        <ele>187.353442</ele>
        <time>2024-11-19T19:13:21.931Z</time>
      </trkpt>
      <trkpt lat="51.955682" lon="8.933853">
        <ele>186.298213</ele>
        <time>2024-11-19T19:13:27.556Z</time>
      </trkpt>
      <trkpt lat="51.955900" lon="8.933597">
        <ele>185.382266</ele>
        <time>2024-11-19T19:13:32.210Z</time>
      </trkpt>
      <trkpt lat="51.956085" lon="8.933294">
        <ele>183.964135</ele>
        <time>2024-11-19T19:13:36.707Z</time>
      </trkpt>
      <trkpt lat="51.956144" lon="8.933243">
        <ele>183.496406</ele>
        <time>2024-11-19T19:13:37.842Z</time>
      </trkpt>
      <trkpt lat="51.956326" lon="8.933156">
        <ele>182.168887</ele>
        <time>2024-11-19T19:13:41.076Z</time>
      </trkpt>
      <trkpt lat="51.956656" lon="8.933169">
        <ele>179.859269</ele>
        <time>2024-11-19T19:13:46.687Z</time>
      </trkpt>
      <trkpt lat="51.956862" lon="8.933290">
        <ele>178.326412</ele>
        <time>2024-11-19T19:13:50.381Z</time>
      </trkpt>
      <trkpt lat="51.956900" lon="8.933333">
        <ele>178.002272</ele>
        <time>2024-11-19T19:13:51.214Z</time>
      </trkpt>
      <trkpt lat="51.958285" lon="8.934232">
        <ele>168.549299</ele>
        <time>2024-11-19T19:14:18.234Z</time>
      </trkpt>
      <trkpt lat="51.959376" lon="8.935099">
        <ele>162.196158</ele>
        <time>2024-11-19T19:14:41.285Z</time>
      </trkpt>
      <trkpt lat="51.959924" lon="8.935299">
        <ele>161.250871</ele>
        <time>2024-11-19T19:14:52.500Z</time>
      </trkpt>
      <trkpt lat="51.960084" lon="8.935427">
        <ele>160.950659</ele>
        <time>2024-11-19T19:14:56.335Z</time>
      </trkpt>
      <trkpt lat="51.960154" lon="8.935534">
        <ele>160.788822</ele>
        <time>2024-11-19T19:14:58.461Z</time>
      </trkpt>
      <trkpt lat="51.960213" lon="8.935729">
        <ele>160.563536</ele>
        <time>2024-11-19T19:15:01.556Z</time>
      </trkpt>
      <trkpt lat="51.960225" lon="8.935926">
        <ele>160.358243</ele>
        <time>2024-11-19T19:15:04.502Z</time>
      </trkpt>
      <trkpt lat="51.960152" lon="8.936313">
        <ele>159.938524</ele>
        <time>2024-11-19T19:15:11.065Z</time>
      </trkpt>
      <trkpt lat="51.959753" lon="8.937880">
        <ele>162.061339</ele>
        <time>2024-11-19T19:15:49.909Z</time>
      </trkpt>
      <trkpt lat="51.959581" lon="8.938456">
        <ele>163.601413</ele>
        <time>2024-11-19T19:16:08.348Z</time>
      </trkpt>
      <trkpt lat="51.959573" lon="8.938580">
        <ele>163.901403</ele>
        <time>2024-11-19T19:16:12.085Z</time>
      </trkpt>
      <trkpt lat="51.959701" lon="8.938484">
        <ele>164.451995</ele>
        <time>2024-11-19T19:16:19.230Z</time>
      </trkpt>
      <trkpt lat="51.960397" lon="8.937726">
        <ele>168.773107</ele>
        <time>2024-11-19T19:17:08.277Z</time>
      </trkpt>
      <trkpt lat="51.960856" lon="8.939189">
        <ele>175.784209</ele>
        <time>2024-11-19T19:18:30.645Z</time>
      </trkpt>
      <trkpt lat="51.960942" lon="8.939249">
        <ele>176.432978</ele>
        <time>2024-11-19T19:18:38.176Z</time>
      </trkpt>
      <trkpt lat="51.961003" lon="8.939237">
        <ele>176.858834</ele>
        <time>2024-11-19T19:18:43.211Z</time>
      </trkpt>
      <trkpt lat="51.961052" lon="8.939151">
        <ele>177.359045</ele>
        <time>2024-11-19T19:18:47.872Z</time>
      </trkpt>
      <trkpt lat="51.961133" lon="8.939108">
        <ele>177.949688</ele>
        <time>2024-11-19T19:18:53.386Z</time>
      </trkpt>
      <trkpt lat="51.962259" lon="8.938857">
        <ele>183.727628</ele>
        <time>2024-11-19T19:19:56.309Z</time>
      </trkpt>
      <trkpt lat="51.962702" lon="8.938669">
        <ele>185.947949</ele>
        <time>2024-11-19T19:20:18.736Z</time>
      </trkpt>
      <trkpt lat="51.962855" lon="8.938609">
        <ele>186.711193</ele>
        <time>2024-11-19T19:20:25.811Z</time>
      </trkpt>
      <trkpt lat="51.963245" lon="8.938620">
        <ele>188.221066</ele>
        <time>2024-11-19T19:20:42.889Z</time>
      </trkpt>
      <trkpt lat="51.963708" lon="8.938665">
        <ele>189.647662</ele>
        <time>2024-11-19T19:21:02.848Z</time>
      </trkpt>
      <trkpt lat="51.963860" lon="8.938695">
        <ele>190.118611</ele>
        <time>2024-11-19T19:21:09.515Z</time>
      </trkpt>
      <trkpt lat="51.964426" lon="8.938804">
        <ele>191.871664</ele>
        <time>2024-11-19T19:21:33.803Z</time>
      </trkpt>
      <trkpt lat="51.965146" lon="8.939092">
        <ele>193.248173</ele>
        <time>2024-11-19T19:22:02.331Z</time>
      </trkpt>
      <trkpt lat="51.965516" lon="8.939093">
        <ele>193.416304</ele>
        <time>2024-11-19T19:22:14.656Z</time>
      </trkpt>
      <trkpt lat="51.966223" lon="8.938989">
        <ele>193.738888</ele>
        <time>2024-11-19T19:22:34.583Z</time>
      </trkpt>
      <trkpt lat="51.967474" lon="8.938443">
        <ele>192.034796</ele>
        <time>2024-11-19T19:23:05.066Z</time>
      </trkpt>
      <trkpt lat="51.967931" lon="8.938196">
        <ele>191.055452</ele>
        <time>2024-11-19T19:23:15.503Z</time>
      </trkpt>
      <trkpt lat="51.968430" lon="8.938113">
        <ele>189.874353</ele>
        <time>2024-11-19T19:23:25.795Z</time>
      </trkpt>
      <trkpt lat="51.969475" lon="8.937681">
        <ele>186.046468</ele>
        <time>2024-11-19T19:23:47.129Z</time>
      </trkpt>
      <trkpt lat="51.970012" lon="8.937573">
        <ele>184.125688</ele>
        <time>2024-11-19T19:23:57.955Z</time>
      </trkpt>
      <trkpt lat="51.970281" lon="8.937319">
        <ele>183.615179</ele>
        <time>2024-11-19T19:24:04.318Z</time>
      </trkpt>
      <trkpt lat="51.970541" lon="8.936992">
        <ele>183.267639</ele>
        <time>2024-11-19T19:24:11.293Z</time>
      </trkpt>
      <trkpt lat="51.971071" lon="8.936132">
        <ele>182.475797</ele>
        <time>2024-11-19T19:24:29.180Z</time>
      </trkpt>
      <trkpt lat="51.971209" lon="8.936035">
        <ele>182.316898</ele>
        <time>2024-11-19T19:24:33.495Z</time>
      </trkpt>
      <trkpt lat="51.971290" lon="8.936078">
        <ele>182.226850</ele>
        <time>2024-11-19T19:24:36.082Z</time>
      </trkpt>
      <trkpt lat="51.971342" lon="8.935942">
        <ele>182.122657</ele>
        <time>2024-11-19T19:24:39.082Z</time>
      </trkpt>
      <trkpt lat="51.971432" lon="8.935832">
        <ele>182.003617</ele>
        <time>2024-11-19T19:24:42.675Z</time>
      </trkpt>
      <trkpt lat="51.972214" lon="8.935231">
        <ele>185.072184</ele>
        <time>2024-11-19T19:25:16.494Z</time>
      </trkpt>
      <trkpt lat="51.972491" lon="8.934980">
        <ele>186.259075</ele>
        <time>2024-11-19T19:25:31.349Z</time>
      </trkpt>
      <trkpt lat="51.972655" lon="8.934753">
        <ele>187.065434</ele>
        <time>2024-11-19T19:25:42.053Z</time>
      </trkpt>
      <trkpt lat="51.973159" lon="8.933883">
        <ele>190.671732</ele>
        <time>2024-11-19T19:26:22.386Z</time>
      </trkpt>
      <trkpt lat="51.973658" lon="8.933276">
        <ele>194.779769</ele>
        <time>2024-11-19T19:26:58.589Z</time>
      </trkpt>
      <trkpt lat="51.973750" lon="8.933119">
        <ele>195.659169</ele>
        <time>2024-11-19T19:27:06.446Z</time>
      </trkpt>
      <trkpt lat="51.973850" lon="8.932863">
        <ele>196.889389</ele>
        <time>2024-11-19T19:27:17.595Z</time>
      </trkpt>
      <trkpt lat="51.974175" lon="8.932942">
        <ele>199.054382</ele>
        <time>2024-11-19T19:27:38.450Z</time>
      </trkpt>
      <trkpt lat="51.974359" lon="8.932925">
        <ele>200.268548</ele>
        <time>2024-11-19T19:27:50.753Z</time>
      </trkpt>
      <trkpt lat="51.974585" lon="8.932818">
        <ele>200.941236</ele>
        <time>2024-11-19T19:28:05.875Z</time>
      </trkpt>
      <trkpt lat="51.974708" lon="8.932691">
        <ele>201.239574</ele>
        <time>2024-11-19T19:28:14.357Z</time>
      </trkpt>
      <trkpt lat="51.974870" lon="8.932589">
        <ele>201.595190</ele>
        <time>2024-11-19T19:28:23.314Z</time>
      </trkpt>
      <trkpt lat="51.975417" lon="8.932235">
        <ele>202.800367</ele>
        <time>2024-11-19T19:28:47.039Z</time>
      </trkpt>
      <trkpt lat="51.976674" lon="8.931435">
        <ele>203.886569</ele>
        <time>2024-11-19T19:29:14.684Z</time>
      </trkpt>
      <trkpt lat="51.977185" lon="8.931191">
        <ele>203.609348</ele>
        <time>2024-11-19T19:29:25.240Z</time>
      </trkpt>
      <trkpt lat="51.978113" lon="8.930906">
        <ele>205.242383</ele>
        <time>2024-11-19T19:30:03.051Z</time>
      </trkpt>
      <trkpt lat="51.978414" lon="8.930761">
        <ele>207.089751</ele>
        <time>2024-11-19T19:30:21.503Z</time>
      </trkpt>
      <trkpt lat="51.978485" lon="8.930710">
        <ele>207.546570</ele>
        <time>2024-11-19T19:30:26.437Z</time>
      </trkpt>
      <trkpt lat="51.978842" lon="8.930493">
        <ele>209.789511</ele>
        <time>2024-11-19T19:30:50.768Z</time>
      </trkpt>
      <trkpt lat="51.979417" lon="8.930266">
        <ele>213.271327</ele>
        <time>2024-11-19T19:31:28.434Z</time>
      </trkpt>
      <trkpt lat="51.979740" lon="8.930210">
        <ele>214.530833</ele>
        <time>2024-11-19T19:31:45.645Z</time>
      </trkpt>
      <trkpt lat="51.980077" lon="8.930256">
        <ele>215.530018</ele>
        <time>2024-11-19T19:32:01.370Z</time>
      </trkpt>
      <trkpt lat="51.980715" lon="8.930389">
        <ele>217.430476</ele>
        <time>2024-11-19T19:32:26.680Z</time>
      </trkpt>
      <trkpt lat="51.981365" lon="8.930438">
        <ele>219.234818</ele>
        <time>2024-11-19T19:32:46.712Z</time>
      </trkpt>
      <trkpt lat="51.982420" lon="8.930317">
        <ele>220.127414</ele>
        <time>2024-11-19T19:33:18.252Z</time>
      </trkpt>
      <trkpt lat="51.982765" lon="8.930241">
        <ele>220.421248</ele>
        <time>2024-11-19T19:33:29.214Z</time>
      </trkpt>
      <trkpt lat="51.982833" lon="8.930220">
        <ele>220.479666</ele>
        <time>2024-11-19T19:33:31.417Z</time>
      </trkpt>
      <trkpt lat="51.982945" lon="8.930175">
        <ele>220.577040</ele>
        <time>2024-11-19T19:33:35.114Z</time>
      </trkpt>
      <trkpt lat="51.983815" lon="8.929801">
        <ele>220.825330</ele>
        <time>2024-11-19T19:34:03.205Z</time>
      </trkpt>
      <trkpt lat="51.984106" lon="8.929708">
        <ele>220.872842</ele>
        <time>2024-11-19T19:34:11.930Z</time>
      </trkpt>
      <trkpt lat="51.985740" lon="8.929465">
        <ele>219.424050</ele>
        <time>2024-11-19T19:34:50.925Z</time>
      </trkpt>
      <trkpt lat="51.987332" lon="8.929654">
        <ele>216.974721</ele>
        <time>2024-11-19T19:35:22.971Z</time>
      </trkpt>
      <trkpt lat="51.988070" lon="8.929630">
        <ele>216.074561</ele>
        <time>2024-11-19T19:35:39.951Z</time>
      </trkpt>
      <trkpt lat="51.988226" lon="8.929600">
        <ele>215.882992</ele>
        <time>2024-11-19T19:35:44.301Z</time>
      </trkpt>
      <trkpt lat="51.988388" lon="8.929523">
        <ele>215.677147</ele>
        <time>2024-11-19T19:35:49.330Z</time>
      </trkpt>
      <trkpt lat="51.989369" lon="8.928904">
        <ele>215.921608</ele>
        <time>2024-11-19T19:36:23.124Z</time>
      </trkpt>
      <trkpt lat="51.989593" lon="8.928553">
        <ele>216.016696</ele>
        <time>2024-11-19T19:36:32.305Z</time>
      </trkpt>
      <trkpt lat="51.990129" lon="8.927419">
        <ele>215.144023</ele>
        <time>2024-11-19T19:36:53.488Z</time>
      </trkpt>
      <trkpt lat="51.990604" lon="8.926634">
        <ele>213.391843</ele>
        <time>2024-11-19T19:37:07.199Z</time>
      </trkpt>
      <trkpt lat="51.990668" lon="8.926486">
        <ele>213.103920</ele>
        <time>2024-11-19T19:37:09.390Z</time>
      </trkpt>
      <trkpt lat="51.990704" lon="8.926333">
        <ele>212.843156</ele>
        <time>2024-11-19T19:37:11.340Z</time>
      </trkpt>
      <trkpt lat="51.990700" lon="8.926142">
        <ele>212.538895</ele>
        <time>2024-11-19T19:37:13.597Z</time>
      </trkpt>
      <trkpt lat="51.990481" lon="8.923880">
        <ele>208.124671</ele>
        <time>2024-11-19T19:37:39.984Z</time>
      </trkpt>
      <trkpt lat="51.990396" lon="8.923049">
        <ele>206.390235</ele>
        <time>2024-11-19T19:37:50.232Z</time>
      </trkpt>
      <trkpt lat="51.990375" lon="8.922892">
        <ele>206.059440</ele>
        <time>2024-11-19T19:37:52.292Z</time>
      </trkpt>
      <trkpt lat="51.990355" lon="8.922738">
        <ele>205.735386</ele>
        <time>2024-11-19T19:37:54.312Z</time>
      </trkpt>
      <trkpt lat="51.990367" lon="8.922333">
        <ele>205.321296</ele>
        <time>2024-11-19T19:37:59.676Z</time>
      </trkpt>
      <trkpt lat="51.990314" lon="8.922202">
        <ele>205.224781</ele>
        <time>2024-11-19T19:38:01.790Z</time>
      </trkpt>
      <trkpt lat="51.990309" lon="8.922156">
        <ele>205.196018</ele>
        <time>2024-11-19T19:38:02.425Z</time>
      </trkpt>
      <trkpt lat="51.990276" lon="8.921896">
        <ele>205.032558</ele>
        <time>2024-11-19T19:38:06.088Z</time>
      </trkpt>
      <trkpt lat="51.990205" lon="8.921185">
        <ele>204.589040</ele>
        <time>2024-11-19T19:38:16.511Z</time>
      </trkpt>
      <trkpt lat="51.990102" lon="8.920170">
        <ele>203.955622</ele>
        <time>2024-11-19T19:38:32.555Z</time>
      </trkpt>
      <trkpt lat="51.989984" lon="8.918915">
        <ele>203.320709</ele>
        <time>2024-11-19T19:38:51.482Z</time>
      </trkpt>
      <trkpt lat="51.989956" lon="8.918631">
        <ele>203.192814</ele>
        <time>2024-11-19T19:38:55.701Z</time>
      </trkpt>
      <trkpt lat="51.989910" lon="8.918145">
        <ele>202.974166</ele>
        <time>2024-11-19T19:39:02.940Z</time>
      </trkpt>
      <trkpt lat="51.989696" lon="8.915985">
        <ele>201.868189</ele>
        <time>2024-11-19T19:39:34.628Z</time>
      </trkpt>
      <trkpt lat="51.989671" lon="8.915713">
        <ele>201.705416</ele>
        <time>2024-11-19T19:39:38.577Z</time>
      </trkpt>
      <trkpt lat="51.989548" lon="8.914486">
        <ele>200.969623</ele>
        <time>2024-11-19T19:39:56.817Z</time>
      </trkpt>
      <trkpt lat="51.989543" lon="8.914426">
        <ele>200.933787</ele>
        <time>2024-11-19T19:39:57.680Z</time>
      </trkpt>
      <trkpt lat="51.989503" lon="8.913919">
        <ele>200.583221</ele>
        <time>2024-11-19T19:40:04.800Z</time>
      </trkpt>
      <trkpt lat="51.989561" lon="8.913912">
        <ele>200.465576</ele>
        <time>2024-11-19T19:40:06.530Z</time>
      </trkpt>
      <trkpt lat="51.989646" lon="8.913957">
        <ele>200.284732</ele>
        <time>2024-11-19T19:40:09.208Z</time>
      </trkpt>
      <trkpt lat="51.989746" lon="8.913544">
        <ele>199.731943</ele>
        <time>2024-11-19T19:40:17.279Z</time>
      </trkpt>
      <trkpt lat="51.989760" lon="8.913453">
        <ele>199.615106</ele>
        <time>2024-11-19T19:40:18.978Z</time>
      </trkpt>
      <trkpt lat="51.989725" lon="8.913434">
        <ele>199.540457</ele>
        <time>2024-11-19T19:40:19.774Z</time>
      </trkpt>
      <trkpt lat="51.989749" lon="8.913355">
        <ele>199.430728</ele>
        <time>2024-11-19T19:40:20.948Z</time>
      </trkpt>
      <trkpt lat="51.989946" lon="8.912354">
        <ele>198.121716</ele>
        <time>2024-11-19T19:40:34.476Z</time>
      </trkpt>
      <trkpt lat="51.990193" lon="8.911139">
        <ele>196.549276</ele>
        <time>2024-11-19T19:40:50.351Z</time>
      </trkpt>
      <trkpt lat="51.990243" lon="8.910912">
        <ele>196.261577</ele>
        <time>2024-11-19T19:40:53.437Z</time>
      </trkpt>
      <trkpt lat="51.990243" lon="8.910912">
        <ele>196.261577</ele>
        <time>2024-11-19T19:40:53.441Z</time>
      </trkpt>
      <trkpt lat="51.990493" lon="8.910600">
        <ele>195.650560</ele>
        <time>2024-11-19T19:41:00.185Z</time>
      </trkpt>
      <trkpt lat="51.990825" lon="8.910241">
        <ele>194.877594</ele>
        <time>2024-11-19T19:41:08.806Z</time>
      </trkpt>
      <trkpt lat="51.990890" lon="8.910230">
        <ele>194.750948</ele>
        <time>2024-11-19T19:41:10.206Z</time>
      </trkpt>
      <trkpt lat="51.990916" lon="8.910259">
        <ele>194.689822</ele>
        <time>2024-11-19T19:41:10.881Z</time>
      </trkpt>
      <trkpt lat="51.990956" lon="8.910462">
        <ele>194.435476</ele>
        <time>2024-11-19T19:41:13.686Z</time>
      </trkpt>
      <trkpt lat="51.990948" lon="8.910858">
        <ele>193.962662</ele>
        <time>2024-11-19T19:41:18.978Z</time>
      </trkpt>
      <trkpt lat="51.991478" lon="8.911029">
        <ele>193.117205</ele>
        <time>2024-11-19T19:41:39.816Z</time>
      </trkpt>
      <trkpt lat="51.991520" lon="8.911041">
        <ele>193.060799</ele>
        <time>2024-11-19T19:41:41.471Z</time>
      </trkpt>
      <trkpt lat="51.991760" lon="8.911136">
        <ele>192.734061</ele>
        <time>2024-11-19T19:41:51.060Z</time>
      </trkpt>
      <trkpt lat="51.991847" lon="8.911038">
        <ele>192.594015</ele>
        <time>2024-11-19T19:41:55.240Z</time>
      </trkpt>
      <trkpt lat="51.991920" lon="8.910908">
        <ele>192.450719</ele>
        <time>2024-11-19T19:41:57.788Z</time>
      </trkpt>
      <trkpt lat="51.992194" lon="8.910227">
        <ele>191.788159</ele>
        <time>2024-11-19T19:42:09.861Z</time>
      </trkpt>
      <trkpt lat="51.992233" lon="8.910065">
        <ele>191.646490</ele>
        <time>2024-11-19T19:42:12.486Z</time>
      </trkpt>
      <trkpt lat="51.992260" lon="8.909682">
        <ele>191.332512</ele>
        <time>2024-11-19T19:42:18.254Z</time>
      </trkpt>
      <trkpt lat="51.992247" lon="8.909426">
        <ele>191.098278</ele>
        <time>2024-11-19T19:42:22.138Z</time>
      </trkpt>
      <trkpt lat="51.992231" lon="8.909092">
        <ele>190.684719</ele>
        <time>2024-11-19T19:42:27.075Z</time>
      </trkpt>
      <trkpt lat="51.992236" lon="8.908820">
        <ele>190.348793</ele>
        <time>2024-11-19T19:42:30.961Z</time>
      </trkpt>
      <trkpt lat="51.992257" lon="8.908738">
        <ele>190.239161</ele>
        <time>2024-11-19T19:42:32.211Z</time>
      </trkpt>
      <trkpt lat="51.992339" lon="8.908703">
        <ele>190.069187</ele>
        <time>2024-11-19T19:42:34.151Z</time>
      </trkpt>
      <trkpt lat="51.992917" lon="8.908654">
        <ele>188.908856</ele>
        <time>2024-11-19T19:42:47.073Z</time>
      </trkpt>
      <trkpt lat="51.992941" lon="8.908128">
        <ele>188.257755</ele>
        <time>2024-11-19T19:42:53.740Z</time>
      </trkpt>
      <trkpt lat="51.993143" lon="8.907394">
        <ele>187.151938</ele>
        <time>2024-11-19T19:43:03.453Z</time>
      </trkpt>
      <trkpt lat="51.993153" lon="8.907360">
        <ele>187.087890</ele>
        <time>2024-11-19T19:43:03.908Z</time>
      </trkpt>
      <trkpt lat="51.993258" lon="8.906999">
        <ele>186.409242</ele>
        <time>2024-11-19T19:43:08.767Z</time>
      </trkpt>
      <trkpt lat="51.993483" lon="8.906204">
        <ele>184.921985</ele>
        <time>2024-11-19T19:43:19.524Z</time>
      </trkpt>
      <trkpt lat="51.993499" lon="8.906154">
        <ele>184.826203</ele>
        <time>2024-11-19T19:43:20.232Z</time>
      </trkpt>
      <trkpt lat="51.993790" lon="8.905088">
        <ele>182.844131</ele>
        <time>2024-11-19T19:43:34.574Z</time>
      </trkpt>
      <trkpt lat="51.993842" lon="8.904898">
        <ele>182.543650</ele>
        <time>2024-11-19T19:43:37.152Z</time>
      </trkpt>
      <trkpt lat="51.993944" lon="8.904383">
        <ele>182.066528</ele>
        <time>2024-11-19T19:43:43.997Z</time>
      </trkpt>
      <trkpt lat="51.994158" lon="8.903219">
        <ele>180.995158</ele>
        <time>2024-11-19T19:44:00.160Z</time>
      </trkpt>
      <trkpt lat="51.994216" lon="8.902949">
        <ele>180.742958</ele>
        <time>2024-11-19T19:44:04.083Z</time>
      </trkpt>
      <trkpt lat="51.994290" lon="8.902770">
        <ele>180.552809</ele>
        <time>2024-11-19T19:44:07.071Z</time>
      </trkpt>
      <trkpt lat="51.994534" lon="8.902433">
        <ele>180.094030</ele>
        <time>2024-11-19T19:44:14.779Z</time>
      </trkpt>
      <trkpt lat="51.994682" lon="8.902111">
        <ele>180.280152</ele>
        <time>2024-11-19T19:44:21.551Z</time>
      </trkpt>
      <trkpt lat="51.994759" lon="8.901738">
        <ele>180.591554</ele>
        <time>2024-11-19T19:44:29.069Z</time>
      </trkpt>
      <trkpt lat="51.994783" lon="8.901377">
        <ele>180.878967</ele>
        <time>2024-11-19T19:44:36.535Z</time>
      </trkpt>
      <trkpt lat="51.994764" lon="8.901168">
        <ele>181.046196</ele>
        <time>2024-11-19T19:44:40.935Z</time>
      </trkpt>
      <trkpt lat="51.994718" lon="8.901003">
        <ele>181.189567</ele>
        <time>2024-11-19T19:44:44.696Z</time>
      </trkpt>
      <trkpt lat="51.994482" lon="8.900358">
        <ele>181.783463</ele>
        <time>2024-11-19T19:45:00.181Z</time>
      </trkpt>
      <trkpt lat="51.994441" lon="8.900165">
        <ele>181.945071</ele>
        <time>2024-11-19T19:45:04.594Z</time>
      </trkpt>
      <trkpt lat="51.994431" lon="8.899889">
        <ele>182.163920</ele>
        <time>2024-11-19T19:45:10.727Z</time>
      </trkpt>
      <trkpt lat="51.994517" lon="8.899389">
        <ele>182.434548</ele>
        <time>2024-11-19T19:45:23.488Z</time>
      </trkpt>
      <trkpt lat="51.994562" lon="8.898798">
        <ele>182.628166</ele>
        <time>2024-11-19T19:45:38.508Z</time>
      </trkpt>
      <trkpt lat="51.994539" lon="8.898609">
        <ele>182.690805</ele>
        <time>2024-11-19T19:45:42.855Z</time>
      </trkpt>
      <trkpt lat="51.994500" lon="8.898486">
        <ele>182.735788</ele>
        <time>2024-11-19T19:45:45.833Z</time>
      </trkpt>
      <trkpt lat="51.994380" lon="8.898314">
        <ele>182.820301</ele>
        <time>2024-11-19T19:45:50.974Z</time>
      </trkpt>
      <trkpt lat="51.993952" lon="8.898058">
        <ele>183.061144</ele>
        <time>2024-11-19T19:46:03.285Z</time>
      </trkpt>
      <trkpt lat="51.993823" lon="8.897890">
        <ele>183.148458</ele>
        <time>2024-11-19T19:46:07.226Z</time>
      </trkpt>
      <trkpt lat="51.994244" lon="8.896730">
        <ele>181.100858</ele>
        <time>2024-11-19T19:46:24.223Z</time>
      </trkpt>
      <trkpt lat="51.994264" lon="8.896671">
        <ele>180.941191</ele>
        <time>2024-11-19T19:46:25.006Z</time>
      </trkpt>
      <trkpt lat="51.994982" lon="8.894548">
        <ele>175.283833</ele>
        <time>2024-11-19T19:46:52.143Z</time>
      </trkpt>
      <trkpt lat="51.995026" lon="8.894418">
        <ele>174.957826</ele>
        <time>2024-11-19T19:46:53.834Z</time>
      </trkpt>
      <trkpt lat="51.995286" lon="8.893611">
        <ele>172.956243</ele>
        <time>2024-11-19T19:47:04.464Z</time>
      </trkpt>
      <trkpt lat="51.995293" lon="8.893588">
        <ele>172.899861</ele>
        <time>2024-11-19T19:47:04.779Z</time>
      </trkpt>
      <trkpt lat="51.995786" lon="8.891862">
        <ele>168.919907</ele>
        <time>2024-11-19T19:47:28.284Z</time>
      </trkpt>
      <trkpt lat="51.995945" lon="8.891301">
        <ele>167.786117</ele>
        <time>2024-11-19T19:47:36.037Z</time>
      </trkpt>
      <trkpt lat="51.995957" lon="8.891258">
        <ele>167.699446</ele>
        <time>2024-11-19T19:47:36.634Z</time>
      </trkpt>
      <trkpt lat="51.995987" lon="8.891148">
        <ele>167.478578</ele>
        <time>2024-11-19T19:47:38.118Z</time>
      </trkpt>
      <trkpt lat="51.996241" lon="8.890723">
        <ele>166.391229</ele>
        <time>2024-11-19T19:47:45.395Z</time>
      </trkpt>
      <trkpt lat="51.997493" lon="8.888709">
        <ele>160.632702</ele>
        <time>2024-11-19T19:48:19.447Z</time>
      </trkpt>
      <trkpt lat="51.997874" lon="8.888308">
        <ele>159.080642</ele>
        <time>2024-11-19T19:48:28.179Z</time>
      </trkpt>
      <trkpt lat="51.997973" lon="8.888169">
        <ele>158.633270</ele>
        <time>2024-11-19T19:48:30.709Z</time>
      </trkpt>
      <trkpt lat="51.998015" lon="8.888029">
        <ele>158.325173</ele>
        <time>2024-11-19T19:48:32.557Z</time>
      </trkpt>
      <trkpt lat="51.998174" lon="8.887255">
        <ele>156.879397</ele>
        <time>2024-11-19T19:48:42.313Z</time>
      </trkpt>
      <trkpt lat="51.998641" lon="8.884997">
        <ele>153.107604</ele>
        <time>2024-11-19T19:49:11.511Z</time>
      </trkpt>
      <trkpt lat="51.998990" lon="8.883672">
        <ele>152.480688</ele>
        <time>2024-11-19T19:49:32.267Z</time>
      </trkpt>
      <trkpt lat="51.998959" lon="8.883629">
        <ele>152.451885</ele>
        <time>2024-11-19T19:49:33.451Z</time>
      </trkpt>
      <trkpt lat="51.998911" lon="8.883232">
        <ele>152.275889</ele>
        <time>2024-11-19T19:49:40.488Z</time>
      </trkpt>
      <trkpt lat="51.998883" lon="8.883154">
        <ele>152.236612</ele>
        <time>2024-11-19T19:49:42.112Z</time>
      </trkpt>
      <trkpt lat="51.998332" lon="8.883193">
        <ele>151.822851</ele>
        <time>2024-11-19T19:49:58.723Z</time>
      </trkpt>
      <trkpt lat="51.998164" lon="8.883264">
        <ele>151.678461</ele>
        <time>2024-11-19T19:50:04.008Z</time>
      </trkpt>
      <trkpt lat="51.998112" lon="8.883259">
        <ele>151.635133</ele>
        <time>2024-11-19T19:50:05.663Z</time>
      </trkpt>
      <trkpt lat="51.998071" lon="8.883126">
        <ele>151.558962</ele>
        <time>2024-11-19T19:50:08.351Z</time>
      </trkpt>
      <trkpt lat="51.998084" lon="8.882605">
        <ele>151.291934</ele>
        <time>2024-11-19T19:50:17.112Z</time>
      </trkpt>
      <trkpt lat="51.998086" lon="8.882551">
        <ele>151.264230</ele>
        <time>2024-11-19T19:50:17.956Z</time>
      </trkpt>
      <trkpt lat="51.998129" lon="8.882500">
        <ele>151.219943</ele>
        <time>2024-11-19T19:50:19.247Z</time>
      </trkpt>
      <trkpt lat="51.998296" lon="8.882507">
        <ele>151.080991</ele>
        <time>2024-11-19T19:50:23.183Z</time>
      </trkpt>
      <trkpt lat="51.998335" lon="8.882430">
        <ele>151.029931</ele>
        <time>2024-11-19T19:50:24.585Z</time>
      </trkpt>
      <trkpt lat="51.998997" lon="8.882511">
        <ele>150.451310</ele>
        <time>2024-11-19T19:50:38.453Z</time>
      </trkpt>
      <trkpt lat="51.999377" lon="8.882461">
        <ele>149.205663</ele>
        <time>2024-11-19T19:50:45.994Z</time>
      </trkpt>
      <trkpt lat="52.001332" lon="8.881605">
        <ele>142.772099</ele>
        <time>2024-11-19T19:51:24.950Z</time>
      </trkpt>
      <trkpt lat="52.001400" lon="8.881540">
        <ele>142.537538</ele>
        <time>2024-11-19T19:51:26.497Z</time>
      </trkpt>
      <trkpt lat="52.001486" lon="8.881356">
        <ele>142.114724</ele>
        <time>2024-11-19T19:51:29.264Z</time>
      </trkpt>
      <trkpt lat="52.001527" lon="8.881218">
        <ele>141.834282</ele>
        <time>2024-11-19T19:51:31.104Z</time>
      </trkpt>
      <trkpt lat="52.001563" lon="8.881096">
        <ele>141.586673</ele>
        <time>2024-11-19T19:51:32.734Z</time>
      </trkpt>
      <trkpt lat="52.001944" lon="8.879593">
        <ele>138.754677</ele>
        <time>2024-11-19T19:51:53.186Z</time>
      </trkpt>
      <trkpt lat="52.001995" lon="8.879410">
        <ele>138.467698</ele>
        <time>2024-11-19T19:51:55.765Z</time>
      </trkpt>
      <trkpt lat="52.002081" lon="8.879296">
        <ele>138.210108</ele>
        <time>2024-11-19T19:51:58.088Z</time>
      </trkpt>
      <trkpt lat="52.002119" lon="8.879260">
        <ele>138.108024</ele>
        <time>2024-11-19T19:51:59.023Z</time>
      </trkpt>
      <trkpt lat="52.002314" lon="8.879618">
        <ele>137.425131</ele>
        <time>2024-11-19T19:52:05.187Z</time>
      </trkpt>
      <trkpt lat="52.002399" lon="8.879835">
        <ele>137.057690</ele>
        <time>2024-11-19T19:52:08.518Z</time>
      </trkpt>
      <trkpt lat="52.002496" lon="8.880044">
        <ele>136.683767</ele>
        <time>2024-11-19T19:52:11.880Z</time>
      </trkpt>
      <trkpt lat="52.002576" lon="8.880143">
        <ele>136.450384</ele>
        <time>2024-11-19T19:52:13.982Z</time>
      </trkpt>
      <trkpt lat="52.002616" lon="8.880256">
        <ele>136.264168</ele>
        <time>2024-11-19T19:52:15.669Z</time>
      </trkpt>
      <trkpt lat="52.002696" lon="8.880089">
        <ele>135.961871</ele>
        <time>2024-11-19T19:52:18.396Z</time>
      </trkpt>
      <trkpt lat="52.002841" lon="8.879432">
        <ele>134.943428</ele>
        <time>2024-11-19T19:52:27.219Z</time>
      </trkpt>
      <trkpt lat="52.003220" lon="8.878271">
        <ele>132.743336</ele>
        <time>2024-11-19T19:52:43.203Z</time>
      </trkpt>
      <trkpt lat="52.003556" lon="8.877242">
        <ele>130.793280</ele>
        <time>2024-11-19T19:52:57.572Z</time>
      </trkpt>
      <trkpt lat="52.004338" lon="8.875252">
        <ele>127.223929</ele>
        <time>2024-11-19T19:53:27.310Z</time>
      </trkpt>
      <trkpt lat="52.004535" lon="8.875490">
        <ele>126.632464</ele>
        <time>2024-11-19T19:53:32.331Z</time>
      </trkpt>
      <trkpt lat="52.004897" lon="8.875954">
        <ele>125.632105</ele>
        <time>2024-11-19T19:53:41.851Z</time>
      </trkpt>
      <trkpt lat="52.005021" lon="8.876056">
        <ele>125.405209</ele>
        <time>2024-11-19T19:53:44.749Z</time>
      </trkpt>
      <trkpt lat="52.005515" lon="8.876328">
        <ele>124.553719</ele>
        <time>2024-11-19T19:53:55.755Z</time>
      </trkpt>
      <trkpt lat="52.006992" lon="8.877453">
        <ele>121.847264</ele>
        <time>2024-11-19T19:54:32.702Z</time>
      </trkpt>
      <trkpt lat="52.007116" lon="8.877518">
        <ele>121.625653</ele>
        <time>2024-11-19T19:54:35.531Z</time>
      </trkpt>
      <trkpt lat="52.007187" lon="8.877554">
        <ele>121.499149</ele>
        <time>2024-11-19T19:54:37.126Z</time>
      </trkpt>
      <trkpt lat="52.007677" lon="8.877734">
        <ele>120.644702</ele>
        <time>2024-11-19T19:54:47.883Z</time>
      </trkpt>
      <trkpt lat="52.007810" lon="8.877754">
        <ele>120.417524</ele>
        <time>2024-11-19T19:54:50.675Z</time>
      </trkpt>
      <trkpt lat="52.007902" lon="8.877717">
        <ele>120.256324</ele>
        <time>2024-11-19T19:54:52.653Z</time>
      </trkpt>
      <trkpt lat="52.008088" lon="8.877535">
        <ele>119.887018</ele>
        <time>2024-11-19T19:54:57.181Z</time>
      </trkpt>
      <trkpt lat="52.008196" lon="8.877501">
        <ele>119.654950</ele>
        <time>2024-11-19T19:54:59.457Z</time>
      </trkpt>
      <trkpt lat="52.008304" lon="8.877517">
        <ele>119.421473</ele>
        <time>2024-11-19T19:55:01.695Z</time>
      </trkpt>
      <trkpt lat="52.008392" lon="8.877626">
        <ele>119.183235</ele>
        <time>2024-11-19T19:55:03.980Z</time>
      </trkpt>
      <trkpt lat="52.008649" lon="8.878090">
        <ele>118.356057</ele>
        <time>2024-11-19T19:55:11.835Z</time>
      </trkpt>
      <trkpt lat="52.008688" lon="8.878154">
        <ele>118.236714</ele>
        <time>2024-11-19T19:55:12.972Z</time>
      </trkpt>
      <trkpt lat="52.009284" lon="8.878732">
        <ele>116.742364</ele>
        <time>2024-11-19T19:55:27.482Z</time>
      </trkpt>
      <trkpt lat="52.009855" lon="8.879341">
        <ele>115.550138</ele>
        <time>2024-11-19T19:55:41.999Z</time>
      </trkpt>
      <trkpt lat="52.009983" lon="8.879408">
        <ele>115.371761</ele>
        <time>2024-11-19T19:55:44.931Z</time>
      </trkpt>
      <trkpt lat="52.010433" lon="8.879517">
        <ele>114.768273</ele>
        <time>2024-11-19T19:55:54.946Z</time>
      </trkpt>
      <trkpt lat="52.010519" lon="8.879608">
        <ele>114.632139</ele>
        <time>2024-11-19T19:55:57.228Z</time>
      </trkpt>
      <trkpt lat="52.010635" lon="8.879808">
        <ele>114.407780</ele>
        <time>2024-11-19T19:56:01.049Z</time>
      </trkpt>
      <trkpt lat="52.010779" lon="8.880090">
        <ele>114.108630</ele>
        <time>2024-11-19T19:56:06.221Z</time>
      </trkpt>
      <trkpt lat="52.011144" lon="8.880762">
        <ele>113.558272</ele>
        <time>2024-11-19T19:56:19.266Z</time>
      </trkpt>
      <trkpt lat="52.011542" lon="8.880919">
        <ele>113.435826</ele>
        <time>2024-11-19T19:56:29.430Z</time>
      </trkpt>
      <trkpt lat="52.011969" lon="8.880991">
        <ele>113.307483</ele>
        <time>2024-11-19T19:56:40.259Z</time>
      </trkpt>
      <trkpt lat="52.012626" lon="8.881031">
        <ele>113.110925</ele>
        <time>2024-11-19T19:56:57.755Z</time>
      </trkpt>
      <trkpt lat="52.013174" lon="8.881063">
        <ele>112.986936</ele>
        <time>2024-11-19T19:57:12.560Z</time>
      </trkpt>
      <trkpt lat="52.013387" lon="8.881124">
        <ele>112.942725</ele>
        <time>2024-11-19T19:57:18.042Z</time>
      </trkpt>
      <trkpt lat="52.013909" lon="8.881305">
        <ele>112.833617</ele>
        <time>2024-11-19T19:57:31.447Z</time>
      </trkpt>
      <trkpt lat="52.014304" lon="8.881418">
        <ele>112.751631</ele>
        <time>2024-11-19T19:57:41.941Z</time>
      </trkpt>
      <trkpt lat="52.014725" lon="8.881601">
        <ele>112.682263</ele>
        <time>2024-11-19T19:57:53.261Z</time>
      </trkpt>
      <trkpt lat="52.014700" lon="8.882325">
        <ele>112.632776</ele>
        <time>2024-11-19T19:58:04.363Z</time>
      </trkpt>
      <trkpt lat="52.014700" lon="8.882426">
        <ele>112.625883</ele>
        <time>2024-11-19T19:58:05.963Z</time>
      </trkpt>
      <trkpt lat="52.014699" lon="8.883179">
        <ele>112.574495</ele>
        <time>2024-11-19T19:58:18.127Z</time>
      </trkpt>
      <trkpt lat="52.014693" lon="8.883612">
        <ele>112.544937</ele>
        <time>2024-11-19T19:58:25.469Z</time>
      </trkpt>
      <trkpt lat="52.014690" lon="8.883834">
        <ele>112.529783</ele>
        <time>2024-11-19T19:58:29.203Z</time>
      </trkpt>
      <trkpt lat="52.014801" lon="8.885151">
        <ele>112.519143</ele>
        <time>2024-11-19T19:58:50.862Z</time>
      </trkpt>
      <trkpt lat="52.015015" lon="8.887008">
        <ele>112.544007</ele>
        <time>2024-11-19T19:59:23.356Z</time>
      </trkpt>
      <trkpt lat="52.014992" lon="8.887219">
        <ele>112.362389</ele>
        <time>2024-11-19T19:59:26.797Z</time>
      </trkpt>
      <trkpt lat="52.015148" lon="8.887246">
        <ele>112.080440</ele>
        <time>2024-11-19T19:59:30.660Z</time>
      </trkpt>
      <trkpt lat="52.015780" lon="8.887107">
        <ele>110.934254</ele>
        <time>2024-11-19T19:59:44.797Z</time>
      </trkpt>
      <trkpt lat="52.016002" lon="8.887110">
        <ele>110.535263</ele>
        <time>2024-11-19T19:59:49.353Z</time>
      </trkpt>
      <trkpt lat="52.016320" lon="8.887189">
        <ele>109.957114</ele>
        <time>2024-11-19T19:59:55.736Z</time>
      </trkpt>
      <trkpt lat="52.016861" lon="8.887116">
        <ele>109.155662</ele>
        <time>2024-11-19T20:00:06.509Z</time>
      </trkpt>
      <trkpt lat="52.017192" lon="8.887246">
        <ele>108.866036</ele>
        <time>2024-11-19T20:00:13.400Z</time>
      </trkpt>
      <trkpt lat="52.017553" lon="8.887382">
        <ele>108.550858</ele>
        <time>2024-11-19T20:00:21.434Z</time>
      </trkpt>
      <trkpt lat="52.017674" lon="8.887428">
        <ele>108.445167</ele>
        <time>2024-11-19T20:00:24.310Z</time>
      </trkpt>
      <trkpt lat="52.017831" lon="8.887480">
        <ele>108.308891</ele>
        <time>2024-11-19T20:00:28.193Z</time>
      </trkpt>
      <trkpt lat="52.018115" lon="8.887700">
        <ele>108.041302</ele>
        <time>2024-11-19T20:00:37.209Z</time>
      </trkpt>
      <trkpt lat="52.018159" lon="8.887534">
        <ele>107.946699</ele>
        <time>2024-11-19T20:00:40.844Z</time>
      </trkpt>
      <trkpt lat="52.018326" lon="8.887600">
        <ele>107.800523</ele>
        <time>2024-11-19T20:00:46.820Z</time>
      </trkpt>
      <trkpt lat="52.018787" lon="8.887479">
        <ele>108.130147</ele>
        <time>2024-11-19T20:01:03.377Z</time>
      </trkpt>
      <trkpt lat="52.019092" lon="8.887419">
        <ele>108.369898</ele>
        <time>2024-11-19T20:01:14.352Z</time>
      </trkpt>
      <trkpt lat="52.019226" lon="8.887444">
        <ele>108.475155</ele>
        <time>2024-11-19T20:01:19.129Z</time>
      </trkpt>
      <trkpt lat="52.020011" lon="8.887862">
        <ele>109.119797</ele>
        <time>2024-11-19T20:01:44.906Z</time>
      </trkpt>
      <trkpt lat="52.020546" lon="8.887993">
        <ele>108.206221</ele>
        <time>2024-11-19T20:01:56.104Z</time>
      </trkpt>
      <trkpt lat="52.020701" lon="8.888087">
        <ele>107.850920</ele>
        <time>2024-11-19T20:01:59.422Z</time>
      </trkpt>
      <trkpt lat="52.020841" lon="8.888172">
        <ele>107.529959</ele>
        <time>2024-11-19T20:02:02.394Z</time>
      </trkpt>
      <trkpt lat="52.021028" lon="8.888267">
        <ele>107.109193</ele>
        <time>2024-11-19T20:02:06.255Z</time>
      </trkpt>
      <trkpt lat="52.021271" lon="8.888276">
        <ele>106.587194</ele>
        <time>2024-11-19T20:02:11.020Z</time>
      </trkpt>
      <trkpt lat="52.021309" lon="8.888503">
        <ele>106.276299</ele>
        <time>2024-11-19T20:02:13.873Z</time>
      </trkpt>
      <trkpt lat="52.021316" lon="8.888552">
        <ele>106.209821</ele>
        <time>2024-11-19T20:02:14.494Z</time>
      </trkpt>
      <trkpt lat="52.021395" lon="8.889494">
        <ele>105.283969</ele>
        <time>2024-11-19T20:02:26.223Z</time>
      </trkpt>
      <trkpt lat="52.021696" lon="8.891769">
        <ele>104.957349</ele>
        <time>2024-11-19T20:03:05.885Z</time>
      </trkpt>
      <trkpt lat="52.021712" lon="8.891889">
        <ele>104.940114</ele>
        <time>2024-11-19T20:03:08.322Z</time>
      </trkpt>
      <trkpt lat="52.022154" lon="8.895134">
        <ele>105.895410</ele>
        <time>2024-11-19T20:04:09.373Z</time>
      </trkpt>
      <trkpt lat="52.022249" lon="8.895833">
        <ele>105.726588</ele>
        <time>2024-11-19T20:04:21.767Z</time>
      </trkpt>
      <trkpt lat="52.022248" lon="8.896083">
        <ele>105.667628</ele>
        <time>2024-11-19T20:04:25.843Z</time>
      </trkpt>
      <trkpt lat="52.022220" lon="8.896184">
        <ele>105.641502</ele>
        <time>2024-11-19T20:04:27.624Z</time>
      </trkpt>
      <trkpt lat="52.022153" lon="8.896281">
        <ele>105.607112</ele>
        <time>2024-11-19T20:04:29.881Z</time>
      </trkpt>
      <trkpt lat="52.022089" lon="8.896304">
        <ele>105.581992</ele>
        <time>2024-11-19T20:04:31.541Z</time>
      </trkpt>
      <trkpt lat="52.022081" lon="8.896342">
        <ele>105.572520</ele>
        <time>2024-11-19T20:04:32.159Z</time>
      </trkpt>
      <trkpt lat="52.022073" lon="8.896374">
        <ele>105.564374</ele>
        <time>2024-11-19T20:04:32.677Z</time>
      </trkpt>
      <trkpt lat="52.022066" lon="8.896404">
        <ele>105.556807</ele>
        <time>2024-11-19T20:04:33.143Z</time>
      </trkpt>
      <trkpt lat="52.022051" lon="8.896448">
        <ele>105.544945</ele>
        <time>2024-11-19T20:04:33.911Z</time>
      </trkpt>
      <trkpt lat="52.022044" lon="8.896467">
        <ele>105.539722</ele>
        <time>2024-11-19T20:04:34.247Z</time>
      </trkpt>
      <trkpt lat="52.022033" lon="8.896492">
        <ele>105.532474</ele>
        <time>2024-11-19T20:04:34.701Z</time>
      </trkpt>
      <trkpt lat="52.022011" lon="8.896539">
        <ele>105.518547</ele>
        <time>2024-11-19T20:04:35.631Z</time>
      </trkpt>
      <trkpt lat="52.022092" lon="8.896740">
        <ele>105.461883</ele>
        <time>2024-11-19T20:04:39.142Z</time>
      </trkpt>
      <trkpt lat="52.022376" lon="8.897071">
        <ele>105.327941</ele>
        <time>2024-11-19T20:04:47.259Z</time>
      </trkpt>
      <trkpt lat="52.022560" lon="8.897426">
        <ele>105.052604</ele>
        <time>2024-11-19T20:04:53.688Z</time>
      </trkpt>
      <trkpt lat="52.022629" lon="8.897629">
        <ele>104.749391</ele>
        <time>2024-11-19T20:04:56.826Z</time>
      </trkpt>
      <trkpt lat="52.022721" lon="8.898139">
        <ele>104.054527</ele>
        <time>2024-11-19T20:05:03.863Z</time>
      </trkpt>
      <trkpt lat="52.022798" lon="8.898823">
        <ele>103.145387</ele>
        <time>2024-11-19T20:05:12.614Z</time>
      </trkpt>
      <trkpt lat="52.022801" lon="8.899414">
        <ele>102.372657</ele>
        <time>2024-11-19T20:05:19.889Z</time>
      </trkpt>
      <trkpt lat="52.022794" lon="8.899612">
        <ele>102.113355</ele>
        <time>2024-11-19T20:05:22.339Z</time>
      </trkpt>
      <trkpt lat="52.022794" lon="8.899637">
        <ele>102.080669</ele>
        <time>2024-11-19T20:05:22.660Z</time>
      </trkpt>
      <trkpt lat="52.022793" lon="8.899667">
        <ele>102.041388</ele>
        <time>2024-11-19T20:05:23.045Z</time>
      </trkpt>
      <trkpt lat="52.022792" lon="8.899707">
        <ele>101.989046</ele>
        <time>2024-11-19T20:05:23.551Z</time>
      </trkpt>
      <trkpt lat="52.022797" lon="8.899796">
        <ele>101.872199</ele>
        <time>2024-11-19T20:05:24.675Z</time>
      </trkpt>
      <trkpt lat="52.022828" lon="8.899981">
        <ele>101.621513</ele>
        <time>2024-11-19T20:05:28.013Z</time>
      </trkpt>
      <trkpt lat="52.022901" lon="8.899961">
        <ele>101.464218</ele>
        <time>2024-11-19T20:05:29.570Z</time>
      </trkpt>
      <trkpt lat="52.023110" lon="8.899839">
        <ele>101.175630</ele>
        <time>2024-11-19T20:05:34.334Z</time>
      </trkpt>
      <trkpt lat="52.023131" lon="8.899826">
        <ele>101.147726</ele>
        <time>2024-11-19T20:05:34.822Z</time>
      </trkpt>
      <trkpt lat="52.023550" lon="8.899572">
        <ele>100.592422</ele>
        <time>2024-11-19T20:05:44.924Z</time>
      </trkpt>
      <trkpt lat="52.023555" lon="8.899599">
        <ele>100.570878</ele>
        <time>2024-11-19T20:05:45.295Z</time>
      </trkpt>
      <trkpt lat="52.023616" lon="8.899563">
        <ele>100.490292</ele>
        <time>2024-11-19T20:05:46.772Z</time>
      </trkpt>
      <trkpt lat="52.023683" lon="8.899522">
        <ele>100.401394</ele>
        <time>2024-11-19T20:05:48.483Z</time>
      </trkpt>
      <trkpt lat="52.023849" lon="8.899407">
        <ele>100.177319</ele>
        <time>2024-11-19T20:05:52.595Z</time>
      </trkpt>
      <trkpt lat="52.024068" lon="8.899374">
        <ele>99.904214</ele>
        <time>2024-11-19T20:05:57.588Z</time>
      </trkpt>
      <trkpt lat="52.024100" lon="8.899368">
        <ele>99.864215</ele>
        <time>2024-11-19T20:05:58.384Z</time>
      </trkpt>
      <trkpt lat="52.024077" lon="8.899614">
        <ele>99.674095</ele>
        <time>2024-11-19T20:06:02.337Z</time>
      </trkpt>
      <trkpt lat="52.023986" lon="8.901106">
        <ele>99.046675</ele>
        <time>2024-11-19T20:06:27.027Z</time>
      </trkpt>
      <trkpt lat="52.023918" lon="8.901989">
        <ele>98.891490</ele>
        <time>2024-11-19T20:06:41.063Z</time>
      </trkpt>
      <trkpt lat="52.023946" lon="8.903493">
        <ele>98.618133</ele>
        <time>2024-11-19T20:07:03.851Z</time>
      </trkpt>
      <trkpt lat="52.023892" lon="8.904000">
        <ele>98.512306</ele>
        <time>2024-11-19T20:07:11.803Z</time>
      </trkpt>
      <trkpt lat="52.023872" lon="8.904100">
        <ele>98.490679</ele>
        <time>2024-11-19T20:07:13.447Z</time>
      </trkpt>
      <trkpt lat="52.023851" lon="8.904259">
        <ele>98.457232</ele>
        <time>2024-11-19T20:07:16.046Z</time>
      </trkpt>
      <trkpt lat="52.023846" lon="8.904631">
        <ele>98.380703</ele>
        <time>2024-11-19T20:07:21.996Z</time>
      </trkpt>
      <trkpt lat="52.023984" lon="8.905573">
        <ele>98.181543</ele>
        <time>2024-11-19T20:07:37.387Z</time>
      </trkpt>
      <trkpt lat="52.024136" lon="8.906030">
        <ele>98.088975</ele>
        <time>2024-11-19T20:07:45.301Z</time>
      </trkpt>
      <trkpt lat="52.024340" lon="8.906308">
        <ele>98.088975</ele>
        <time>2024-11-19T20:07:51.732Z</time>
      </trkpt>
      <trkpt lat="52.024396" lon="8.906385">
        <ele>98.088975</ele>
        <time>2024-11-19T20:07:53.581Z</time>
      </trkpt>
      <trkpt lat="52.025135" lon="8.907017">
        <ele>98.088975</ele>
        <time>2024-11-19T20:08:14.181Z</time>
      </trkpt>
      <trkpt lat="52.025188" lon="8.907045">
        <ele>98.088975</ele>
        <time>2024-11-19T20:08:16.040Z</time>
      </trkpt>
      <trkpt lat="52.025203" lon="8.907453">
        <ele>98.088975</ele>
        <time>2024-11-19T20:08:22.664Z</time>
      </trkpt>
      <trkpt lat="52.025148" lon="8.907466">
        <ele>98.088975</ele>
        <time>2024-11-19T20:08:24.563Z</time>
      </trkpt>
      <trkpt lat="52.025134" lon="8.907465">
        <ele>98.088975</ele>
        <time>2024-11-19T20:08:25.041Z</time>
      </trkpt>
      <trkpt lat="52.025044" lon="8.907447">
        <ele>98.088975</ele>
        <time>2024-11-19T20:08:27.338Z</time>
      </trkpt>
      <trkpt lat="52.024891" lon="8.907415">
        <ele>98.088975</ele>
        <time>2024-11-19T20:08:31.350Z</time>
      </trkpt>
      <trkpt lat="52.024761" lon="8.907326">
        <ele>98.088975</ele>
        <time>2024-11-19T20:08:35.065Z</time>
      </trkpt>
      <trkpt lat="52.024630" lon="8.907230">
        <ele>98.088975</ele>
        <time>2024-11-19T20:08:38.911Z</time>
      </trkpt>
      <trkpt lat="52.024501" lon="8.907135">
        <ele>98.088975</ele>
        <time>2024-11-19T20:08:42.782Z</time>
      </trkpt>
      <trkpt lat="52.024446" lon="8.907343">
        <ele>98.088975</ele>
        <time>2024-11-19T20:08:46.672Z</time>
      </trkpt>
    </trkseg>
  </trk>
</gpx>